[[{"header":{"parameterUnit":"m.s-1","parameterCategory":1,"la1":30.6,"la2":28.766,"lo1":-90.7593,"lo2":-88.6598,"dy":0.0162,"dx":0.0183,"nx":116,"ny":114,"refTime":"2023-07-24T12:00:00:Z","depth":0,"parameterNumber":2,"parameterNumberName":"U-component_of_WINDS"},"data":[0.0,0.0,0.0,0.0,0.0,0.0,0.0,0.0,0.0,0.0,0.0,0.0,0.0,0.0,0.0,0.0,0.0,0.0,0.0,0.0,0.0,0.0,0.0,0.0,0.0,0.0,0.0,0.0,0.0,0.0,0.0,0.0,0.0,0.0,0.0,0.0,0.0,0.0,0.0,0.0,0.0,0.0,0.0,0.0,0.0,0.0,0.0,0.0,0.0,0.0,0.0,0.0,0.0,0.0,0.0,0.0,0.0,0.0,0.0,0.0,0.0,0.0,0.0,0.0,0.0,0.0,0.0,0.0,0.0,0.0,0.0,0.0,0.0,0.0,0.0,0.0,0.0,0.0,0.0,0.0,0.0,0.0,0.0,0.0,0.0,0.0,0.0,0.0,0.0,0.0,0.0,0.0,0.0,0.0,0.0,0.0,0.0,0.0,0.0,0.0,0.0,0.0,0.0,0.0,0.0,0.0,0.0,0.0,0.0,0.0,0.0,0.0,0.0,0.0,0.0,0.0,0.0,0.0,0.0,0.0,0.0,0.0,0.0,0.0,0.0,0.0,0.0,0.0,0.0,0.0,0.0,0.0,0.0,0.0,0.0,0.0,0.0,0.0,0.0,0.0,0.0,0.0,0.0,0.0,0.0,0.0,0.0,0.0,0.0,0.0,0.0,0.0,0.0,0.0,0.0,0.0,0.0,0.0,0.0,0.0,0.0,0.0,0.0,0.0,0.0,0.0,0.0,0.0,0.0,0.0,0.0,0.0,0.0,0.0,0.0,0.0,0.0,0.0,0.0,0.0,0.0,0.0,0.0,0.0,0.0,0.0,0.0,0.0,0.0,0.0,0.0,0.0,0.0,0.0,0.0,0.0,0.0,0.0,0.0,0.0,0.0,0.0,0.0,0.0,0.0,0.0,0.0,0.0,0.0,0.0,0.0,0.0,0.0,0.0,0.0,0.0,0.0,0.0,0.0,0.0,0.0,0.0,0.0,0.0,0.0,0.0,0.0,0.0,0.0,0.0,0.0,0.0,0.0,0.0,0.0,0.0,0.0,0.0,0.0,0.0,0.0,0.0,0.0,0.0,0.0,0.0,0.0,0.0,0.0,0.0,0.0,0.0,0.0,0.0,0.0,0.0,0.0,0.0,0.0,0.0,0.0,0.0,0.0,0.0,0.0,0.0,0.0,0.0,0.0,0.0,0.0,0.0,0.0,0.0,0.0,0.0,0.0,0.0,0.0,0.0,0.0,0.0,0.0,0.0,0.0,0.0,0.0,0.0,0.0,0.0,0.0,0.0,0.0,0.0,0.0,0.0,0.0,0.0,0.0,0.0,0.0,0.0,0.0,0.0,0.0,0.0,0.0,0.0,0.0,0.0,0.0,0.0,0.0,0.0,0.0,0.0,0.0,0.0,0.0,0.0,0.0,0.0,0.0,0.0,0.0,0.0,0.0,0.0,0.0,0.0,0.0,0.0,0.0,0.0,0.0,0.0,0.0,0.0,0.0,0.0,0.0,0.0,0.0,0.0,0.0,0.0,0.0,0.0,0.0,0.0,0.0,0.0,0.0,0.0,0.0,0.0,0.0,0.0,0.0,0.0,0.0,0.0,0.0,0.0,0.0,0.0,0.0,0.0,0.0,0.0,0.0,0.0,0.0,0.0,0.0,0.0,0.0,0.0,0.0,0.0,0.0,0.0,0.0,0.0,0.0,0.0,0.0,0.0,0.0,0.0,0.0,0.0,0.0,0.0,0.0,0.0,0.0,0.0,0.0,0.0,0.0,0.0,0.0,0.0,0.0,0.0,0.0,0.0,0.0,0.0,0.0,0.0,0.0,0.0,0.0,0.0,0.0,0.0,0.0,0.0,0.0,0.0,0.0,0.0,0.0,0.0,0.0,0.0,0.0,0.0,0.0,0.0,0.0,0.0,0.0,0.0,0.0,0.0,0.0,0.0,0.0,0.0,0.0,0.0,0.0,0.0,0.0,0.0,0.0,0.0,0.0,0.0,0.0,0.0,0.0,0.0,0.0,0.0,0.0,0.0,0.0,0.0,0.0,0.0,0.0,0.0,0.0,0.0,0.0,0.0,0.0,0.0,0.0,0.0,0.0,0.0,0.0,0.0,0.0,0.0,0.0,0.0,0.0,0.0,0.0,0.0,0.0,0.0,0.0,0.0,0.0,0.0,0.0,0.0,0.0,0.0,0.0,0.0,0.0,0.0,0.0,0.0,0.0,0.0,0.0,0.0,0.0,0.0,0.0,0.0,0.0,0.0,0.0,0.0,0.0,0.0,0.0,0.0,0.0,0.0,0.0,0.0,0.0,0.0,0.0,0.0,0.0,0.0,0.0,0.0,0.0,0.0,0.0,0.0,0.0,0.0,0.0,0.0,0.0,0.0,0.0,0.0,0.0,0.0,0.0,0.0,0.0,0.0,0.0,0.0,0.0,0.0,0.0,0.0,0.0,0.0,0.0,0.0,0.0,0.0,0.0,0.0,0.0,0.0,0.0,0.0,0.0,0.0,0.0,0.0,0.0,0.0,0.0,0.0,0.0,0.0,0.0,0.0,0.0,0.0,0.0,0.0,0.0,0.0,0.0,0.0,0.0,0.0,0.0,0.0,0.0,0.0,0.0,0.0,0.0,0.0,0.0,0.0,0.0,0.0,0.0,0.0,0.0,0.0,0.0,0.0,0.0,0.0,0.0,0.0,0.0,0.0,0.0,0.0,0.0,0.0,0.0,0.0,0.0,0.0,0.0,0.0,0.0,0.0,0.0,0.0,0.0,0.0,0.0,0.0,0.0,0.0,0.0,0.0,0.0,0.0,0.0,0.0,0.0,0.0,0.0,0.0,0.0,0.0,0.0,0.0,0.0,0.0,0.0,0.0,0.0,0.0,0.0,0.0,0.0,0.0,0.0,0.0,0.0,0.0,0.0,0.0,0.0,0.0,0.0,0.0,0.0,0.0,0.0,0.0,0.0,0.0,0.0,0.0,0.0,0.0,0.0,0.0,0.0,0.0,0.0,0.0,0.0,0.0,0.0,0.0,0.0,0.0,0.0,0.0,0.0,0.0,0.0,0.0,0.0,0.0,0.0,0.0,0.0,0.0,0.0,0.0,0.0,0.0,0.0,0.0,0.0,0.0,0.0,0.0,0.0,0.0,0.0,0.0,0.0,0.0,0.0,0.0,0.0,0.0,0.0,0.0,0.0,0.0,0.0,0.0,0.0,0.0,0.0,0.0,0.0,0.0,0.0,0.0,0.0,0.0,0.0,0.0,0.0,0.0,0.0,0.0,0.0,0.0,0.0,0.0,0.0,0.0,0.0,0.0,0.0,0.0,0.0,0.0,0.0,0.0,0.0,0.0,0.0,0.0,0.0,0.0,0.0,0.0,0.0,0.0,0.0,0.0,0.0,0.0,0.0,0.0,0.0,0.0,0.0,0.0,0.0,0.0,0.0,0.0,0.0,0.0,0.0,0.0,0.0,0.0,0.0,0.0,0.0,0.0,0.0,0.0,0.0,0.0,0.0,0.0,0.0,0.0,0.0,0.0,0.0,0.0,0.0,0.0,0.0,0.0,0.0,0.0,0.0,0.0,0.0,0.0,0.0,0.0,0.0,0.0,0.0,0.0,0.0,0.0,0.0,0.0,0.0,0.0,0.0,0.0,0.0,0.0,0.0,0.0,0.0,0.0,0.0,0.0,0.0,0.0,0.0,0.0,0.0,0.0,0.0,0.0,0.0,0.0,0.0,0.0,0.0,0.0,0.0,0.0,0.0,0.0,0.0,0.0,0.0,0.0,0.0,0.0,0.0,0.0,0.0,0.0,0.0,0.0,0.0,0.0,0.0,0.0,0.0,0.0,0.0,0.0,0.0,0.0,0.0,0.0,0.0,0.0,0.0,0.0,0.0,0.0,0.0,0.0,0.0,0.0,0.0,0.0,0.0,0.0,0.0,0.0,0.0,0.0,0.0,0.0,0.0,0.0,0.0,0.0,0.0,0.0,0.0,0.0,0.0,0.0,0.0,0.0,0.0,0.0,0.0,0.0,0.0,0.0,0.0,0.0,0.0,0.0,0.0,0.0,0.0,0.0,0.0,0.0,0.0,0.0,0.0,0.0,0.0,0.0,0.0,0.0,0.0,0.0,0.0,0.0,0.0,0.0,0.0,0.0,0.0,0.0,0.0,0.0,0.0,0.0,0.0,0.0,0.0,0.0,0.0,0.0,0.0,0.0,0.0,0.0,0.0,0.0,0.0,0.0,0.0,0.0,0.0,0.0,0.0,0.0,0.0,0.0,0.0,0.0,0.0,0.0,0.0,0.0,0.0,0.0,0.0,0.0,0.0,0.0,0.0,0.0,0.0,0.0,0.0,0.0,0.0,0.0,0.0,0.0,0.0,0.0,0.0,0.0,0.0,0.0,0.0,0.0,0.0,0.0,0.0,0.0,0.0,0.0,0.0,0.0,0.0,0.0,0.0,0.0,0.0,0.0,0.0,0.0,0.0,0.0,0.0,0.0,0.0,0.0,0.0,0.0,0.0,0.0,0.0,0.0,0.0,0.0,0.0,0.0,0.0,0.0,0.0,0.0,0.0,0.0,0.0,0.0,0.0,0.0,0.0,0.0,0.0,0.0,0.0,0.0,0.0,0.0,0.0,0.0,0.0,0.0,0.0,0.0,0.0,0.0,0.0,0.0,0.0,0.0,0.0,0.0,0.0,0.0,0.0,0.0,0.0,0.0,0.0,0.0,0.0,0.0,0.0,0.0,0.0,0.0,0.0,0.0,0.0,0.0,0.0,0.0,0.0,0.0,0.0,0.0,0.0,0.0,0.0,0.0,0.0,0.0,0.0,0.0,0.0,0.0,0.0,0.0,0.0,0.0,0.0,0.0,0.0,0.0,0.0,0.0,0.0,0.0,0.0,0.0,0.0,0.0,0.0,0.0,0.0,0.0,0.0,0.0,0.0,0.0,0.0,0.0,0.0,0.0,0.0,0.0,0.0,0.0,0.0,0.0,0.0,0.0,0.0,0.0,0.0,0.0,0.0,0.0,0.0,0.0,0.0,0.0,0.0,0.0,0.0,0.0,0.0,0.0,0.0,0.0,0.0,0.0,0.0,0.0,0.0,0.0,0.0,0.0,0.0,0.0,0.0,0.0,0.0,0.0,0.0,0.0,0.0,0.0,0.0,0.0,0.0,0.0,0.0,0.0,0.0,0.0,0.0,0.0,0.0,0.0,0.0,0.0,0.0,0.0,0.0,0.0,0.0,0.0,0.0,0.0,0.0,0.0,0.0,0.0,0.0,0.0,0.0,0.0,0.0,0.0,0.0,0.0,0.0,0.0,0.0,0.0,0.0,0.0,0.0,0.0,0.0,0.0,0.0,0.0,0.0,0.0,0.0,0.0,0.0,0.0,0.0,0.0,0.0,0.0,0.0,0.0,0.0,0.0,0.0,0.0,0.0,0.0,0.0,0.0,0.0,0.0,0.0,0.0,0.0,0.0,0.0,0.0,0.0,0.0,0.0,0.0,0.0,0.0,0.0,0.0,0.0,0.0,0.0,0.0,0.0,0.0,0.0,0.0,0.0,0.0,0.0,0.0,0.0,0.0,0.0,0.0,0.0,0.0,0.0,0.0,0.0,0.0,0.0,0.0,0.0,0.0,0.0,0.0,0.0,0.0,0.0,0.0,0.0,0.0,0.0,0.0,0.0,0.0,0.0,0.0,0.0,0.0,0.0,0.0,0.0,0.0,0.0,0.0,0.0,0.0,0.0,0.0,0.0,0.0,0.0,0.0,0.0,0.0,0.0,0.0,0.0,0.0,0.0,0.0,0.0,0.0,0.0,0.0,0.0,0.0,0.0,0.0,0.0,0.0,0.0,0.0,0.0,0.0,0.0,0.0,0.0,0.0,0.0,0.0,0.0,0.0,0.0,0.0,0.0,0.0,0.0,0.0,0.0,0.0,0.0,0.0,0.0,0.0,0.0,0.0,0.0,0.0,0.0,0.0,0.0,0.0,0.0,0.0,0.0,0.0,0.0,0.0,0.0,0.0,0.0,0.0,0.0,0.0,0.0,0.0,0.0,0.0,0.0,0.0,0.0,0.0,0.0,0.0,0.0,0.0,-3.9816,0.0,0.0,0.0,0.0,0.0,0.0,0.0,0.0,0.0,0.0,0.0,0.0,0.0,0.0,0.0,0.0,0.0,0.0,0.0,0.0,0.0,0.0,0.0,0.0,0.0,0.0,0.0,0.0,0.0,0.0,0.0,0.0,0.0,0.0,0.0,0.0,0.0,0.0,0.0,0.0,0.0,0.0,0.0,0.0,0.0,0.0,0.0,0.0,0.0,0.0,0.0,0.0,0.0,0.0,0.0,0.0,0.0,0.0,0.0,0.0,0.0,0.0,0.0,0.0,0.0,0.0,0.0,0.0,0.0,0.0,0.0,0.0,0.0,0.0,0.0,0.0,0.0,0.0,0.0,0.0,0.0,0.0,0.0,0.0,0.0,0.0,0.0,0.0,0.0,0.0,0.0,0.0,0.0,0.0,0.0,0.0,0.0,0.0,0.0,0.0,0.0,0.0,0.0,0.0,0.0,0.0,0.0,0.0,0.0,0.0,0.0,0.0,0.0,0.0,0.0,0.0,-3.9775,0.0,0.0,0.0,0.0,0.0,0.0,0.0,0.0,0.0,0.0,0.0,0.0,0.0,0.0,0.0,0.0,0.0,0.0,0.0,0.0,0.0,0.0,0.0,0.0,0.0,0.0,0.0,0.0,0.0,0.0,0.0,0.0,0.0,0.0,0.0,0.0,0.0,0.0,0.0,0.0,0.0,0.0,0.0,0.0,0.0,0.0,0.0,0.0,0.0,0.0,0.0,0.0,0.0,0.0,0.0,0.0,0.0,0.0,0.0,0.0,0.0,0.0,0.0,0.0,0.0,0.0,0.0,0.0,0.0,0.0,0.0,0.0,0.0,0.0,0.0,0.0,0.0,0.0,0.0,0.0,0.0,0.0,0.0,0.0,0.0,0.0,0.0,0.0,0.0,0.0,0.0,0.0,0.0,0.0,0.0,0.0,0.0,0.0,0.0,0.0,0.0,0.0,0.0,0.0,0.0,0.0,0.0,0.0,-3.9333,-3.9432,-3.9432,-3.9432,-3.9282,-3.9049,-3.932,-3.932,-3.9152,-3.9765,0.0,0.0,0.0,0.0,0.0,0.0,0.0,0.0,0.0,0.0,0.0,0.0,0.0,0.0,0.0,0.0,0.0,0.0,0.0,0.0,0.0,0.0,0.0,0.0,0.0,0.0,0.0,0.0,0.0,0.0,0.0,0.0,0.0,0.0,0.0,0.0,0.0,0.0,-3.1742,-3.2345,-3.3043,-3.3769,-3.4688,0.0,0.0,0.0,0.0,0.0,0.0,0.0,0.0,0.0,0.0,0.0,0.0,0.0,0.0,0.0,0.0,0.0,0.0,0.0,0.0,0.0,0.0,0.0,0.0,0.0,0.0,0.0,0.0,0.0,0.0,0.0,0.0,0.0,0.0,0.0,0.0,0.0,0.0,0.0,0.0,0.0,0.0,0.0,-3.4941,-3.5515,0.0,0.0,0.0,0.0,0.0,0.0,0.0,0.0,0.0,0.0,0.0,0.0,0.0,-3.8818,-3.9049,-3.884,-3.8869,-3.9099,-3.8913,-3.8822,-3.8822,-3.8822,-3.8792,-3.8747,-3.8807,0.0,-3.9139,-3.9517,0.0,0.0,0.0,0.0,0.0,0.0,0.0,0.0,0.0,0.0,0.0,0.0,0.0,0.0,0.0,0.0,0.0,0.0,0.0,0.0,0.0,0.0,0.0,0.0,0.0,0.0,0.0,0.0,0.0,0.0,0.0,0.0,0.0,0.0,0.0,0.0,-2.9299,-2.9936,-3.0875,-3.1408,-3.2125,-3.3028,-3.3877,-3.4579,-3.5119,-3.5499,0.0,0.0,0.0,0.0,0.0,0.0,0.0,0.0,0.0,0.0,0.0,0.0,0.0,0.0,0.0,0.0,0.0,0.0,0.0,0.0,0.0,0.0,0.0,0.0,0.0,0.0,0.0,0.0,0.0,0.0,0.0,0.0,0.0,0.0,0.0,0.0,0.0,0.0,0.0,-3.5144,-3.5276,-3.5577,-3.56,-3.5694,0.0,0.0,0.0,0.0,0.0,0.0,0.0,0.0,0.0,-3.8251,-3.8546,-3.8747,-3.8869,-3.8762,-3.8762,-3.8869,-3.8747,-3.8707,-3.8689,-3.823,-3.8028,-3.7991,-3.7551,-3.7415,-3.7577,-3.8345,-3.855,-3.8427,0.0,0.0,0.0,0.0,-3.7353,-3.6635,0.0,0.0,0.0,0.0,0.0,0.0,0.0,0.0,0.0,0.0,0.0,0.0,0.0,0.0,0.0,-1.9662,0.0,0.0,0.0,0.0,0.0,0.0,0.0,0.0,0.0,0.0,0.0,-2.722,-2.7597,-2.8404,-2.9565,-3.0195,-3.1057,-3.2126,-3.2871,-3.3864,-3.5025,-3.5361,-3.5509,0.0,0.0,0.0,0.0,0.0,0.0,0.0,0.0,0.0,0.0,0.0,0.0,0.0,0.0,0.0,0.0,0.0,0.0,0.0,0.0,0.0,0.0,0.0,0.0,0.0,0.0,0.0,0.0,0.0,0.0,0.0,0.0,0.0,0.0,0.0,0.0,0.0,0.0,-3.5447,-3.5407,-3.5577,-3.56,-3.56,0.0,0.0,0.0,0.0,0.0,0.0,-3.7209,-3.7524,-3.7772,-3.7911,-3.8283,-3.8562,-3.8707,-3.8505,-3.8395,-3.8395,-3.8175,-3.8083,-3.8065,-3.7474,-3.7199,-3.7162,-3.656,-3.6174,-3.6056,-3.7143,-3.7361,-3.7043,-3.7443,-3.7592,-3.749,-3.6838,-3.6473,-3.6216,0.0,0.0,0.0,0.0,0.0,0.0,0.0,0.0,0.0,0.0,0.0,0.0,0.0,0.0,-1.6791,-1.7758,-1.7792,-1.8211,0.0,0.0,0.0,0.0,0.0,0.0,0.0,0.0,0.0,-2.4309,-2.5707,-2.6777,-2.757,-2.8542,-2.9693,-3.1017,-3.1758,-3.3058,-3.4744,-3.5086,-3.5329,-3.5508,0.0,0.0,0.0,0.0,0.0,0.0,0.0,0.0,0.0,0.0,0.0,0.0,0.0,0.0,0.0,0.0,0.0,0.0,0.0,0.0,0.0,0.0,0.0,0.0,0.0,0.0,0.0,0.0,0.0,0.0,0.0,0.0,0.0,0.0,0.0,0.0,0.0,0.0,0.0,-3.5515,-3.56,0.0,0.0,0.0,0.0,-3.6395,-3.6902,-3.7209,-3.7209,-3.721,-3.7433,-3.7894,-3.7929,-3.8183,-3.8692,-3.7951,-3.7566,-3.7547,-3.678,-3.6413,-3.6413,-3.6376,-3.6358,-3.6358,-3.6321,-3.5844,-3.5142,-3.6289,-3.6739,-3.6789,-3.7375,-3.7095,-3.637,-3.6332,-3.5827,-3.5179,0.0,0.0,0.0,0.0,0.0,0.0,0.0,0.0,0.0,0.0,0.0,0.0,0.0,-1.451,-1.4387,-1.5957,-1.5494,-1.5538,-1.6555,0.0,0.0,0.0,0.0,0.0,0.0,0.0,-2.1485,-2.2552,-2.3648,-2.4748,-2.5887,-2.6794,-2.8093,-2.9634,-3.0291,-3.1463,-3.304,-3.4198,-3.4937,-3.5323,-3.5468,-3.556,0.0,0.0,0.0,0.0,0.0,0.0,0.0,0.0,0.0,0.0,0.0,0.0,0.0,0.0,0.0,0.0,0.0,0.0,0.0,0.0,0.0,0.0,0.0,0.0,0.0,0.0,0.0,0.0,0.0,0.0,0.0,0.0,0.0,0.0,0.0,0.0,0.0,-3.5515,-3.56,0.0,-3.56,-3.5783,-3.5876,-3.5876,-3.6075,-3.5962,-3.5501,-3.5792,-3.5842,-3.5538,-3.5812,-3.621,-3.6705,-3.6414,-3.6428,-3.6721,-3.6431,-3.6303,-3.6266,-3.5734,-3.5463,-3.5426,-3.4926,-3.4504,-3.4247,-3.4671,-3.4927,-3.5099,-3.5323,-3.5346,-3.5277,-3.5277,-3.5088,-3.4832,0.0,0.0,0.0,0.0,0.0,0.0,0.0,0.0,0.0,0.0,0.0,-1.3339,-1.3672,-1.2558,-1.2198,-1.3114,-1.291,-1.3135,-1.4132,0.0,0.0,0.0,0.0,0.0,0.0,-1.8261,-1.8804,-1.992,-2.1105,-2.2303,-2.342,-2.4345,-2.5749,-2.7607,-2.8262,-2.9464,-3.1058,-3.2694,-3.398,-3.4954,-3.5262,-3.5478,-3.56,0.0,0.0,0.0,0.0,0.0,0.0,0.0,0.0,0.0,0.0,0.0,0.0,0.0,0.0,0.0,0.0,0.0,0.0,0.0,0.0,0.0,0.0,0.0,0.0,0.0,0.0,0.0,0.0,0.0,0.0,0.0,0.0,0.0,0.0,-3.4544,-3.4423,-3.4871,-3.4898,-3.4901,-3.4901,-3.4863,-3.4856,-3.4856,-3.4856,-3.4636,-3.415,-3.448,-3.4525,-3.422,-3.451,-3.4889,-3.5349,-3.5245,-3.5279,-3.542,-3.5319,-3.525,-3.5217,-3.4487,-3.4248,-3.4363,-3.383,-3.3522,-3.3372,-3.3694,-3.3818,-3.3893,-3.4116,-3.4345,-3.4529,-3.4529,-3.4529,-3.4529,0.0,0.0,0.0,0.0,0.0,0.0,0.0,0.0,0.0,0.0,-1.2806,-1.1885,-1.0864,-1.0746,-1.0378,-0.9372,-1.019,-1.1143,-1.2041,-1.3026,0.0,0.0,0.0,0.0,-1.619,-1.6225,-1.6225,-1.6259,-1.8151,-1.9426,-2.016,-2.1132,-2.2739,-2.4833,-2.5616,-2.6956,-2.8812,-3.0509,-3.2392,-3.4267,-3.4917,-3.5345,-3.5573,0.0,0.0,0.0,0.0,0.0,0.0,0.0,0.0,0.0,0.0,0.0,0.0,0.0,0.0,0.0,0.0,0.0,0.0,0.0,0.0,0.0,0.0,0.0,0.0,0.0,0.0,0.0,0.0,0.0,0.0,0.0,0.0,0.0,-3.3505,-3.3566,-3.3566,-3.355,-3.3486,-3.3442,-3.3442,-3.3389,-3.3364,-3.3364,-3.3385,-3.3389,-3.3372,-3.3372,-3.3588,-3.4094,-3.4114,-3.4328,-3.48,-3.4474,-3.41,-3.3666,-3.3342,-3.3184,-3.3169,-3.2697,-3.2745,-3.3184,-3.3184,-3.2921,-3.2567,-3.3419,-3.3536,-3.324,-3.3931,-3.4195,-3.4195,-3.4195,-3.4195,-3.4188,0.0,0.0,0.0,0.0,0.0,0.0,0.0,0.0,0.0,0.0,-1.1385,-1.0826,-0.982,-0.9707,-0.9593,-0.9334,-0.9561,-0.982,-1.0067,0.0,0.0,0.0,0.0,0.0,-1.226,-1.226,-1.2609,-1.3265,-1.5168,-1.6194,-1.6421,-1.8032,-1.9394,-2.0561,-2.1947,-2.3121,-2.4284,-2.6795,-2.8629,-3.0122,-3.3333,-3.4773,-3.5031,0.0,0.0,0.0,0.0,0.0,0.0,0.0,0.0,0.0,0.0,0.0,0.0,0.0,0.0,0.0,0.0,0.0,0.0,0.0,0.0,0.0,0.0,0.0,0.0,0.0,0.0,0.0,0.0,0.0,0.0,0.0,-3.1192,-3.1673,-3.3364,-3.2756,-3.2326,-3.2805,-3.2426,-3.211,-3.211,-3.2498,-3.2757,-3.2757,-3.3139,-3.3169,-3.2632,-3.2615,-3.2422,-3.2037,-3.202,-3.2219,-3.2649,-3.2564,-3.2615,-3.2836,-3.2739,-3.2697,-3.2681,-3.2567,-3.2567,-3.2697,-3.2697,-3.2616,-3.2517,-3.2761,-3.2793,-3.2777,-3.3597,-3.3915,-3.3915,-3.3915,-3.3915,-3.3935,0.0,0.0,0.0,0.0,0.0,0.0,0.0,0.0,0.0,0.0,-1.0783,-1.026,-0.8841,-0.8656,-0.8504,-0.8089,-0.8428,-0.8656,-0.8656,0.0,0.0,0.0,0.0,-0.8811,-0.8811,-0.8811,-0.9292,-1.0253,-1.1725,-1.2699,-1.3179,-1.4679,-1.5798,-1.6596,-1.7835,-1.8838,-1.973,-2.1919,-2.333,-2.4322,-2.7145,-3.0387,-3.3519,-3.3663,-3.3615,-3.3489,-3.3504,-3.3478,-3.3643,-3.4976,0.0,0.0,0.0,0.0,0.0,0.0,0.0,0.0,0.0,0.0,0.0,0.0,0.0,0.0,0.0,0.0,0.0,0.0,0.0,0.0,0.0,0.0,0.0,0.0,-2.943,-3.0037,-3.1244,-3.1044,-3.0924,-3.1311,-3.0973,-3.0734,-3.0734,-3.0992,-3.1195,-3.1195,-3.1523,-3.1553,-3.1123,-3.1316,-3.1273,-3.0855,-3.1055,-3.131,-3.1564,-3.1715,-3.1843,-3.1967,-3.2127,-3.2213,-3.2196,-3.2039,-3.2056,0.0,-3.2213,-3.2109,-3.1986,-3.235,-3.2366,0.0,0.0,0.0,0.0,0.0,-3.355,-3.3606,0.0,0.0,0.0,0.0,0.0,0.0,0.0,0.0,0.0,0.0,0.0,-0.9696,-0.7659,-0.7433,-0.7053,-0.6022,-0.6742,-0.7276,0.0,0.0,0.0,-0.5895,-0.5854,-0.5854,-0.5854,-0.5854,-0.6284,-0.7179,-0.8112,-0.9085,-1.0032,-1.0863,-1.167,-1.2444,-1.3095,-1.3816,-1.4606,-1.5998,-1.689,-1.744,-1.8295,-2.3356,-3.0429,-3.0733,-3.077,-3.0675,-3.084,-3.0894,-3.0989,-3.1738,0.0,0.0,0.0,0.0,0.0,0.0,0.0,0.0,0.0,0.0,0.0,0.0,0.0,0.0,0.0,0.0,0.0,0.0,0.0,0.0,0.0,0.0,0.0,0.0,-2.7768,-2.8153,-2.8081,-2.8682,-2.9208,-2.946,-2.9352,-2.9302,-2.9302,-2.9289,-2.9293,-2.9293,-2.9361,-2.9406,-2.9406,0.0,0.0,0.0,0.0,-3.0995,-3.0995,-3.1359,-3.1378,-3.1095,-3.1454,-3.1679,-3.1733,-3.137,-3.1391,-3.1734,-3.1734,-3.1545,-3.1269,-3.2039,-3.2109,-3.1789,-3.2299,-3.2501,-3.255,-3.3029,-3.3199,-3.3258,0.0,0.0,0.0,0.0,0.0,0.0,0.0,0.0,0.0,-0.9744,-0.8874,-0.7574,-0.5535,-0.5306,-0.4877,-0.3826,-0.39,-0.4014,0.0,0.0,-0.3891,-0.3697,-0.3697,-0.3697,-0.3697,-0.3697,-0.3814,-0.401,-0.4988,-0.5593,-0.5784,-0.596,-0.6153,-0.6319,-0.6404,-0.6532,-0.68,-0.8514,-0.9655,-1.0362,-1.1208,-1.5859,-2.2461,-2.4309,-2.4408,-2.3783,-2.5327,-2.5893,-2.6,-2.6803,-2.8034,-2.9387,-3.022,-3.0516,0.0,0.0,0.0,0.0,0.0,0.0,0.0,0.0,0.0,0.0,0.0,0.0,0.0,0.0,0.0,0.0,0.0,0.0,0.0,-2.6702,-2.6691,-2.6609,-2.6064,-2.6106,-2.6853,-2.858,-2.8302,-2.7981,-2.7981,-2.8396,-2.8662,-2.8662,-2.9111,-2.9406,-2.9406,-2.9518,-2.9563,-2.9563,-2.9695,-2.9739,-2.9739,-2.9832,-3.0069,-3.0477,0.0,0.0,-3.131,-3.1249,-3.1232,-3.1329,-3.1329,-3.1271,-3.121,-3.137,-3.1389,-3.1389,-3.2179,-3.2501,-3.255,-3.3029,-3.3199,-3.3214,0.0,0.0,0.0,0.0,0.0,0.0,0.0,0.0,0.0,0.0,-0.7651,-0.6416,-0.488,-0.4217,-0.3671,-0.3163,-0.265,0.0,0.0,-0.1051,-0.0506,0.0,0.0,0.0,0.0,0.0,-0.0234,-0.0739,-0.1241,-0.1779,-0.2281,-0.231,-0.2304,-0.2264,-0.1744,-0.1509,-0.1507,-0.1921,-0.2031,-0.1924,-0.2366,-0.4619,-0.8467,-1.5243,-1.7409,-1.7148,-1.9222,-1.996,-2.0076,-2.0998,-2.2214,-2.3484,-2.3863,-2.4571,-2.548,0.0,0.0,0.0,0.0,0.0,0.0,0.0,0.0,0.0,0.0,0.0,0.0,0.0,0.0,-2.7442,-2.6424,0.0,-2.5932,-2.4898,-2.5081,-2.5246,-2.4892,-2.5175,-2.5799,-2.6861,-2.671,-2.6508,-2.6508,-2.7108,-2.7515,-2.7515,-2.8119,-2.8496,-2.8496,-2.8803,-2.8966,-2.8966,-2.9248,-2.9406,-2.9406,-2.9406,-2.9563,-2.9848,-2.9848,-3.0016,-3.0293,-3.0293,-3.0293,-3.0293,-3.0293,-3.0293,-3.0293,-3.0293,-3.0293,-3.0356,-3.0787,-3.1329,-3.1896,-3.2332,-3.25,-3.2533,0.0,0.0,0.0,0.0,0.0,0.0,0.0,0.0,0.0,0.0,0.0,-0.5212,-0.4217,-0.332,-0.2734,0.0,0.0,0.0,0.0,0.1284,0.2257,0.3085,0.3085,0.3085,0.3085,0.3085,0.2806,0.2174,0.2174,0.186,0.1197,0.1389,0.1505,0.1544,0.2571,0.3026,0.3062,0.4067,0.498,0.5727,0.5902,0.5969,0.4947,-0.4492,-0.8661,-0.985,-1.2145,-1.2983,-1.3179,-1.4379,-1.5709,-1.686,-1.7058,-1.8334,-2.0009,-2.1416,-2.1983,0.0,0.0,0.0,0.0,0.0,0.0,0.0,0.0,-2.6454,-2.6881,-2.6277,-2.6277,-2.5965,-2.4555,-2.4567,-2.4318,-2.2842,-2.331,-2.3771,-2.361,-2.4239,-2.4726,-2.4726,-2.5106,-2.5398,-2.5398,-2.5933,-2.6283,-2.6283,-2.6837,-2.7163,-2.7163,-2.7625,-2.7972,-2.811,-2.8583,-2.8911,-2.9042,-2.9042,-2.9111,-2.9225,-2.9225,-2.9293,-2.9406,-2.9406,-2.9406,-2.9406,-2.9406,-2.9406,-2.9406,-2.9406,-2.9406,-2.9406,-2.9406,-2.9978,-3.0902,-3.1439,-3.1626,-3.17,0.0,0.0,0.0,0.0,0.0,0.0,0.0,0.0,0.0,0.0,0.0,0.0,0.0,0.0,0.0,0.0,0.0,0.0,0.1409,0.2383,0.2966,0.3085,0.3085,0.3085,0.3085,0.3085,0.3465,0.426,0.426,0.4676,0.5539,0.6429,0.6821,0.6897,0.7951,0.842,0.8495,0.9425,0.9888,1.01,1.09,1.1253,1.0931,0.7892,0.3903,-0.0403,-0.3276,-0.4287,-0.4589,-0.6543,-0.9,-1.1379,-1.234,-1.3979,-1.5861,-1.7269,-1.7808,-1.8498,-2.0984,-2.2186,-2.2592,-2.1857,-2.2188,-2.2718,0.0,-2.2786,-2.2715,-2.2172,-2.2698,-2.2779,-2.1377,-2.234,-2.2812,-2.1144,-2.1604,-2.1896,-2.1121,-2.1748,-2.2286,-2.2286,-2.414,-2.5398,-2.5398,-2.5481,-2.5508,-2.5508,-2.5591,-2.5646,-2.5646,-2.5714,-2.604,-2.6707,-2.6785,-2.7133,-2.7795,-2.7795,-2.8067,-2.8606,-2.8606,-2.8873,-2.9406,-2.9406,-2.9406,-2.9406,-2.9406,-2.9406,-2.9406,-2.9406,-2.9406,-2.9406,-2.9406,-2.9473,-2.9723,-3.0657,-3.0995,-3.1072,0.0,0.0,0.0,0.0,0.0,0.0,0.0,0.0,0.0,0.0,0.0,0.0,0.0,0.0,0.0,0.0,0.0,0.0,0.3402,0.4949,0.5835,0.5835,0.6405,0.6709,0.6709,0.6709,0.6896,0.7347,0.7347,0.7575,0.8031,0.8995,0.944,0.9515,1.1083,1.1795,1.1868,1.2897,1.362,1.4178,1.4561,1.473,1.4588,1.3194,1.0961,0.7896,0.2512,0.0603,0.0,0.0,-0.4124,-0.6192,-0.663,-0.8185,-1.0228,-1.2238,-1.2686,-1.3142,-1.5956,-1.7648,-1.8495,-1.8153,-1.8724,-1.9454,-1.9948,-2.049,-2.0905,-2.0917,-2.1229,-2.1289,-2.07,-2.1164,-2.1416,-2.0719,-2.091,-2.1005,-2.0655,-2.091,-2.1132,-2.1132,-2.2022,-2.2982,-2.3975,-2.4509,-2.4766,-2.4766,-2.5147,-2.5398,-2.5398,-2.5398,-2.5536,-2.5837,-2.5864,-2.6,-2.6322,-2.6322,-2.6441,-2.6701,-2.6701,-2.6842,-2.7081,-2.7081,-2.7081,-2.7081,-2.7081,-2.7081,-2.7081,-2.7081,-2.7324,-2.767,-2.7248,-2.7324,-2.7902,-2.945,-3.003,-3.0051,0.0,0.0,0.0,0.0,0.0,0.0,0.0,0.0,0.0,0.0,0.0,0.0,0.0,0.0,0.0,0.0,0.0,0.0,0.0,0.6811,0.7936,0.8199,0.8917,0.9296,0.9296,0.9296,0.9556,1.011,1.011,1.0361,1.0952,1.1624,1.1935,1.2008,1.3425,1.4042,1.4114,1.5396,1.6323,1.6989,1.7239,1.7351,1.7214,1.6035,1.5119,1.367,0.7472,0.522,0.0,0.0,0.0501,-0.1114,-0.1966,-0.3657,-0.574,-0.7761,-0.8389,-0.8967,-1.1434,-1.3063,-1.423,-1.4803,-1.5615,-1.6519,-1.7387,-1.8137,-1.8751,-1.9056,-1.9498,-1.9771,-1.9542,-2.0085,-2.043,-1.9944,-2.0074,-2.0171,-1.9911,-2.0074,-2.0236,-2.0236,-2.0462,-2.1069,-2.2279,-2.2955,-2.3374,-2.3623,-2.3894,-2.4171,-2.4427,-2.42,-2.4286,-2.4727,-2.4741,-2.4952,-2.5398,-2.5398,-2.5398,-2.5398,-2.5398,-2.5273,-2.5037,-2.5037,-2.5176,-2.5398,-2.5398,-2.5398,-2.5398,-2.5398,-2.5563,-2.5822,-2.5522,-2.5577,-2.6037,-2.7684,-2.8521,-2.888,0.0,0.0,0.0,0.0,0.0,0.0,0.0,0.0,0.0,0.0,0.0,0.0,0.0,0.0,0.0,0.0,0.0,0.0,0.0,0.7188,0.8237,0.9221,0.9296,0.9296,0.9296,0.9296,1.0217,1.2115,1.2115,1.3107,1.5013,1.5048,1.5048,1.5084,1.5119,1.5155,1.5261,1.7045,1.7818,1.7929,1.8836,1.9233,1.9023,1.7248,1.6532,1.5983,1.2004,0.0,0.0,0.7038,0.5292,0.3851,0.0853,-0.1509,-0.339,-0.445,-0.5685,-0.692,-0.8047,-0.9077,-1.0253,-1.2297,-1.3277,-1.3978,-1.5048,-1.5313,-1.5349,-1.5367,-1.6745,-1.7736,-1.6895,-1.8849,-2.0042,-1.8337,-1.8787,-1.9044,-1.8202,-1.8821,-1.9332,-1.9332,-2.0074,-2.0623,-2.0655,-2.0687,-2.1069,-2.1908,-2.1195,-2.1121,-2.197,-2.1195,-2.1463,-2.3017,-2.3089,-2.381,-2.537,-2.5398,-2.5398,-2.5398,-2.5398,-2.4953,-2.4136,-2.4136,-2.4617,-2.5398,-2.5398,-2.5398,-2.5398,-2.5398,-2.4911,-2.4251,-2.5078,-2.4911,-2.4279,-2.5176,-2.633,-2.7545,0.0,0.0,0.0,0.0,0.0,0.0,0.0,0.0,0.0,0.0,0.0,0.0,0.0,0.0,0.0,0.0,0.5157,0.0,0.0,0.8228,0.9258,1.0265,1.152,1.2221,1.2221,1.2866,1.3548,1.4204,1.4204,1.4534,1.5199,1.5825,1.6149,1.6175,1.7375,1.792,1.7988,1.9203,1.9695,1.9727,2.0031,1.9814,1.9166,1.7924,1.6729,1.5403,0.0,0.0,1.1384,0.9034,0.7122,0.5493,0.4455,0.2673,0.0659,-0.1047,-0.2835,-0.4518,-0.5547,-0.7053,-0.8508,-0.9213,-1.0078,-1.1002,-1.1978,-1.2722,-1.3389,-1.4022,-1.5203,-1.6009,-1.572,-1.6392,-1.6842,-1.6254,-1.6384,-1.648,-1.6184,-1.6384,-1.6575,-1.6575,-1.74,-1.7697,-1.7064,-1.9192,-2.0719,-2.1005,-2.0751,-2.0719,-2.1005,-2.0751,-2.0867,-2.1401,-2.1412,-2.1682,-2.2213,-2.2213,-2.2213,-2.2213,-2.2213,-2.206,-2.177,-2.177,-2.1925,-2.2213,-2.2213,-2.2213,-2.2213,-2.2213,-2.2329,-2.2492,-2.228,-2.214,-2.2097,-2.2372,-2.2609,-2.3057,0.0,0.0,0.0,0.0,0.0,0.0,0.0,0.0,0.0,0.0,0.0,0.0,0.0,0.0,0.0,0.0,0.0,0.7778,0.0,0.0,1.0415,1.1786,1.304,1.3882,1.4243,1.4879,1.5376,1.5685,1.5685,1.6035,1.6678,1.7273,1.7716,1.8069,1.9245,1.9748,1.9814,2.0687,2.1069,2.1049,2.0719,2.0268,1.9617,1.8382,1.7204,0.0,0.0,0.0,1.2925,1.0622,0.8964,0.7651,0.6548,0.4781,0.2849,0.148,0.0155,-0.1197,-0.2594,-0.3943,-0.5207,-0.6329,-0.711,-0.7956,-0.9333,-1.0118,-1.0867,-1.1862,-1.3165,-1.4132,-1.4132,-1.472,-1.5199,-1.5199,-1.5199,-1.5199,-1.5199,-1.5199,-1.5199,-1.5199,-1.572,-1.586,-1.5269,-1.7303,-1.8928,-1.9597,-1.9661,-1.9824,-2.0107,-1.9857,-1.9814,-2.0139,-2.0139,-2.0301,-2.059,-2.059,-2.059,-2.059,-2.0268,-2.0117,-2.0117,-2.0117,-2.0117,-2.0106,-2.0106,-2.0106,-2.0073,-1.9717,-1.9598,-1.9658,-1.9468,-1.9292,-1.9119,-1.9422,-1.9067,-1.8872,0.0,0.0,0.0,0.0,0.0,0.0,0.0,0.0,0.0,0.0,0.0,0.0,0.0,0.0,0.0,0.0,0.0,0.0,0.0,0.0,0.0,1.3637,1.381,1.4314,1.5269,1.5305,1.5763,1.6671,1.6706,1.7624,1.9299,1.9332,1.9824,2.059,2.0655,2.0655,2.0719,2.1585,2.197,2.1877,2.1005,2.0655,2.0398,1.8721,0.0,0.0,0.0,0.0,1.4621,1.1883,1.0895,1.0286,0.7236,0.4936,0.3317,0.3202,0.3202,0.2731,0.0701,0.0117,-0.0622,-0.3602,-0.4414,-0.4991,-0.6988,-0.7563,-0.7913,-0.8945,-1.0691,-1.2041,-1.2041,-1.3657,-1.4977,-1.4977,-1.5021,-1.5057,-1.5057,-1.5057,-1.5057,-1.5057,-1.5092,-1.5092,-1.5057,-1.5128,-1.5869,-1.7547,0.0,-1.8226,-1.9067,-1.8327,-1.8259,-1.9056,-1.909,-1.9486,-2.0322,-2.0322,-2.0354,-2.0386,-1.9519,-1.9071,-1.901,-1.9048,-1.9071,-1.901,-1.901,-1.8989,-1.8903,-1.7949,-1.6907,-1.6002,-1.6831,-1.6462,-1.5601,-1.6443,-1.5894,-1.5303,0.0,0.0,0.0,0.0,0.0,0.0,0.0,0.0,0.0,0.0,0.0,0.0,0.0,0.0,0.0,0.0,0.0,0.0,0.0,0.0,0.0,0.0,0.0,0.0,0.0,0.0,0.0,0.0,1.8287,1.8857,1.9299,1.9944,2.0398,2.0623,2.127,2.1553,2.1616,2.2445,2.2793,2.272,0.0,2.1175,2.0494,0.0,0.0,0.0,0.0,1.4478,1.3018,1.2974,1.2007,1.0409,0.8105,0.7038,0.6304,0.4758,0.4295,0.4021,0.2652,0.1752,0.0816,-0.0777,-0.1786,-0.2716,-0.3964,-0.547,-0.6663,-0.6938,-0.8618,-1.0034,-1.0034,-1.1069,-1.192,-1.192,-1.2558,-1.3055,-1.3055,-1.3055,-1.3055,-1.3055,-1.3665,-1.381,-1.3127,-1.4343,-1.5084,-1.4775,-1.5473,-1.6009,-1.6236,-1.6035,-1.6009,-1.6236,-1.6236,-1.6366,-1.6557,-1.6591,-1.6936,-1.7605,-1.6678,-1.6253,-1.6227,-1.6227,-1.6253,-1.6227,-1.6227,-1.6067,-1.5826,-1.5589,-1.5169,-1.4751,-1.4963,-1.4672,-1.4153,-1.4357,-1.4029,-1.3544,0.0,0.0,0.0,0.0,0.0,0.0,0.0,0.0,0.0,0.0,0.0,0.0,0.0,0.0,0.0,0.0,0.0,0.0,0.0,0.0,0.0,0.0,0.0,0.0,0.0,0.0,0.0,0.0,0.0,0.0,1.9299,1.9814,2.043,2.1207,2.169,2.2094,2.2445,2.2537,0.0,0.0,0.0,0.0,0.0,0.0,0.0,0.0,1.5825,1.455,1.2879,1.2528,1.1712,1.0522,0.895,0.8161,0.7476,0.5857,0.5395,0.5157,0.41,0.3391,0.2686,0.1636,0.0584,-0.0468,-0.1519,-0.2997,-0.4436,-0.5369,-0.6827,-0.81,-0.8537,-0.948,-1.0153,-1.0153,-1.0608,-1.0987,-1.0987,-1.0987,-1.0987,-1.0987,-1.1459,-1.1564,-1.1019,-1.1951,-1.2567,-1.2448,-1.4148,-1.5199,-1.5199,-1.5199,-1.5199,-1.5199,-1.5199,-1.5199,-1.5199,-1.5199,-1.5446,-1.5965,-1.5438,-1.4985,-1.4557,-1.4985,-1.472,-1.3865,0.0,-1.3427,-1.2808,-1.2331,-1.1969,-1.1722,-1.1722,-1.1474,-1.1138,-1.1138,-1.1002,-1.0732,0.0,0.0,0.0,0.0,0.0,0.0,0.0,0.0,0.0,0.0,0.0,0.0,0.0,0.0,0.0,0.0,0.0,0.0,0.0,0.0,0.0,0.0,0.0,0.0,0.0,0.0,0.0,0.0,0.0,0.0,0.0,0.0,0.0,0.0,0.0,0.0,0.0,0.0,0.0,0.0,0.0,0.0,0.0,0.0,0.0,0.0,1.6131,1.4942,1.323,1.1415,1.0783,1.0596,0.9448,0.8504,0.7591,0.6606,0.63,0.6103,0.5157,0.4921,0.4647,0.3591,0.2657,0.1682,0.0468,-0.0625,-0.1995,-0.4062,-0.5295,-0.6332,-0.7395,-0.8428,-0.9107,-0.9107,-0.9221,-0.9296,-0.9296,-0.9296,-0.9296,-0.9296,-0.9296,-0.9296,-0.9296,-0.9296,-0.9669,-1.0527,-1.2968,-1.4462,-1.4613,-1.4506,-1.4462,-1.4613,-1.4764,-1.4799,-1.4791,-1.4684,-1.4613,-1.4605,-1.4498,-1.3968,-1.315,-1.3994,-1.3446,-1.1786,-1.1644,0.0,-1.0149,-0.916,-0.8579,-0.8345,-0.8206,-0.8019,-0.779,-0.7687,-0.7655,-0.7618,0.0,0.0,0.0,0.0,0.0,0.0,0.0,0.0,0.0,0.0,0.0,0.0,0.0,0.0,0.0,0.0,0.0,0.0,0.0,0.0,0.0,0.0,0.0,0.0,0.0,1.674,1.7207,1.8008,1.8721,0.0,0.0,0.0,0.0,0.0,0.0,0.0,0.0,0.0,0.0,0.0,0.0,0.0,0.0,0.0,0.0,0.0,1.3622,1.2842,1.2365,1.1199,1.0783,1.0484,0.8651,0.7936,0.7591,0.6606,0.63,0.6261,0.6064,0.6025,0.5747,0.4686,0.4295,0.3673,0.176,0.0508,-0.0857,-0.2966,-0.4213,-0.5306,-0.637,-0.7365,-0.8046,-0.8046,-0.8765,-0.9296,-0.9296,-0.9296,-0.9296,-0.9296,-0.9296,-0.9296,-0.9296,-0.9296,-0.9372,-0.9561,-1.0034,-1.0703,-1.1514,-1.0771,-1.0697,-1.1551,-1.2388,-1.2785,-1.27,-1.1951,-1.1532,-1.1458,-1.0679,-1.0222,-1.0072,-1.0115,-0.9983,-0.9614,-0.9436,0.0,-0.8767,-0.856,-0.8315,-0.798,-0.7228,-0.687,-0.6742,-0.6038,-0.5774,-0.5676,0.0,0.0,0.0,0.0,0.0,0.0,0.0,0.0,0.0,0.0,0.0,0.0,0.0,0.0,0.0,0.0,0.0,0.0,0.0,0.0,0.0,0.0,0.0,0.0,0.0,1.5614,1.6079,1.655,0.0,1.7161,1.7195,1.8103,1.8762,1.9215,2.0149,2.0814,0.0,0.0,0.0,0.0,0.0,0.0,0.0,0.0,0.0,0.0,0.0,1.1502,1.1279,0.9739,0.9248,0.9059,0.8122,0.7783,0.7591,0.6606,0.63,0.63,0.63,0.63,0.618,0.567,0.5118,0.4295,0.2737,0.1563,0.0078,-0.2575,-0.3513,-0.4373,-0.5983,-0.6679,-0.7053,-0.7094,-0.7532,-0.7878,-0.7934,-0.7951,-0.7913,-0.7852,-0.784,-0.7806,-0.7753,-0.7744,-0.7974,-0.8466,-0.805,-0.8423,-0.9927,-0.9556,-0.9523,-1.0008,-1.0496,-1.0714,-1.0691,-1.026,-0.9997,-0.9975,-0.9513,-0.9273,-0.9194,-0.9118,-0.8747,-0.8162,-0.799,0.0,-0.6196,-0.6142,-0.5756,-0.5183,-0.4749,-0.4584,-0.4515,-0.4117,-0.3949,-0.3886,0.0,0.0,0.0,0.0,0.0,0.0,0.0,0.0,0.0,0.0,0.0,0.0,0.0,0.0,0.0,0.0,0.0,0.0,0.0,0.0,0.0,0.0,0.0,0.0,0.0,0.0,0.0,1.4546,1.4732,0.0,0.0,0.0,0.0,0.0,1.8271,1.9048,1.9651,1.8982,0.0,0.0,0.0,1.6966,0.0,0.0,0.0,0.0,0.0,1.049,1.019,0.8423,0.7783,0.7744,0.7557,0.748,0.7326,0.6528,0.63,0.63,0.63,0.63,0.63,0.63,0.567,0.4688,0.3396,0.2501,0.1017,-0.2148,-0.2968,-0.3671,-0.5589,-0.6165,-0.6381,-0.6494,-0.6542,-0.6563,-0.6681,-0.6702,-0.6658,-0.6536,-0.6532,-0.6467,-0.6358,-0.6317,-0.6641,-0.7403,-0.6756,-0.6984,-0.858,-0.8846,-0.8998,-0.8998,-0.9183,-0.9183,-0.8998,-0.8998,-0.8879,-0.8656,-0.8656,-0.8463,-0.8144,-0.8134,-0.7461,-0.6358,-0.623,0.0,0.0,-0.3782,-0.3311,-0.2678,-0.2477,-0.241,-0.2376,-0.2177,-0.2111,-0.211,0.0,0.0,0.0,0.0,0.0,0.0,0.0,0.0,0.0,0.0,0.0,0.0,0.0,0.0,0.0,0.0,0.0,0.0,0.0,0.0,0.0,0.0,0.0,0.0,0.0,0.0,0.0,1.2385,1.3287,0.0,0.0,0.0,0.0,0.0,0.0,1.6716,1.6784,1.6691,0.0,0.0,0.0,0.0,0.0,0.0,0.0,0.0,0.0,0.9448,0.9258,0.8161,0.7783,0.7629,0.6718,0.6451,0.6416,0.6338,0.63,0.63,0.63,0.63,0.63,0.63,0.6219,0.5628,0.3552,0.3046,0.2069,-0.1096,-0.2462,-0.3474,-0.4647,-0.5726,-0.6497,-0.6511,-0.6586,-0.6685,-0.6698,-0.6702,-0.6695,-0.6681,-0.6556,-0.6508,-0.6494,-0.6375,-0.6338,-0.6416,-0.6338,-0.6377,-0.6567,-0.7442,-0.7936,-0.7936,-0.8808,-0.8846,-0.7936,-0.7936,-0.748,-0.6567,-0.6567,-0.6055,-0.511,-0.4991,-0.4334,-0.3283,-0.3159,0.0,0.0,-0.2813,-0.2778,-0.2611,-0.1775,-0.1441,-0.1341,-0.0538,-0.0236,-0.0135,0.0,0.0,0.0,0.0,0.0,0.0,0.0,0.0,0.0,0.0,0.0,0.0,0.0,0.0,0.0,0.0,0.0,0.0,0.0,0.0,0.0,0.0,0.0,0.0,0.0,0.0,0.9408,1.0396,1.0816,0.0,0.0,0.0,0.0,0.0,0.0,1.5056,1.5642,1.4985,0.0,0.0,0.0,0.0,0.0,0.0,0.0,0.0,0.0,0.0,0.7367,0.7015,0.6911,0.6834,0.6416,0.63,0.63,0.63,0.63,0.63,0.63,0.63,0.63,0.63,0.5825,0.496,0.3435,0.2618,0.1487,-0.1057,-0.2386,-0.3435,-0.4491,-0.5692,-0.6542,-0.6597,-0.6736,-0.6868,-0.691,-0.692,-0.6893,-0.6848,-0.6702,-0.6573,-0.6521,-0.6381,-0.63,-0.63,-0.5709,-0.5354,-0.5354,-0.6325,-0.6911,-0.6911,-0.7288,-0.7288,-0.6911,-0.624,-0.5735,-0.5312,-0.4701,-0.4117,-0.3607,-0.3549,-0.3246,-0.279,-0.2725,0.0,0.0,-0.1842,-0.1542,-0.1041,-0.0672,-0.0504,-0.0471,-0.0135,0.0,0.0135,0.0,0.0,0.0,0.0,0.0,0.0,0.0,0.0,0.0,0.0,0.0,0.0,0.0,0.0,0.0,0.0,0.0,0.0,0.0,0.0,0.0,0.0,0.0,0.0,0.0,0.0,0.6694,0.7477,0.7783,0.7893,0.0,0.0,0.9755,1.0467,0.0,0.0,0.0,0.0,0.0,0.0,0.0,0.0,0.0,0.0,0.0,0.0,0.0,0.0,0.0,0.0,0.0,0.5354,0.5354,0.5354,0.5473,0.6103,0.63,0.63,0.63,0.63,0.63,0.63,0.5512,0.4414,0.3357,0.2308,0.1097,-0.0745,-0.219,-0.3318,-0.41,-0.5484,-0.6576,0.0,-0.6865,-0.698,-0.7082,-0.7095,-0.7058,-0.696,-0.6858,-0.6581,-0.614,-0.5647,-0.5354,-0.5354,-0.4647,-0.4217,-0.4217,-0.496,-0.5354,-0.5354,-0.5354,-0.5354,-0.5354,-0.4608,-0.4242,-0.4214,-0.3461,-0.2893,-0.2511,-0.2499,-0.2305,-0.191,-0.191,0.0,0.0,-0.0906,-0.0403,0.037,0.037,0.0538,0.0807,0.0807,0.0807,0.0907,0.0,0.0,0.0,0.0,0.0,0.0,0.0,0.0,0.0,0.0,0.0,0.0,0.0,0.0,0.0,0.0,0.0,0.0,0.0,0.0,0.0,0.0,0.0,0.0,0.0,0.0,0.3161,0.3161,0.4153,0.4645,0.4686,0.5743,0.627,0.6308,0.0,0.0,0.0,0.0,0.0,0.0,0.0,0.0,0.0,0.0,0.0,0.0,0.0,0.0,0.0,0.0,0.0,0.0,0.0,0.3124,0.3552,0.567,0.63,0.63,0.63,0.63,0.63,0.63,0.5512,0.4414,0.3357,0.2308,0.1293,0.0196,-0.1643,-0.3085,-0.3124,-0.5071,-0.6698,-0.6702,-0.6903,-0.7095,-0.7095,-0.7095,-0.7095,-0.7095,-0.697,-0.6433,-0.5235,-0.3932,-0.3124,-0.3124,-0.3124,0.0,-0.3124,-0.3124,-0.3124,-0.3124,-0.3124,-0.3124,-0.3124,-0.3124,-0.3126,-0.3133,-0.3095,-0.2573,-0.1608,-0.1607,-0.1035,-0.0034,0.0,0.0,0.0,0.0,0.0504,0.1273,0.1273,0.1842,0.2678,0.2678,0.2678,0.2811,0.0,0.0,0.0,0.0,0.0,0.0,0.0,0.0,0.0,0.0,0.0,0.0,0.0,0.0,0.0,0.0,0.0,0.0,0.0,0.0,0.0,0.0,0.0,0.0,0.0,0.0,0.0,0.2062,0.2408,0.2913,0.3581,0.3926,0.4457,0.5098,0.4737,0.4953,0.0,0.0,0.0,0.0,0.0,0.0,0.0,0.0,0.0,0.0,0.0,0.0,0.0,0.0,0.0,0.0,0.0,0.0,0.0,0.3904,0.41,0.41,0.41,0.41,0.41,0.41,0.3322,0.2504,0.2152,0.1254,0.0196,-0.0863,-0.2151,-0.3336,-0.419,-0.5621,-0.6736,-0.6841,-0.6974,-0.7095,-0.7095,-0.7095,-0.6827,-0.6027,-0.5061,-0.4235,-0.3769,-0.2707,-0.2347,-0.3046,-0.2462,-0.2074,-0.2074,-0.2074,-0.2386,-0.3085,-0.3085,-0.3085,-0.3085,-0.2425,-0.2088,-0.2076,-0.1337,-0.0832,-0.0491,-0.0516,-0.0305,0.0,0.0,0.0,0.0,0.1575,0.2011,0.2243,0.2243,0.2444,0.2711,0.2711,0.2711,0.2811,0.0,0.0,0.0,0.0,0.0,0.0,0.0,0.0,0.0,0.0,0.0,0.0,0.0,0.0,0.0,0.0,0.0,0.0,0.0,0.0,0.0,0.0,0.0,0.0,0.0,0.0,-0.1517,-0.0156,-0.0156,0.0156,0.0779,0.0779,0.1088,0.1703,0.1429,0.1693,0.0,0.0,0.0,0.0,0.0,0.0,0.1284,0.0,0.0,0.0,0.0,0.0,0.0,0.0,0.0,0.0,0.0,0.0,0.0,0.0,0.1916,0.2111,0.289,0.3085,0.3085,0.3085,0.2347,0.1607,0.1607,0.047,-0.0784,-0.145,-0.2756,-0.4016,-0.4763,-0.5938,-0.6817,-0.6869,-0.7004,-0.7095,-0.7095,-0.6738,-0.6027,-0.4865,-0.3526,-0.2708,-0.2628,-0.1636,-0.1254,-0.1878,-0.1332,-0.098,-0.098,-0.098,-0.1293,-0.1917,-0.1916,-0.1916,-0.1916,-0.132,-0.0993,-0.1006,-0.0327,0.0177,0.0483,0.0475,0.0672,0.0,0.0,0.0,0.0,0.2444,0.2878,0.3178,0.3178,0.3413,0.3713,0.3713,0.3713,0.3846,0.0,0.0,0.0,0.0,0.0,0.0,0.0,0.0,0.0,0.0,0.0,0.0,0.0,0.0,0.0,0.0,0.0,0.0,0.0,0.0,0.0,0.0,0.0,0.0,0.0,-0.4005,-0.3509,-0.3431,-0.3431,-0.3392,-0.3315,-0.3315,-0.3315,-0.3274,-0.2409,-0.2057,0.0,0.0,0.0,0.0,0.0,0.0,0.0,0.0,0.0,0.0,0.0,0.0,0.0,0.0,0.0,0.0,0.0,0.0,0.0,0.0,0.0,0.0,0.0,0.2812,0.289,0.289,0.219,0.145,0.1371,-0.0157,0.0,-0.1805,-0.3472,-0.4945,-0.5041,-0.6065,-0.6889,-0.69,-0.7011,-0.7095,-0.7095,-0.6027,-0.4821,-0.3616,-0.241,-0.1677,-0.1677,-0.0645,0.0,0.0,0.0,0.0,0.0,0.0,0.0,0.0,0.0,0.0,0.0,0.0,0.0,0.0,0.0071,0.0518,0.1307,0.1374,0.1876,0.0,0.0,0.0,0.0,0.2878,0.338,0.4115,0.4115,0.4686,0.5491,0.5491,0.5524,0.5686,0.0,0.0,0.0,0.0,0.0,0.0,0.0,0.0,0.0,0.0,0.0,0.0,0.0,0.0,0.0,0.0,0.0,0.0,0.0,0.0,0.0,0.0,0.0,0.0,0.0,-0.7977,-0.7431,-0.6607,-0.6607,-0.6218,-0.5478,-0.5478,-0.5478,-0.5481,-0.6017,0.0,0.0,0.0,0.0,0.0,0.0,0.0,0.0,0.0,0.0,0.0,-0.4532,-0.4228,0.0,0.0,0.0,0.0,0.0,0.0,0.0,0.0,-0.2383,-0.211,-0.0821,0.0,0.0745,0.0745,0.0549,0.0157,0.0,-0.1254,-0.2087,-0.3762,-0.4558,-0.5197,-0.6228,-0.6665,-0.692,-0.7028,-0.7075,-0.7095,-0.7095,-0.5309,-0.3571,-0.237,-0.1165,-0.0421,-0.0421,-0.0161,0.0,0.0,0.0,0.0,0.0,0.0,0.0,0.0,0.0,0.0,0.0,0.0,0.0,0.0,0.0667,0.1102,0.134,0.2043,0.2476,0.0,0.0,0.0,0.3747,0.4486,0.4888,0.5057,0.5057,0.5613,0.6396,0.6396,0.6822,0.7409,0.0,0.0,0.0,0.0,0.0,0.0,0.0,0.0,0.0,0.0,0.0,0.0,0.0,0.0,0.0,0.0,0.0,0.0,0.0,0.0,0.0,0.0,0.0,0.0,0.0,-0.9523,-0.9021,-0.8424,-0.8424,-0.815,-0.7635,-0.7635,-0.7635,-0.7639,-0.8188,0.0,0.0,0.0,0.0,0.0,-0.8424,0.0,0.0,0.0,0.0,0.0,-0.643,-0.605,0.0,-0.4913,-0.4569,-0.4491,0.0,0.0,0.0,0.0,-0.3085,-0.2968,-0.2425,-0.1528,-0.0628,-0.0118,-0.0353,-0.0902,-0.145,-0.2348,-0.3385,-0.4633,-0.5349,-0.5985,-0.6757,-0.6501,-0.639,-0.6993,-0.6201,-0.5307,-0.473,-0.3571,-0.2316,-0.1106,-0.0387,0.0,0.0,0.0,0.0,0.0,0.0,0.0,0.0,0.0471,0.0745,0.0745,0.1125,0.1111,0.0605,0.0598,0.0801,0.126,0.1724,0.2141,0.2544,0.3078,0.3547,0.0,0.0,0.0,0.4686,0.5193,0.5395,0.5395,0.5395,0.5686,0.6108,0.6108,0.6658,0.747,0.0,0.0,0.0,0.0,0.0,0.0,0.0,0.0,0.0,0.0,0.0,0.0,0.0,0.0,0.0,0.0,0.0,0.0,0.0,0.0,0.0,0.0,0.0,0.0,-1.1013,-1.0196,-0.975,-0.975,-0.975,-0.975,-0.975,-0.975,-0.975,-0.975,-0.975,0.0,0.0,0.0,0.0,-0.9787,-0.9933,0.0,0.0,0.0,0.0,0.0,0.0,0.0,0.0,-0.6907,-0.6528,-0.6331,-0.5273,0.0,0.0,0.0,0.0,0.0,-0.3396,-0.262,-0.1567,-0.051,-0.0941,-0.1645,-0.1802,-0.3331,-0.4826,-0.5103,-0.6008,-0.6696,-0.6675,-0.5958,-0.5669,-0.6425,-0.4905,-0.317,-0.1969,-0.1786,-0.1373,-0.0131,0.0,0.0,0.0,0.0,0.0,0.0,0.0,0.0,0.0,0.102,0.1607,0.1607,0.2447,0.2523,0.1764,0.1573,0.1924,0.2702,0.2843,0.3278,0.4015,0.4148,0.4652,0.5395,0.0,0.0,0.5395,0.5395,0.5395,0.5395,0.5395,0.5557,0.5785,0.5785,0.6433,0.74,0.0,0.0,0.0,0.0,0.0,0.0,0.0,0.0,0.0,0.0,0.0,0.0,0.0,0.0,0.0,0.0,0.0,0.0,0.0,0.0,0.0,0.0,0.0,-1.2063,-1.207,-1.1922,-1.1848,-1.1848,-1.1848,-1.1848,-1.1848,-1.1848,-1.1848,-1.1848,-1.1848,-1.1848,-1.1885,-1.2675,-1.2572,-1.1922,-1.2718,0.0,0.0,0.0,0.0,0.0,0.0,0.0,0.0,-0.8194,-0.7553,-0.7403,-0.637,0.0,0.0,0.0,0.0,0.0,-0.4688,-0.3671,-0.2618,-0.1606,-0.1489,-0.1841,-0.2657,-0.3889,-0.5149,-0.622,-0.6661,-0.6635,-0.5799,-0.5526,-0.5134,-0.4283,-0.3837,-0.317,-0.1969,-0.1806,-0.135,-0.0131,0.0,0.0,0.0,0.0,0.0,0.0,0.0,0.0,0.0,0.102,0.1607,0.1607,0.2447,0.3172,0.3762,0.2917,0.2562,0.2695,0.3453,0.3882,0.4015,0.4821,0.5259,0.5395,0.0,0.5395,0.5395,0.5395,0.5395,0.5395,0.5395,0.6309,0.7605,0.7605,0.8608,1.0034,0.0,0.0,0.0,0.0,0.0,0.0,0.0,0.0,0.0,0.0,0.0,0.0,0.0,0.0,0.0,0.0,0.0,0.0,0.0,0.0,0.0,0.0,-1.4621,-1.3875,-1.3875,-1.3875,-1.3875,-1.3875,-1.3875,-1.3875,-1.3875,-1.3875,-1.3875,-1.3875,-1.3875,-1.3875,-1.3918,-1.4343,-1.4271,-1.3911,0.0,0.0,0.0,0.0,0.0,0.0,0.0,0.0,0.0,0.0,-0.7783,-0.7633,-0.6606,0.0,0.0,0.0,0.0,0.0,-0.5709,-0.4766,-0.3865,-0.34,-0.2426,-0.1723,-0.219,-0.3587,-0.4975,-0.5691,-0.6331,-0.6488,-0.5593,-0.4865,-0.384,-0.1969,-0.2191,-0.2227,-0.1015,-0.0831,-0.0603,-0.0084,0.0,0.0,0.0,0.0,0.0,0.0,0.0,0.0,0.0,0.1527,0.2425,0.2425,0.3766,0.4661,0.5078,0.4461,0.417,0.4151,0.4553,0.4755,0.4788,0.5193,0.5395,0.5395,0.0,0.5395,0.5395,0.5395,0.5395,0.5395,0.5395,0.6174,0.7405,0.8355,0.9198,0.9951,0.0,0.0,0.0,0.0,0.0,0.0,0.0,0.0,0.0,0.0,0.0,0.0,0.0,0.0,0.0,0.0,0.0,0.0,0.0,0.0,-1.6922,-1.6922,-1.6254,-1.5658,-1.5199,-1.5199,-1.5199,-1.5199,-1.5199,-1.5199,-1.5199,-1.5199,-1.5199,-1.5199,-1.5199,-1.5199,-1.5199,-1.5438,-1.5411,-1.5234,0.0,0.0,0.0,0.0,0.0,0.0,0.0,0.0,0.0,0.0,0.0,0.0,0.0,0.0,0.0,-0.63,-0.63,-0.63,-0.63,-0.5512,-0.4688,-0.4688,-0.3519,-0.227,-0.1996,-0.361,-0.5052,-0.4738,-0.5565,-0.5966,-0.4759,-0.3561,-0.2147,-0.0314,-0.0759,-0.1062,-0.0131,0.0,0.0,0.0,0.0,0.0,0.0,0.0,0.0,0.0,0.0236,0.0392,0.0392,0.2345,0.3465,0.3446,0.497,0.5786,0.5752,0.5525,0.5395,0.5395,0.5395,0.5395,0.5395,0.5395,0.5395,0.5395,0.5395,0.5395,0.5395,0.5395,0.5524,0.5719,0.5719,0.6367,0.7502,0.9037,0.9594,0.969,0.0,0.0,0.0,0.0,0.0,0.0,0.0,0.0,0.0,0.0,0.0,0.0,0.0,0.0,0.0,0.0,0.0,0.0,0.0,0.0,-1.7896,-1.7896,-1.7828,-1.6975,-1.5234,-1.5199,-1.5199,-1.5199,-1.5199,-1.5199,-1.5199,-1.5199,-1.5199,-1.5199,-1.5199,-1.5199,-1.5269,-1.6149,-1.6,-1.5269,-1.6149,0.0,0.0,0.0,0.0,0.0,0.0,0.0,0.0,0.0,0.0,0.0,0.0,0.0,-0.63,-0.63,-0.63,-0.63,-0.63,-0.5512,-0.4688,-0.4688,-0.4569,-0.4217,-0.3202,-0.4762,-0.5814,-0.3851,-0.4402,-0.4577,-0.2429,-0.1061,-0.0225,-0.0045,-0.0088,-0.0087,0.0,0.0,0.0,0.0,0.0,0.0,0.0,0.0,0.0,0.0,0.0941,0.1489,0.1489,0.3439,0.4522,0.4418,0.5295,0.5739,0.5606,0.5477,0.5395,0.5395,0.5395,0.5395,0.5395,0.5395,0.5395,0.5395,0.5395,0.5395,0.5395,0.5395,0.5881,0.6621,0.6621,0.7637,0.9236,1.0174,1.0498,1.053,0.0,0.0,0.0,0.0,0.0,0.0,0.0,0.0,0.0,0.0,0.0,0.0,0.0,0.0,0.0,0.0,0.0,0.0,0.0,0.0,-1.9628,-1.9628,-1.9628,-1.9267,-1.8552,-1.7487,-1.6941,-1.6941,-1.6941,-1.6941,-1.6941,-1.6941,-1.6941,-1.6941,-1.6941,-1.6941,-1.6975,-1.7329,-1.726,-1.6975,-1.7329,-1.7251,0.0,0.0,0.0,0.0,0.0,0.0,0.0,0.0,-1.1032,-0.9965,0.0,-0.7557,-0.7099,-0.649,-0.63,-0.63,-0.63,-0.6022,-0.5709,-0.5709,-0.5709,-0.5237,-0.3515,-0.4284,-0.4989,-0.3576,-0.4185,-0.4314,-0.2198,-0.0822,0.0,0.0,0.0,0.0,0.0,0.0,0.0,0.0,0.0,0.0,0.0,0.0,0.0275,0.0941,0.1372,0.188,0.2501,0.3906,0.4635,0.452,0.5362,0.5732,0.5593,0.5474,0.5395,0.5395,0.5395,0.5395,0.5395,0.5395,0.5395,0.5395,0.5395,0.5719,0.6203,0.6203,0.6724,0.7567,0.8091,0.871,0.9402,1.0269,1.0593,1.0593,0.0,0.0,0.0,0.0,0.0,0.0,0.0,0.0,0.0,0.0,0.0,0.0,0.0,0.0,0.0,0.0,0.0,0.0,0.0,0.0,-2.059,-2.059,-2.059,-2.059,-2.059,-1.9177,-1.8395,-1.8395,-1.8144,-1.8008,-1.8008,-1.8008,-1.8008,-1.8008,-1.8008,-1.8008,-1.8008,-1.8008,-1.8008,-1.8008,-1.8008,-1.8008,0.0,0.0,0.0,0.0,0.0,0.0,0.0,0.0,-1.1846,0.0,0.0,0.0,0.0,-0.6984,-0.6567,-0.63,-0.63,-0.63,-0.6222,-0.5867,-0.5786,-0.5315,-0.3513,-0.3943,-0.4337,-0.3016,-0.3074,-0.2936,-0.1494,-0.0556,0.0,0.0,0.0,0.0,0.0,0.0,0.0,0.0,0.0,0.0,0.0,0.0314,0.0824,0.1528,0.2192,0.2893,0.3552,0.4573,0.5039,0.4913,0.5447,0.5664,0.5552,0.5446,0.5395,0.5395,0.5395,0.5395,0.5395,0.5395,0.5395,0.5428,0.5686,0.6137,0.6719,0.7013,0.7632,0.8484,0.9364,0.9722,0.9786,1.0364,1.0593,1.0593,0.0,0.0,0.0,0.0,0.0,0.0,0.0,0.0,0.0,0.0,0.0,0.0,0.0,0.0,0.0,0.0,0.0,0.0,0.0,-2.1101,-2.0623,-2.0623,-2.0623,-2.0623,-2.0623,-1.9781,-1.9299,-1.9299,-1.8428,-1.8008,-1.8008,-1.8008,-1.8008,-1.8008,-1.8008,-1.8008,-1.8008,-1.8008,-1.8008,-1.8008,-1.8008,-1.8008,-1.8008,0.0,0.0,0.0,0.0,0.0,0.0,0.0,-1.2412,-1.082,0.0,0.0,0.0,-0.7821,-0.7099,-0.63,-0.63,-0.63,-0.6025,-0.496,-0.4686,-0.4414,-0.3357,-0.3904,-0.4103,-0.2036,-0.0733,0.0,0.0,0.0,0.0,0.0,0.0,0.0,0.0,0.0,0.0,0.0,0.0,0.0,0.0,0.098,0.1607,0.1646,0.3556,0.4688,0.4724,0.5538,0.5922,0.5803,0.5664,0.5549,0.5395,0.5395,0.5395,0.5395,0.5395,0.5395,0.5395,0.5395,0.5395,0.5462,0.6301,0.6687,0.6785,0.7665,0.8517,0.9402,1.0269,1.0593,1.0593,1.0593,1.0593,1.0593,0.0,0.0,0.0,0.0,0.0,0.0,0.0,0.0,0.0,0.0,0.0,0.0,0.0,0.0,0.0,0.0,0.0,0.0,0.0,-2.2494,-2.2372,-2.2372,-2.2372,-2.2372,-2.2372,-2.1553,-2.0236,-1.8395,-1.8144,-1.8008,-1.8008,-1.8008,-1.8008,-1.8008,-1.8008,-1.8008,-1.8008,-1.8008,-1.8008,-1.8008,-1.8008,-1.8008,-1.8008,0.0,0.0,0.0,0.0,0.0,0.0,0.0,0.0,0.0,0.0,0.0,0.0,-0.8008,-0.7099,-0.63,-0.63,-0.5747,-0.5079,-0.4766,-0.4139,-0.3476,-0.3163,-0.3357,-0.3203,-0.188,-0.0764,0.0,0.0,0.0,0.0,0.0,0.0,0.0,0.0,0.0,0.0,0.0,0.0667,0.1137,0.1137,0.2035,0.2969,0.3711,0.4336,0.4963,0.0,0.5863,0.5878,0.5661,0.561,0.5549,0.5395,0.5395,0.5395,0.5395,0.5395,0.5395,0.5395,0.5395,0.5395,0.5428,0.5686,0.6465,0.773,0.9224,0.9977,1.0238,1.0498,1.0593,1.0593,1.0593,1.0593,1.0593,0.0,0.0,0.0,0.0,0.0,0.0,0.0,0.0,0.0,0.0,0.0,0.0,0.0,0.0,0.0,0.0,0.0,0.0,0.0,0.0,-2.3108,-2.3108,-2.3108,-2.2944,-2.2628,-2.2156,-2.0782,-1.8529,-1.8529,-1.8529,-1.8496,-1.8168,-1.8008,-1.8008,-1.8008,-1.8008,-1.8008,-1.8008,-1.8202,-1.8529,-1.8529,-1.8529,-1.8529,0.0,0.0,0.0,0.0,0.0,0.0,0.0,0.0,0.0,-1.1687,0.0,-0.9183,-0.858,-0.7088,-0.567,-0.567,-0.4882,-0.3984,-0.3556,-0.2971,-0.2386,-0.1955,-0.2189,-0.2229,-0.1176,-0.044,0.0,0.0,0.0,0.0,0.0,0.0,0.0,0.0,0.0353,0.0628,0.0628,0.1567,0.219,0.219,0.3125,0.4021,0.4647,0.5079,0.0,0.0,0.5936,0.583,0.5596,0.5566,0.5487,0.5395,0.5395,0.5395,0.5395,0.5395,0.5587,0.5914,0.5557,0.5395,0.5428,0.5752,0.6695,0.8124,0.9524,1.0079,1.011,1.046,1.0593,1.0593,1.0593,1.0593,1.0593,0.0,0.0,0.0,0.0,0.0,0.0,0.0,0.0,0.0,0.0,0.0,0.0,0.0,0.0,0.0,0.0,0.0,0.0,0.0,0.0,-2.3275,-2.3215,-2.3125,-2.2763,-2.2044,-2.2002,-2.1227,-1.965,-1.9398,-1.9276,-1.9166,-1.8361,-1.8042,-1.811,-1.811,-1.8168,-1.8236,-1.8236,-1.8687,-1.9431,-1.9431,-1.9431,-1.9398,-1.9332,0.0,0.0,0.0,0.0,0.0,0.0,0.0,0.0,-1.2703,-1.0981,-0.9296,-0.9296,-0.7107,-0.4688,-0.4688,-0.3865,-0.2735,-0.1841,-0.1528,-0.1216,-0.0236,-0.0745,-0.1176,-0.0196,0.0,0.0,0.0,0.0,0.0,0.0,0.0,0.0039,0.0118,0.098,0.1646,0.1723,0.2618,0.324,0.324,0.4217,0.4844,0.4844,0.0,0.0,0.0,0.5878,0.5728,0.5576,0.5467,0.5428,0.5524,0.5524,0.5557,0.5624,0.5624,0.6042,0.6785,0.5914,0.5557,0.5686,0.6461,0.7307,0.8188,0.8979,0.9338,0.9498,1.0301,1.0593,1.0593,1.0593,1.0593,1.0593,0.0,0.0,0.0,0.0,0.0,0.0,0.0,0.0,0.0,0.0,0.0,0.0,0.0,0.0,0.0,0.0,0.0,0.0,0.0,0.0,-2.4639,-2.406,-2.3454,-2.3005,-2.2854,-2.2854,-2.2659,-2.2267,-2.029,-1.8944,-1.8269,-1.8076,-1.8371,-1.9011,-1.9011,-1.9398,-2.0042,-2.0042,-2.0139,-2.0333,-2.0333,-2.0333,-2.0236,-1.9562,-1.9177,0.0,0.0,0.0,0.0,0.0,0.0,0.0,-1.3455,-1.1527,-0.9296,-0.9296,-0.7107,-0.4688,-0.4688,-0.3322,-0.188,-0.1646,-0.098,-0.0275,-0.0039,-0.0196,-0.0275,-0.0039,0.0,0.0,0.0,0.0,0.0,0.0,0.0,0.0275,0.1137,0.145,0.188,0.2696,0.3709,0.4373,0.4373,0.5315,0.5944,0.0,0.0,0.0,0.5864,0.582,0.5681,0.5453,0.5412,0.5719,0.6429,0.6429,0.6756,0.0,0.7442,0.754,0.7697,0.6822,0.6789,0.7442,0.7637,0.8221,0.9043,0.921,0.969,1.0333,1.053,1.0593,1.0593,1.0593,1.0593,1.0593,0.0,0.0,0.0,0.0,0.0,0.0,0.0,0.0,0.0,0.0,0.0,0.0,0.0,0.0,0.0,0.0,0.0,0.0,0.0,0.0,0.0,0.0,-2.3543,0.0,0.0,0.0,0.0,-2.2537,-2.1195,-2.0107,-1.9233,-1.9233,-1.9266,-1.9299,-1.9299,-1.9562,-1.9977,-1.9977,-2.0236,-2.0655,-2.1037,-2.1239,-2.1164,-2.0719,-2.0301,-1.9824,-1.8944,0.0,0.0,0.0,0.0,0.0,0.0,0.0,-0.9933,-0.9448,-0.7447,-0.5217,-0.4213,-0.2776,-0.1489,-0.098,-0.0432,0.0,0.0,0.0,0.0,0.0,0.0,0.0,0.0,0.0,0.0157,0.0667,0.0784,0.1137,0.219,0.2776,0.3283,0.3787,0.4805,0.5473,0.5473,0.5983,0.63,0.0,0.0,0.6163,0.5817,0.58,0.5667,0.5402,0.5395,0.562,0.6075,0.6075,0.6527,0.7372,0.7372,0.7827,0.8581,0.773,0.7567,0.7994,0.7994,0.8253,0.8716,0.9139,0.9562,1.0015,1.0428,1.0593,1.0593,1.0593,1.0593,1.0593,0.0,0.0,0.0,0.0,0.0,0.0,0.0,0.0,0.0,0.0,0.0,0.0,0.0,0.0,0.0,0.0,0.0,0.0,0.0,0.0,0.0,0.0,-2.3796,0.0,0.0,0.0,0.0,-2.2094,-2.197,-2.1459,-2.059,-2.0462,-1.9977,-1.9309,-1.9464,-1.9595,-1.9748,-1.9911,-2.0365,-2.1101,-2.1815,-2.2094,-2.2106,-2.1939,-2.1459,-2.0687,-1.9661,-1.9299,-1.9067,-1.7394,0.0,0.0,0.0,0.0,-1.0815,-0.9631,-0.7825,-0.5784,-0.3898,-0.2503,-0.1333,-0.0275,0.0,0.0,0.0,0.0,0.0,0.0,0.0,0.0039,0.0235,0.0275,0.0628,0.1684,0.1841,0.2229,0.324,0.4139,0.4766,0.496,0.5747,0.63,0.63,0.63,0.0,0.0,0.0,0.6163,0.5817,0.58,0.5667,0.5402,0.5395,0.5458,0.562,0.5785,0.6272,0.7144,0.7302,0.8118,0.9498,0.8775,0.8447,0.8447,0.8285,0.8318,0.8479,0.9075,0.9402,0.9594,1.0333,1.0593,1.0593,1.0593,1.0593,1.0593,0.0,0.0,0.0,0.0,0.0,0.0,0.0,0.0,0.0,0.0,0.0,0.0,0.0,0.0,0.0,0.0,0.0,0.0,-2.7458,0.0,0.0,-2.6203,-2.4866,-2.4147,0.0,0.0,0.0,-2.2944,-2.2249,-2.1459,-2.059,-1.9824,-1.9398,-1.9332,-2.0074,-2.0846,-2.1596,-2.231,-2.2659,-2.2781,-2.2884,-2.2944,-2.2854,-2.2168,-2.1815,-2.1522,-1.9879,-1.9299,-1.9144,-1.8158,-1.7182,0.0,0.0,0.0,-1.1643,-0.9852,-0.7825,-0.5941,-0.4797,-0.3088,-0.1333,-0.0275,0.0,0.0,0.0,0.0,0.0,0.0,0.0,0.0275,0.1215,0.1372,0.1723,0.2735,0.289,0.3279,0.4334,0.4608,0.504,0.5983,0.6222,0.63,0.63,0.63,0.0,0.0,0.63,0.6163,0.5817,0.58,0.5667,0.5402,0.5395,0.5752,0.6527,0.7279,0.8096,0.8979,0.9716,1.0199,1.0428,1.0301,1.0263,1.0199,0.946,0.9556,1.0199,0.9562,0.9754,1.0428,1.0555,1.0593,1.0593,1.0593,1.0593,1.0593,0.0,0.0,0.0,0.0,0.0,0.0,0.0,0.0,0.0,0.0,0.0,0.0,0.0,0.0,0.0,-2.76,-2.76,-2.76,-2.76,-2.6904,-2.651,-2.651,-2.5481,-2.4709,-2.4321,0.0,-2.3543,-2.3108,-2.2763,-2.1896,-2.059,-2.0204,-1.9759,-1.9299,-1.9683,-2.0074,-2.0462,-2.0803,-2.0962,-2.1026,-2.151,-2.171,-2.1698,-2.1846,-2.1596,-2.1069,-2.0301,-1.9716,-1.9177,-1.8303,-1.7398,-1.6428,-1.5517,0.0,0.0,0.0,-0.8637,-0.7325,-0.4559,-0.2737,-0.1333,-0.0275,0.0,0.0,0.0,0.0,0.0157,0.0784,0.0902,0.1058,0.1528,0.2074,0.2774,0.3826,0.3982,0.4373,0.5431,0.5589,0.5786,0.6261,0.63,0.63,0.63,0.63,0.0,0.0,0.7138,0.6983,0.6666,0.7109,0.6978,0.6152,0.6597,0.6793,0.6687,0.7567,0.8188,0.8581,0.946,0.9881,0.9881,0.9881,1.0142,1.0593,1.0206,1.0238,1.0561,1.0174,1.0238,1.0593,1.0593,1.0593,1.0593,1.0593,1.0593,1.0593,0.0,0.0,0.0,0.0,0.0,0.0,0.0,0.0,0.0,0.0,0.0,0.0,0.0,0.0,0.0,0.0,-2.76,-2.76,-2.76,-2.71,-2.6774,-2.6774,-2.6054,-2.5315,-2.4595,-2.4408,-2.3914,-2.3108,-2.2884,-2.2021,-2.059,-2.0365,-1.9814,-1.8977,-1.921,-1.9299,-1.9299,-1.9529,-1.9628,-1.9694,-2.0333,-2.059,-2.0655,-2.1333,-2.1175,-2.0558,-2.0365,-1.9846,-1.9177,-1.8303,-1.7535,-1.6784,-1.5869,-1.4879,0.0,0.0,0.0,-0.8143,-0.4479,-0.2774,-0.1723,-0.0667,-0.0196,0.0,0.0,0.0196,0.0628,0.145,0.2036,0.2387,0.2387,0.3008,0.3865,0.4924,0.5118,0.5392,0.6183,0.63,0.63,0.63,0.63,0.63,0.63,0.63,0.0,0.0,0.7783,0.7785,0.7762,0.8301,0.8132,0.7164,0.7694,0.7697,0.7046,0.7892,0.8447,0.8672,0.9107,0.9306,0.9306,0.9075,0.946,1.0269,1.0498,1.0593,1.0593,1.0593,1.0593,1.0593,1.0593,1.0593,1.0593,1.0593,1.0593,1.0593,0.0,0.0,0.0,0.0,0.0,0.0,0.0,0.0,0.0,0.0,0.0,0.0,-2.76,-2.76,-2.76,-2.76,-2.76,-2.76,-2.76,-2.756,-2.7534,-2.7534,-2.6826,0.0,-2.537,-2.4652,-2.3914,-2.3108,-2.2353,-2.1491,-2.059,-1.9759,-1.8888,-1.811,-1.8921,-1.9299,-1.9365,-2.0171,-2.0526,-2.0526,-2.059,-2.059,-2.059,-2.0655,-2.0655,-2.0494,-1.9661,-1.9332,-1.9177,-1.8303,-1.7974,-1.7759,-1.6819,-1.586,-1.472,0.0,0.0,0.0,-0.5229,-0.3826,-0.2773,-0.1762,-0.0745,0.0,0.0,0.0784,0.1528,0.1607,0.3168,0.453,0.453,0.4569,0.496,0.6025,0.6222,0.6219,0.63,0.63,0.63,0.63,0.63,0.63,0.63,0.63,0.0,0.0,0.7783,0.8147,0.8958,0.874,0.8518,0.8309,0.8101,0.7962,0.7929,0.8812,0.9658,1.046,0.969,0.9306,0.9274,0.8452,0.8549,0.9402,1.0238,1.0593,1.0593,1.0593,1.0593,1.0593,1.0593,1.0593,1.0593,1.0593,1.0593,1.0593,0.0,0.0,0.0,0.0,0.0,0.0,0.0,0.0,0.0,0.0,0.0,0.0,0.0,-2.76,-2.76,-2.76,-2.76,-2.76,-2.76,-2.76,-2.76,-2.76,-2.7357,-2.6628,-2.5425,-2.5147,-2.4394,-2.3108,-2.2823,-2.1959,-2.059,-2.0268,-1.9365,-1.8008,-1.8337,-1.8462,-1.8496,-1.8787,-1.8921,-1.8921,-1.8921,-1.8921,-1.8977,-1.9562,-1.9431,-1.8944,-1.9199,-1.8944,-1.8428,-1.811,-1.8008,-1.7828,-1.6888,-1.5965,-1.4684,-1.2054,-0.9653,-0.7472,-0.6066,-0.4908,-0.3711,-0.2036,-0.1293,-0.0863,-0.0157,0.0824,0.1802,0.2425,0.3711,0.4921,0.5589,0.5709,0.5867,0.6219,0.63,0.63,0.63,0.6872,0.7249,0.7249,0.7821,0.8237,0.8237,0.8237,0.0,0.0,0.0,0.9824,1.0069,1.0278,1.0045,0.9248,0.9527,0.9678,0.9678,0.9428,0.9466,0.9754,0.9466,0.9306,0.9306,0.8973,0.9011,0.9306,0.9626,1.0079,1.0593,1.0593,1.0593,1.0593,1.0593,1.0593,1.0593,1.0593,1.0593,1.0593,0.0,0.0,0.0,0.0,0.0,0.0,0.0,0.0,0.0,0.0,0.0,0.0,0.0,0.0,-2.76,-2.76,-2.76,-2.76,-2.76,-2.76,-2.76,-2.76,-2.76,-2.6916,-2.5425,-2.5398,-2.4625,-2.3108,-2.3108,-2.2249,-2.059,-2.091,-1.9944,-1.8008,-1.8303,-1.8269,-1.8008,-1.8008,-1.8008,-1.8008,-1.8008,-1.8008,-1.811,-1.8977,-1.8754,-1.811,-1.8977,-1.8754,-1.8008,-1.8008,-1.8008,-1.7906,-1.7285,-1.6219,-1.4613,-1.1662,-0.9626,-0.808,-0.7026,-0.5722,-0.4297,-0.2542,-0.1841,-0.1333,-0.0235,0.1097,0.2308,0.2968,0.4256,0.547,0.618,0.63,0.63,0.63,0.6567,0.6795,0.6795,0.7668,0.8313,0.8313,0.8884,0.9296,0.9296,0.9296,0.0,0.0,0.0,0.0,1.1143,1.1413,1.1116,1.0168,1.0451,1.0593,1.0593,1.0047,0.9722,0.9722,0.9434,0.9306,0.9268,0.8683,0.8748,0.9274,0.8678,0.9102,1.0174,1.0174,1.0333,1.0593,1.0593,1.0593,1.0593,1.0593,1.0593,1.0593,0.0,0.0,0.0,0.0,0.0,0.0,0.0,0.0,0.0,0.0,0.0,0.0,0.0,0.0,0.0,-2.76,-2.76,-2.76,-2.76,-2.76,-2.76,-2.76,-2.76,-2.6916,-2.5453,-2.5398,-2.4667,-2.3138,-2.3108,-2.2249,-2.0655,-2.1491,-2.0526,-1.8076,-1.8911,-1.8821,-1.8008,-1.8008,-1.8008,-1.8008,-1.8008,-1.8008,-1.8076,-1.8944,-1.8754,-1.811,-1.8944,-1.8721,-1.8008,-1.8008,-1.8008,-1.8008,-1.7974,-1.6689,-1.4613,-1.1736,-1.0153,-0.9107,0.0,0.0,0.0,-0.3435,-0.2386,-0.1372,-0.0275,0.1565,0.3046,0.3085,0.4766,0.6261,0.63,0.63,0.63,0.63,0.7134,0.7783,0.7783,0.8689,0.9334,0.9334,0.9372,0.9372,0.9372,0.0,0.0,0.0,1.082,1.1273,1.2261,1.2024,1.1597,1.1009,1.0722,1.0568,1.0593,1.0593,1.0593,1.0593,0.9754,0.9338,0.9274,0.76,0.773,0.9204,0.747,0.7702,0.9306,0.9306,0.9817,1.0593,1.0593,1.0593,1.0593,1.0593,1.0593,1.0593,0.0,0.0,0.0,0.0,0.0,0.0,0.0,0.0,0.0,0.0,0.0,0.0,-2.76,-2.76,-2.76,-2.76,-2.76,-2.76,-2.76,-2.76,-2.76,-2.76,-2.76,-2.7163,-2.6229,-2.5673,-2.4922,0.0,0.0,0.0,0.0,0.0,0.0,-1.8944,-1.9199,-1.8821,-1.8008,-1.8008,-1.8008,-1.8008,-1.8008,-1.8008,-1.8042,-1.8269,-1.8202,-1.8042,-1.8269,-1.8202,-1.8008,-1.8008,-1.8008,-1.7862,-1.7207,-1.6149,-1.4914,-1.3361,-1.1712,-1.0153,-0.914,0.0,0.0,0.0,0.0,0.0,-0.141,0.047,0.2231,0.2968,0.4178,0.5392,0.6141,0.63,0.63,0.63,0.7134,0.7783,0.7783,0.9286,1.0378,1.0378,1.1019,1.1477,1.1477,0.0,0.0,0.0,1.1885,1.1996,1.2298,1.1361,1.088,1.1015,1.0207,1.0069,1.0593,1.0593,1.0593,1.0593,1.0371,1.0238,1.0238,0.9741,0.9454,0.9236,0.8124,0.8258,0.9306,0.9306,0.9817,1.0593,1.0593,1.0593,1.0593,1.0593,1.0593,1.0593,0.0,0.0,0.0,0.0,0.0,0.0,0.0,0.0,0.0,0.0,0.0,0.0,-2.76,0.0,-2.76,-2.76,-2.76,-2.76,-2.76,-2.76,-2.76,-2.76,-2.76,-2.7255,-2.651,-2.5783,0.0,0.0,0.0,0.0,0.0,0.0,0.0,0.0,-1.9694,-1.9177,-1.8008,-1.8008,-1.8008,-1.8008,-1.8008,-1.8008,-1.8042,-1.8395,-1.8337,-1.8042,-1.8395,-1.8303,-1.8008,-1.8008,-1.8008,-1.7828,-1.6888,-1.621,-1.5508,-1.4099,-1.2588,-1.118,-1.0185,-0.8874,-0.7391,-0.5722,0.0,0.0,-0.1919,-0.0274,0.1212,0.2267,0.3673,0.4882,0.5512,0.5983,0.63,0.63,0.7134,0.7936,0.8351,1.0153,1.1428,1.1428,1.1922,1.2305,0.0,1.2305,1.2305,1.2305,1.2305,1.2305,1.2305,1.1505,1.0901,1.0645,0.9937,0.9724,1.0047,1.0047,1.0238,1.0593,1.0593,1.0593,1.0593,1.0206,0.9977,0.9786,0.8544,0.871,0.9817,0.9466,0.9817,1.0593,1.0593,1.0593,1.0593,1.0593,1.0593,1.0593,0.0,0.0,0.0,0.0,0.0,0.0,0.0,0.0,0.0,0.0,0.0,0.0,0.0,0.0,0.0,0.0,-2.76,-2.76,-2.76,-2.76,0.0,-2.76,-2.76,-2.7306,-2.6642,-2.581,0.0,0.0,0.0,0.0,0.0,0.0,0.0,0.0,0.0,-1.9628,-1.8008,-1.8008,-1.8008,-1.8008,-1.8008,-1.8008,-1.8076,-1.8844,-1.8654,-1.811,-1.8877,-1.8654,-1.8008,-1.8008,-1.8008,-1.7862,-1.7035,-1.6671,-1.6245,-1.4522,-1.3237,-1.2158,-1.1218,-0.9583,-0.7846,-0.6674,-0.5604,0.0,-0.2387,-0.1015,0.0117,0.1213,0.2971,0.4414,0.4647,0.5473,0.6141,0.63,0.7134,0.8161,0.9145,1.095,1.2187,1.2298,1.2305,1.2305,1.2305,1.2305,1.2305,1.2305,1.2305,1.2305,1.2305,1.1985,1.1275,1.0189,0.9758,0.9435,0.9186,0.9253,0.969,1.046,1.0555,1.0593,1.0561,0.9786,0.9856,1.0523,0.8871,0.9064,1.053,0.9658,0.9817,1.0593,1.0593,1.0593,1.0593,1.0593,1.0593,1.0593,0.0,0.0,0.0,0.0,0.0,0.0,0.0,0.0,0.0,0.0,0.0,0.0,-2.76,-2.76,0.0,0.0,-2.76,-2.76,-2.76,-2.76,-2.76,-2.76,-2.76,-2.7534,-2.7382,-2.6081,0.0,0.0,0.0,0.0,0.0,0.0,0.0,0.0,0.0,-1.9628,-1.8008,-1.8008,-1.8008,-1.8008,-1.8008,-1.8008,-1.8008,-1.8202,-1.8144,-1.8008,-1.8202,-1.8134,-1.8008,-1.8008,-1.8008,-1.7974,-1.7794,-1.7217,-1.6532,-1.614,-1.4791,-1.3179,-1.2201,-1.11,-0.9771,-0.7957,-0.6685,0.0,-0.437,-0.2657,-0.0978,0.0078,0.1328,0.2699,0.4375,0.4882,0.5315,0.6141,0.7134,0.8161,0.9145,1.0346,1.1391,1.2187,1.2305,1.2305,1.2305,1.2305,1.2305,1.2305,1.2305,1.2305,1.2305,1.1495,1.0815,1.0378,0.9344,0.8698,0.8407,0.9011,0.9402,0.9562,1.0269,1.0593,1.0593,1.0428,1.0428,1.053,0.9492,0.962,1.053,0.9658,0.9817,1.0593,1.0593,1.0593,1.0593,1.0593,1.0593,1.0593,0.0,0.0,0.0,0.0,0.0,0.0,0.0,0.0,0.0,0.0,-2.728,-2.7034,-2.7034,-2.6733,-2.6654,0.0,0.0,0.0,0.0,0.0,-2.76,-2.76,-2.76,-2.76,-2.76,0.0,0.0,0.0,0.0,0.0,0.0,0.0,0.0,0.0,0.0,-1.9628,-1.8008,-1.8008,-1.8008,-1.8008,-1.8008,-1.8008,-1.8008,-1.8008,-1.8008,-1.8008,-1.8008,-1.8008,-1.8008,-1.8008,-1.8008,-1.8008,-1.8008,-1.7681,-1.7217,-1.674,-1.5895,-1.4934,-1.3945,-1.2634,-1.1242,-1.0237,-0.85,0.0,0.0,-0.3822,-0.2072,-0.1016,0.0469,0.1919,0.2973,0.3986,0.4882,0.5434,0.6363,0.7403,0.8428,0.9852,1.0975,1.1502,1.1996,1.2305,1.2305,1.2305,1.2305,1.2305,1.2305,1.2305,1.2305,1.1354,1.0481,0.9763,0.8593,0.7822,0.7555,0.7843,0.8452,0.9306,0.9754,1.0174,1.0593,1.0593,1.0593,1.0593,1.0142,1.0206,1.0561,1.0142,1.0206,1.0593,1.0593,1.0593,1.0593,1.0593,1.0593,1.0593,-2.7845,0.0,0.0,0.0,0.0,0.0,0.0,0.0,0.0,-2.7408,-2.6747,-2.6283,-2.6283,-2.5755,-2.5646,-2.6229,-2.6283,0.0,0.0,-2.7306,-2.7382,-2.7382,0.0,-2.76,-2.76,-2.6162,0.0,0.0,0.0,0.0,0.0,0.0,0.0,0.0,0.0,-1.9628,-1.8008,-1.8008,-1.8008,-1.8008,-1.8008,-1.8008,-1.8008,-1.8008,-1.8008,-1.8008,-1.8008,-1.8008,-1.8008,-1.8008,-1.811,-1.8202,-1.8042,-1.811,-1.8056,-1.7139,-1.674,-1.6419,-1.5685,-1.4017,-1.2458,-1.2268,-1.0275,-0.8033,0.0,0.0,0.0,-0.2152,-0.0352,0.1097,0.1528,0.2973,0.4219,0.4649,0.0,0.0,0.0,0.9059,0.0,1.0746,1.1502,0.0,1.2268,1.2305,1.2305,1.2305,1.2305,1.2305,1.2305,1.1354,1.0282,0.9175,0.7979,0.7143,0.6686,0.6739,0.7442,0.8812,0.9139,0.9658,1.0371,1.0523,1.0593,1.0593,1.0593,1.0593,1.0593,1.0593,1.0593,1.0593,1.0593,1.0593,1.0593,1.0593,1.0593,1.0593,-2.7845,-2.76,0.0,0.0,0.0,0.0,0.0,0.0,0.0,-2.6721,-2.5973,-2.5508,-2.5508,-2.5453,-2.5425,-2.5508,-2.5508,-2.5563,-2.5646,-2.6256,-2.6616,-2.6616,-2.7255,-2.76,-2.76,-2.6162,0.0,0.0,0.0,0.0,0.0,0.0,0.0,0.0,-2.059,-1.9628,-1.8008,-1.8008,-1.8008,-1.8008,-1.8008,-1.8008,-1.8008,-1.8008,-1.8008,-1.8008,-1.8008,-1.8008,-1.8008,0.0,-1.8529,-1.9011,-1.8236,-1.8529,-1.8977,-1.809,-1.7251,-1.6567,-1.6463,-1.5005,-1.3324,-1.2414,-1.1317,-0.9959,-0.8037,0.0,-0.5283,-0.3317,0.0,-0.0666,0.1254,0.0,0.0,0.0,0.0,0.0,0.6335,0.7442,0.8799,1.0596,1.0895,1.1316,0.0,1.2305,1.2305,1.2305,1.2305,1.2305,1.2305,1.1354,1.0329,0.9299,0.8115,0.6973,0.5919,0.6552,0.6919,0.7013,0.8549,0.937,0.9466,1.0238,1.0593,1.0593,1.0593,1.0593,1.0593,1.0593,1.0593,1.0593,1.0593,1.0593,1.0593,1.0593,1.0593,1.0593,-2.771,-2.76,-2.76,0.0,0.0,0.0,0.0,0.0,0.0,-2.596,-2.5231,-2.4766,-2.4766,-2.4366,-2.4237,-2.4709,-2.4766,-2.4922,-2.537,-2.6095,-2.631,-2.5864,-2.6982,-2.7408,-2.6956,-2.5946,-2.5398,0.0,-2.3872,0.0,0.0,0.0,0.0,0.0,-2.059,-1.9628,-1.8008,-1.8008,-1.8008,-1.8008,-1.8008,-1.8008,0.0,-1.8008,-1.8008,-1.8008,-1.8008,-1.8008,-1.8008,0.0,-1.8236,0.0,0.0,0.0,0.0,-1.811,-1.7716,-1.7398,-1.7398,-1.6009,-1.4478,0.0,0.0,0.0,-0.9734,0.0,-0.5938,0.0,0.0,0.0,0.0,0.0,0.0,0.0,0.3908,0.4844,0.0,0.0,0.7668,0.9707,0.0,0.0,0.0,0.0,0.0,0.0,1.1959,1.204,1.1465,1.049,0.948,0.8466,0.7264,0.64,0.5935,0.6136,0.6456,0.6819,0.7555,0.8389,0.9306,0.969,1.011,1.0593,1.0593,1.0593,1.0593,1.0593,1.0593,1.0593,1.0593,1.0593,1.0593,1.0593,1.0593,1.0593,-2.766,-2.76,-2.76,-2.76,0.0,0.0,0.0,0.0,0.0,-2.5408,-2.4675,-2.4285,-2.4441,-2.3785,-2.3576,-2.4161,-2.4076,-2.4192,-2.4724,-2.5481,-2.5646,-2.5119,-2.6508,-2.7034,-2.651,-2.5987,-2.5591,0.0,0.0,0.0,0.0,0.0,0.0,0.0,-2.0719,-1.9748,-1.8327,-1.811,-1.8008,-1.8008,-1.8008,-1.7872,-1.7647,-1.7896,-1.7828,-1.7647,-1.7906,-1.7828,-1.7647,-1.7906,-1.8168,0.0,-1.8076,0.0,-1.8269,0.0,-1.7623,-1.7613,-1.7613,0.0,0.0,0.0,0.0,0.0,0.0,0.0,0.0,0.0,0.0,0.0,0.0,0.0,-0.0078,0.0978,0.0,0.4064,0.0,0.5354,0.663,0.0,0.0,0.0,0.0,0.0,0.0,1.0783,1.1205,1.1174,1.0415,0.9442,0.8542,0.7821,0.6677,0.6071,0.5993,0.5918,0.6083,0.6535,0.677,0.7507,0.8613,0.9075,0.9658,1.0269,1.0498,1.0593,1.0593,1.0593,1.0593,1.0593,1.0593,1.0593,1.0593,1.0593,1.0593,1.0593,-2.782,-2.76,-2.76,-2.76,-2.76,0.0,0.0,0.0,-2.5352,-2.5134,-2.4466,-2.4211,-2.4739,-2.4293,-2.3966,-2.3998,-2.3495,-2.3155,-2.3155,-2.3914,-2.435,-2.435,-2.5755,-2.6537,-2.651,-2.6484,-2.6122,0.0,0.0,0.0,0.0,0.0,0.0,0.0,-2.0974,-2.0107,-1.921,-1.8361,-1.8008,-1.8008,-1.8008,-1.7467,-1.674,0.0,-1.7432,-1.674,-1.7681,0.0,0.0,-1.7681,-1.8563,0.0,0.0,0.0,0.0,0.0,0.0,0.0,0.0,0.0,0.0,-1.5199,0.0,0.0,0.0,0.0,-0.9788,0.0,0.0,0.0,0.0,0.0,-0.1213,-0.0117,0.0977,0.0,0.0,0.4727,0.5538,0.7587,0.0,0.0,0.0,0.0,1.0783,1.0783,0.9933,0.9372,0.9334,0.8389,0.7821,0.7783,0.6826,0.6179,0.5993,0.5986,0.5878,0.5658,0.6501,0.6873,0.685,0.8517,0.9306,0.9402,1.0238,1.0593,1.0593,1.0593,1.0593,1.0593,1.0593,1.0593,1.0593,1.0593,1.0593,1.0593,-2.7685,-2.76,-2.76,-2.76,-2.76,-2.731,-2.6441,-2.5692,-2.478,-2.3661,-2.3301,-2.2859,-2.2092,-2.1853,-2.1981,-2.257,-2.2431,-2.2537,-2.3078,-2.3855,-2.406,-2.3543,-2.4965,-2.5536,-2.5035,-2.5035,-2.4922,0.0,0.0,0.0,0.0,0.0,0.0,0.0,0.0,-1.9792,-1.8428,-1.8144,-1.7647,-1.7035,-1.6402,-1.6332,-1.6567,0.0,0.0,-1.579,-1.6749,-1.6888,0.0,-1.6957,-1.7257,-1.7453,-1.7164,-1.6844,-1.6584,-1.6611,-1.6149,0.0,0.0,0.0,-1.4207,-1.4207,0.0,0.0,0.0,0.0,0.0,0.0,0.0,0.0,0.0,0.0,-0.3086,-0.1329,-0.0156,0.1248,0.0,0.4882,0.6018,0.6718,0.8008,0.8799,0.0,0.0,0.0,0.8799,0.9107,0.8998,0.8351,0.7974,0.748,0.6834,0.649,0.6276,0.6183,0.6183,0.6081,0.5881,0.6058,0.6402,0.6836,0.7334,0.8221,0.9306,0.9626,1.0079,1.0593,1.0593,1.0593,1.0593,1.0593,1.0593,1.0593,1.0593,1.0593,1.0593,-2.7635,-2.76,-2.76,-2.76,-2.7535,-2.727,-2.6632,-2.5468,-2.4309,-2.3358,-2.278,-2.2197,-2.1486,-2.1218,-2.1267,-2.1687,-2.1533,-2.1855,-2.288,-2.2976,-2.2982,-2.2973,-2.3691,-2.3842,-2.3382,-2.3952,-2.4111,-2.3833,0.0,-2.3395,0.0,0.0,0.0,0.0,0.0,-1.9639,-1.7959,-1.7628,-1.6966,-1.6,-1.5057,-1.5021,0.0,0.0,-1.4593,-1.5269,0.0,-1.586,-1.5614,-1.5965,-1.6105,-1.6105,-1.6105,-1.5693,-1.5269,-1.5508,-1.5155,-1.4665,-1.4665,-1.4207,0.0,-1.3709,-1.2974,0.0,-1.2298,0.0,-1.0527,0.0,0.0,0.0,0.0,0.0,-0.4258,-0.2934,-0.1484,0.0273,0.0,0.4611,0.5867,0.6261,0.7173,0.7783,0.7783,0.7783,0.7783,0.7783,0.8089,0.7936,0.0,0.0,0.6984,0.6338,0.63,0.63,0.63,0.63,0.6183,0.599,0.5928,0.6058,0.6428,0.668,0.7344,0.842,0.9043,0.9626,1.0174,1.0466,1.0593,1.0593,1.0593,1.0593,1.0593,1.0593,1.0593,1.0606,-2.7755,-2.7675,-2.7705,-2.7684,-2.7462,-2.7258,-2.7211,-2.528,-2.3892,-2.4123,-2.2868,-2.2133,-2.2639,-2.2189,-2.1675,-2.133,-2.0827,-2.1115,-2.2515,-2.1344,-2.119,-2.2526,-2.1981,-2.1649,-2.1649,-2.3179,-2.3658,-2.294,0.0,0.0,0.0,0.0,0.0,0.0,-2.091,-1.9531,-1.7794,-1.6954,-1.6035,-1.5021,-1.4027,-1.3673,-1.36,-1.2666,-1.3484,-1.5128,-1.5128,-1.4522,-1.3854,-1.4807,-1.5128,-1.5128,-1.5128,-1.5092,-1.4879,-1.3954,-1.3673,-1.3637,-1.3637,-1.3637,-1.3637,-1.3637,0.0,0.0,0.0,0.0,-1.0453,0.0,0.0,0.0,0.0,0.0,0.0,-0.4727,-0.2893,-0.0469,0.2616,0.3984,0.5079,0.6103,0.7099,0.7744,0.7744,0.7744,0.7744,0.7744,0.6834,0.63,0.0,0.0,0.63,0.63,0.63,0.63,0.63,0.63,0.6186,0.6003,0.5996,0.5884,0.5644,0.6474,0.6806,0.6798,0.8458,0.921,0.937,1.0206,1.0561,1.0593,1.0593,1.0593,1.0593,1.0593,1.06,1.0653,-2.8284,-2.8727,-2.9044,-2.8894,-2.7954,-2.7122,-2.6868,-2.5282,-2.3899,-2.3304,-2.2259,-2.1064,-1.9849,-1.958,-1.9569,-1.9808,-1.9725,-2.0064,-2.106,-2.0786,-2.0743,-2.1124,-2.0955,-2.0876,-2.0876,-2.193,-2.2354,-2.2194,-2.301,0.0,-2.3078,0.0,0.0,0.0,0.0,-1.8636,-1.692,-1.6697,-1.5614,-1.3991,-1.3025,-1.3098,-1.36,0.0,-1.3025,-1.4099,-1.4099,-1.3918,-1.3745,-1.3991,-1.4099,-1.4099,-1.4099,-1.36,-1.3127,-1.3564,-1.32,-1.2666,-1.2666,-1.2666,-1.2666,-1.2666,-1.1903,-1.1149,0.0,0.0,0.0,0.0,0.0,0.0,0.0,0.0,0.0,-0.4844,-0.23,0.0156,0.176,0.3556,0.4805,0.5079,0.6054,0.6683,0.6683,0.6683,0.6683,0.6683,0.6451,0.63,0.0,0.0,0.0,0.63,0.63,0.63,0.63,0.63,0.6279,0.6238,0.6084,0.5952,0.5908,0.593,0.6276,0.6857,0.7208,0.8091,0.9306,0.953,1.0015,1.0593,1.0593,1.0593,1.0593,1.0593,1.0727,1.0928,-2.8532,-2.907,-2.9302,-2.8804,-2.7643,-2.6754,-2.6563,-2.5237,-2.3828,-2.2644,-2.1848,-2.0767,-1.9092,-1.8926,-1.8848,-1.8748,-1.8721,-1.9193,-2.0314,-1.9801,-1.9746,-2.0347,-1.9801,-1.9464,-1.9464,-2.0333,-2.0751,-2.0751,-2.197,0.0,-2.2567,0.0,0.0,0.0,0.0,-1.8277,-1.6532,-1.5685,-1.4442,-1.3025,-1.2519,-1.2629,0.0,-1.2519,-1.2629,-1.3098,-1.3098,-1.3098,-1.3098,-1.3098,-1.3006,-1.2892,-1.2892,-1.2449,-1.2024,-1.2551,-1.2338,-1.1917,-1.1917,-1.1631,-1.1338,-1.1338,-1.0304,-0.9416,-0.9928,-0.9256,-0.8393,0.0,0.0,0.0,0.0,0.0,0.0,-0.4882,-0.2806,-0.0819,0.0703,0.2305,0.3517,0.3943,0.496,0.5434,0.496,0.5747,0.63,0.63,0.63,0.0,0.0,0.0,0.0,0.63,0.63,0.63,0.63,0.63,0.63,0.6296,0.6173,0.6095,0.5986,0.5789,0.5923,0.6356,0.6606,0.7242,0.8221,0.8973,0.9594,1.0091,1.0566,1.078,1.0801,1.0928,1.0962,1.1029,-2.8684,-2.8997,-2.8988,-2.8123,-2.704,-2.6208,-2.5968,-2.4841,0.0,-2.2162,0.0,-2.0724,-1.9445,-1.9238,-1.8877,-1.8076,-1.8008,-1.853,-1.974,-1.8672,-1.854,-1.9784,-1.8662,-1.8008,-1.8008,-1.8854,-1.9299,-1.9299,-2.0942,0.0,0.0,0.0,0.0,0.0,-1.9529,-1.8109,-1.628,-1.4486,-1.3164,-1.2305,-1.2305,-1.2305,-1.2305,-1.2305,-1.2305,-1.2298,-1.2258,-1.2245,-1.2245,-1.2245,-1.2051,-1.1846,-1.1846,-1.163,-1.1389,-1.1389,-1.1389,-1.1389,-1.1252,-1.0695,-1.0066,-0.9962,-0.8619,-0.7575,-0.8614,-0.8038,-0.7327,-0.7517,-0.7554,-0.7298,0.0,0.0,0.0,-0.4686,-0.3826,0.0,-0.0312,0.082,0.176,0.2773,0.3826,0.0,0.0,0.504,0.6257,0.6103,0.0,0.0,0.0,0.0,0.0,0.63,0.63,0.0,0.63,0.0,0.63,0.63,0.63,0.619,0.6016,0.5901,0.5752,0.5679,0.6279,0.6613,0.6817,0.8318,0.9125,0.9473,1.0562,1.1015,1.1082,1.1376,1.1323,1.1176,-2.9101,-2.91,-2.8787,-2.7891,-2.6961,-2.5761,-2.4243,-2.3095,-2.2296,-2.2054,-2.094,-1.9932,-1.9372,-1.8965,-1.851,-1.8057,-1.8008,0.0,-1.8344,-1.8149,-1.8105,-1.8344,-1.8115,-1.8008,-1.8008,-1.8854,-1.9299,-1.9299,0.0,0.0,0.0,0.0,0.0,-1.9497,-1.862,-1.7173,-1.5376,-1.4207,0.0,-1.2305,-1.2305,-1.2305,-1.2305,-1.2305,-1.2305,-1.2271,-1.2067,-1.198,-1.198,-1.198,-1.175,-1.1503,-1.1503,-1.147,-1.1389,-1.1389,-1.1389,-1.1252,-1.0522,-1.0205,-0.9927,-0.9214,-0.8162,-0.7362,-0.7571,-0.6837,-0.6135,-0.6295,-0.633,-0.6294,-0.6314,0.0,0.0,0.0,0.0,0.0,0.0,0.0156,0.0663,0.1722,0.2774,0.3318,0.0,0.0,0.0,0.0,0.0,0.0,0.0,0.0,0.0,0.0,0.63,0.0,0.0,0.0,0.63,0.63,0.63,0.6286,0.6252,0.6061,0.5908,0.5755,0.5783,0.6138,0.6719,0.7046,0.8134,0.9723,1.0639,1.1142,1.139,1.1683,1.1792,1.1765,-2.9038,-2.8701,-2.8025,-2.7139,-2.5773,0.0,0.0,-2.1138,-2.0356,-2.083,-2.0121,-1.9246,-1.8326,-1.7578,-1.7009,-1.6586,-1.655,-1.655,-1.655,-1.655,-1.655,-1.655,-1.655,-1.655,-1.655,-1.6973,-1.741,-1.7896,0.0,0.0,0.0,0.0,0.0,-1.9233,-1.7891,-1.6219,0.0,0.0,0.0,-1.2305,-1.2305,-1.2305,-1.2305,-1.2305,-1.1948,-1.1398,-1.1266,-1.0744,-1.0239,-1.1305,-1.1443,-1.1202,-1.1202,-1.0796,-1.0309,-1.0309,-0.9998,-0.9559,-0.9125,-0.8684,-0.8241,-0.7798,-0.6992,-0.6344,-0.6398,-0.6036,-0.5732,-0.5881,-0.5911,-0.5959,-0.6112,-0.6245,0.0,0.0,0.0,0.0,0.0,0.0,0.0196,0.0706,0.1683,0.2112,0.1565,0.0,0.0,0.0,0.0,0.0,0.0,0.0,0.0,0.0,0.0,0.0,0.0,0.0,0.0,0.63,0.63,0.63,0.6293,0.6101,0.5952,0.5911,0.5766,0.5898,0.6264,0.671,0.8059,0.9855,1.0473,1.1101,1.169,1.1984,1.2091,1.2091,-2.8225,-2.7577,-2.6598,-2.5335,-2.3719,-2.2164,-2.0855,-1.9107,-1.8288,-1.9344,-1.8941,-1.8132,-1.7018,-1.618,-1.5541,-1.5223,-1.5199,-1.5199,-1.5199,-1.5199,-1.5199,-1.5199,-1.5199,-1.5199,-1.5199,-1.5199,-1.5552,0.0,0.0,0.0,0.0,0.0,0.0,0.0,0.0,0.0,0.0,0.0,-1.3164,-1.2261,-1.207,-1.1959,-1.1953,-1.171,-1.1071,-1.0257,-1.0183,-0.9395,-0.8643,-1.0153,-1.0543,-1.0358,-1.0358,-0.9752,-0.9011,-0.9011,-0.8549,-0.7962,-0.7762,-0.7209,-0.6654,-0.6461,-0.5914,-0.5426,-0.5549,-0.5542,-0.5583,-0.5728,-0.5779,-0.5847,-0.5963,-0.6129,0.0,0.0,0.0,0.0,0.0,0.0,-0.0823,-0.0392,0.0392,0.0666,0.0079,0.0,0.0,0.0,0.0,0.0,0.0,0.0,0.0,0.0,0.0,0.5944,0.5944,0.0,0.63,0.0,0.63,0.63,0.6296,0.6135,0.6023,0.5986,0.5901,0.583,0.5871,0.6722,0.8014,0.9447,1.0146,1.0917,1.1726,1.2145,1.2305,1.2305,-2.6153,-2.5227,-2.3904,0.0,0.0,-1.9364,-1.8395,-1.6993,-1.6544,-1.7896,-1.6937,-1.6083,-1.5956,-1.551,-1.524,-1.5199,-1.5199,-1.5199,-1.5199,-1.5199,-1.5199,-1.5199,-1.5199,-1.5199,-1.5199,-1.5199,-1.5234,0.0,0.0,0.0,0.0,0.0,0.0,0.0,0.0,0.0,0.0,-1.3709,-1.3164,-1.2224,-1.1316,-1.0932,-1.0834,-0.9799,-0.9343,-0.9197,-0.8774,-0.8529,-0.8394,-0.8346,-0.83,-0.8284,-0.8284,-0.8204,-0.8124,-0.8124,-0.8059,-0.7832,-0.7046,-0.6752,-0.6527,-0.5719,-0.5458,-0.5399,-0.5412,-0.5416,-0.546,-0.5579,-0.5711,-0.5847,-0.5963,-0.6003,-0.5752,0.0,0.0,0.0,0.0,0.0,-0.3556,-0.1685,-0.1371,-0.0941,-0.0079,0.0157,0.0,0.0,0.2033,0.0,0.0,0.0,0.0,0.3396,0.0,0.4844,0.4844,0.5825,0.0,0.63,0.63,0.63,0.63,0.6286,0.6162,0.5993,0.5976,0.5928,0.5871,0.6722,0.7354,0.7906,0.9704,1.0621,1.1014,1.1946,1.2305,1.2305,0.0,0.0,0.0,0.0,0.0,0.0,0.0,-1.5692,-1.5057,-1.5353,-1.4887,-1.4546,-1.4546,-1.3885,-1.3448,-1.3448,-1.3448,-1.3448,-1.3448,-1.3448,-1.3448,-1.3448,-1.3448,-1.3448,-1.3448,-1.3448,-1.3738,0.0,0.0,0.0,0.0,0.0,0.0,0.0,0.0,-1.2859,-1.1933,-1.1335,-1.082,-1.0458,-1.0045,-0.9895,-0.983,-0.9301,-0.866,-0.7968,-0.772,-0.7173,-0.6597,-0.6461,-0.7149,-0.7994,-0.7994,-0.7632,-0.7209,-0.7209,-0.6854,-0.6371,-0.6013,-0.5914,-0.5848,-0.5491,-0.5395,-0.5395,-0.5395,-0.5395,-0.5412,-0.5474,-0.5572,-0.5694,-0.5755,-0.5833,-0.5792,0.0,0.0,0.0,0.0,0.0,0.0,-0.1762,-0.1607,-0.1176,-0.0118,0.0,0.0,0.0,0.0,0.0,0.0,0.0,0.0,0.3085,0.0,0.4688,0.4688,0.5747,0.63,0.63,0.63,0.63,0.63,0.63,0.6265,0.6169,0.6169,0.6132,0.6115,0.6487,0.7047,0.774,0.8524,0.9285,1.0002,1.1013,1.1391,1.1502,-2.0829,0.0,-2.0107,0.0,-1.7668,-1.7,-1.5085,-1.4193,-1.3563,-1.2922,-1.2858,-1.2967,-1.3273,-1.2703,-1.2305,-1.2305,-1.2033,-1.1848,-1.1848,-1.1583,-1.1434,-1.1434,-1.1434,0.0,-1.1434,-1.1434,-1.1724,-1.2412,-1.2691,0.0,0.0,0.0,0.0,0.0,-1.1797,-1.0989,-1.0303,-0.9593,-0.9296,-0.9258,-0.8998,-0.8841,-0.8726,-0.8285,-0.7583,-0.6799,-0.666,-0.6082,-0.5395,-0.5395,-0.621,-0.7251,-0.7251,-0.6822,-0.6334,-0.6334,-0.5881,-0.5395,-0.5395,-0.5395,-0.5395,-0.5395,-0.5395,-0.5395,-0.5395,-0.5395,-0.5395,-0.5395,-0.5481,-0.5538,-0.5583,-0.5671,-0.5789,-0.5902,0.0,0.0,0.0,-0.4171,0.0,-0.2579,-0.1958,-0.1293,-0.0549,-0.0196,0.0,0.0,0.0,0.0,0.0,0.0,0.0,0.0,0.0,0.0,0.0,0.5589,0.63,0.63,0.63,0.63,0.63,0.63,0.63,0.63,0.63,0.63,0.63,0.63,0.6718,0.7403,0.7668,0.8237,0.8993,1.0002,1.0559,1.0895,-1.7617,-1.7375,-1.6617,-1.4188,-1.3753,-1.3462,-1.2489,-1.2342,-1.1966,-1.0969,-1.082,-1.1199,-1.2224,-1.2305,-1.2305,-1.2305,-1.1391,-1.0826,-1.0826,-0.9895,-0.9334,0.0,0.0,-0.9334,-0.9334,-0.9334,-0.9334,-0.9334,0.0,0.0,-1.0756,0.0,-1.0756,-1.0681,-0.9766,-0.9334,-0.9334,-0.9296,-0.9296,-0.9221,-0.8199,-0.7706,-0.7405,-0.6255,-0.575,-0.5607,-0.5487,-0.5395,-0.5395,-0.5395,-0.5428,-0.5428,-0.5428,-0.5428,-0.5428,-0.5428,-0.5395,-0.5395,-0.5395,-0.5395,-0.5395,-0.5395,-0.5395,-0.5395,-0.5395,-0.5395,-0.5395,-0.5395,-0.5395,-0.5443,-0.5562,-0.5593,-0.564,-0.5779,0.0,0.0,0.0,-0.5121,0.0,-0.4634,-0.2856,-0.1607,-0.1568,-0.0628,0.0,0.0,0.0,0.0,0.0,0.0,0.0,0.0039,0.2033,0.0,0.3124,0.5237,0.63,0.63,0.63,0.63,0.63,0.63,0.63,0.63,0.63,0.63,0.63,0.63,0.63,0.6416,0.7403,0.7821,0.7936,0.8955,0.9927,1.0783,-1.5962,-1.5865,-1.5405,-1.3934,-1.3709,-1.3157,-1.1533,-1.1279,-1.0907,-0.9895,-0.9782,-0.9895,-1.0233,-1.0233,-1.0233,0.0,-0.997,-0.9782,0.0,-0.9485,-0.9296,-0.9296,-0.9296,-0.9296,-0.9296,-0.9296,-0.9296,-0.9296,0.0,0.0,0.0,-0.9766,-0.9766,-0.9685,-0.8723,-0.8275,-0.8237,-0.7557,-0.7253,-0.7211,-0.6911,-0.6308,-0.5622,-0.5745,-0.5319,-0.4694,-0.5212,-0.5395,-0.5395,-0.5395,-0.5395,-0.5395,-0.5395,-0.5395,-0.5395,-0.5395,-0.5395,-0.5395,-0.5395,-0.5395,-0.5395,-0.5395,-0.5395,-0.5395,-0.5395,-0.5395,-0.5395,-0.5395,-0.5395,-0.5409,-0.5457,-0.5467,-0.5518,-0.5633,-0.5657,0.0,0.0,0.0,-0.4036,-0.2738,-0.1985,-0.1309,-0.0588,-0.0196,0.0,0.0,0.0,0.0,0.0,0.0,0.0,0.0,0.1332,0.0,0.3085,0.4491,0.5589,0.63,0.63,0.63,0.63,0.63,0.63,0.63,0.63,0.63,0.63,0.63,0.63,0.6338,0.6644,0.6795,0.6911,0.7897,0.8461,0.8836,-1.4127,-1.3824,-1.3346,-1.2705,-1.2301,-1.1631,-1.0409,-1.0228,-0.989,-0.8879,-0.8732,-0.858,-0.8199,-0.8161,0.0,-0.9221,-0.8955,-0.8732,-0.8732,-0.8389,-0.8161,-0.8161,-0.8161,-0.8161,-0.8161,0.0,0.0,-0.8161,-0.8161,-0.8161,-0.8161,-0.8161,-0.8161,-0.8161,-0.7518,-0.7249,-0.7215,-0.6567,-0.63,-0.63,-0.63,-0.5632,-0.4667,-0.5141,-0.461,-0.3701,-0.4211,-0.4386,-0.4386,-0.4386,-0.4386,-0.4386,-0.4386,-0.4386,-0.4519,-0.5193,-0.5395,-0.5395,-0.5395,-0.516,-0.4957,-0.5329,-0.4891,-0.4386,-0.4386,-0.4386,-0.4486,-0.4821,-0.4888,-0.499,-0.5326,-0.5395,-0.5326,-0.5039,-0.4984,-0.4752,-0.3987,0.0,-0.3031,0.0,0.0,0.0,0.0,-0.0234,0.0,0.0,0.0,0.0,0.0,0.0,0.0,0.0,0.1058,0.0,0.3085,0.4178,0.5237,0.63,0.63,0.63,0.63,0.63,0.63,0.63,0.63,0.63,0.63,0.63,0.63,0.63,0.63,0.63,0.6377,0.7022,0.748,0.7897,-1.2077,-1.1354,0.0,0.0,-0.9933,0.0,-0.9221,-0.9183,-0.8841,-0.7821,-0.7706,-0.7326,-0.6412,-0.63,-0.7061,-0.8917,0.0,0.0,0.0,-0.6834,-0.63,-0.63,-0.63,-0.63,-0.63,-0.63,-0.63,-0.63,-0.63,-0.63,-0.63,-0.63,-0.63,-0.63,-0.63,-0.63,-0.63,-0.6219,-0.6183,-0.618,-0.6103,-0.535,-0.4311,-0.4383,-0.3648,-0.2611,-0.2678,-0.2711,-0.2711,-0.2711,-0.2711,-0.2711,-0.2711,-0.2711,-0.3045,-0.4722,-0.5226,-0.5226,-0.5226,-0.4586,-0.4115,-0.499,-0.3949,-0.2711,-0.2711,-0.2711,-0.2945,-0.3747,-0.3915,-0.4184,-0.5057,-0.5226,-0.4921,-0.4048,-0.3915,-0.3645,-0.2911,0.0,-0.1688,0.0,0.0,0.0,0.0,-0.0579,0.0,0.0,0.0,0.0,0.0,0.0,0.0,0.0,0.098,0.1996,0.3085,0.41,0.5157,0.63,0.63,0.63,0.63,0.63,0.63,0.63,0.63,0.63,0.63,0.63,0.63,0.63,0.63,0.63,0.63,0.63,0.6907,0.7706,0.0,0.0,-0.9669,-0.9669,-0.9448,-0.9031,-0.8275,-0.8161,-0.7783,-0.6795,-0.6644,-0.6567,-0.6338,-0.63,-0.649,-0.6984,-0.6795,-0.6644,-0.6644,-0.6412,-0.63,-0.63,-0.63,-0.63,-0.63,-0.63,-0.63,-0.63,-0.63,-0.63,-0.63,-0.63,-0.63,-0.63,-0.63,-0.63,-0.6261,-0.5431,-0.5079,-0.5002,-0.4178,-0.3224,-0.2359,-0.3011,-0.2599,-0.1742,-0.2444,-0.2711,-0.2711,-0.2711,-0.2711,-0.2711,-0.2711,-0.2711,-0.2778,-0.3211,-0.3345,-0.3345,-0.3345,-0.3178,-0.3045,-0.328,-0.3011,-0.2711,-0.2711,-0.2711,-0.2744,-0.2978,-0.3011,-0.3078,-0.3313,-0.3345,-0.328,-0.3045,-0.3011,-0.2683,-0.1791,-0.1455,0.0,0.0,-0.0285,-0.0109,-0.0339,-0.0152,0.0,0.0,0.0,0.0,0.0,0.0,0.0,0.0,0.0235,0.1254,0.3085,0.3357,0.4414,0.63,0.63,0.63,0.63,0.63,0.63,0.63,0.63,0.63,0.63,0.63,0.63,0.63,0.63,0.63,0.63,0.63,0.6451,0.6644,-0.9296,-0.8917,-0.8618,-0.8618,-0.8237,-0.7744,-0.7215,-0.7099,-0.6911,-0.6377,-0.63,-0.63,-0.63,-0.63,-0.63,-0.63,-0.63,-0.63,-0.63,-0.63,-0.63,-0.63,-0.63,-0.63,-0.63,-0.63,-0.63,-0.63,-0.63,-0.63,-0.63,-0.63,-0.63,-0.6261,-0.5786,-0.555,-0.5512,-0.4414,-0.3984,-0.3904,-0.3318,-0.2505,-0.1636,-0.2143,-0.1653,-0.0773,-0.1276,-0.1477,-0.1477,-0.1477,-0.1477,-0.1477,-0.1477,-0.1477,-0.1477,-0.1477,-0.2044,-0.2711,-0.2711,-0.2377,-0.1976,-0.1576,-0.1776,-0.1942,-0.1543,-0.1477,-0.1576,-0.1976,-0.2076,-0.2177,-0.2611,-0.2711,-0.2544,-0.2143,-0.2076,-0.1742,-0.084,-0.0706,0.0,-0.0069,0.0,0.0,0.0,0.0,0.0,0.0,0.0,0.0,0.0,0.0,0.0,0.0,0.0,0.0979,0.3085,0.4062,0.5157,0.63,0.63,0.63,0.63,0.63,0.63,0.63,0.63,0.63,0.63,0.63,0.63,0.63,0.63,0.63,0.63,0.63,0.63,0.63,-0.8841,-0.8161,-0.7591,-0.7591,-0.6872,-0.63,-0.63,-0.63,-0.63,-0.63,-0.63,-0.63,-0.63,-0.63,-0.6219,-0.6064,-0.6064,-0.6141,-0.63,-0.63,-0.63,-0.63,-0.63,-0.63,-0.63,-0.63,-0.63,-0.63,-0.63,-0.63,-0.63,-0.6141,-0.6064,-0.6022,-0.4924,-0.4453,-0.4375,-0.332,-0.289,-0.2851,-0.2695,-0.2127,-0.1345,-0.1345,-0.0776,0.0,0.0,0.0,0.0,0.0,0.0,0.0,0.0,0.0,0.0,0.0,-0.1075,-0.2278,-0.2278,-0.1709,-0.094,-0.0168,-0.0572,-0.0906,-0.0168,0.0,-0.0202,-0.0939,-0.1106,-0.1341,-0.2144,-0.2278,-0.2043,-0.124,-0.1106,-0.0839,-0.0101,0.0,0.0,0.0,0.0,0.0,0.0,0.0,0.0,0.0,0.0,0.0,0.0,0.0,0.0,0.0,0.0,0.0979,0.3085,0.5237,0.63,0.63,0.63,0.63,0.63,0.63,0.63,0.63,0.63,0.63,0.63,0.63,0.63,0.63,0.63,0.63,0.63,0.63,0.63,0.63,-0.6756,-0.6644,-0.6528,-0.6528,-0.6412,-0.63,-0.63,-0.63,-0.63,-0.63,-0.63,-0.63,-0.63,-0.63,-0.5944,-0.504,-0.496,-0.5315,-0.6257,-0.63,-0.63,-0.63,-0.63,-0.63,-0.63,-0.63,-0.63,-0.63,-0.63,-0.63,-0.63,-0.5354,-0.496,-0.4882,-0.3826,-0.3357,-0.3279,-0.227,-0.1841,-0.1762,-0.0862,-0.0381,-0.0255,-0.0255,-0.0141,0.0,0.0,0.0,0.0,0.0,0.0,0.0,0.0,0.0,0.0,0.0,-0.0202,-0.0404,-0.0404,-0.0303,-0.0168,-0.0034,-0.0101,-0.0168,-0.0034,0.0,-0.0034,-0.0168,-0.0202,-0.0236,-0.0404,-0.0404,-0.037,-0.0236,-0.0202,-0.0168,-0.0034,0.0,0.0,0.0,0.0,0.0,0.0,0.0,0.0,0.0,0.0,0.0,0.0,0.0,0.0,0.0,0.0,0.0979,0.3085,0.5237,0.63,0.63,0.63,0.63,0.63,0.63,0.63,0.63,0.63,0.63,0.63,0.63,0.63,0.63,0.63,0.63,0.63,0.63,0.63,0.63,-0.63,-0.63,-0.63,-0.63,-0.63,-0.63,-0.63,-0.63,-0.6103,-0.5512,-0.5431,-0.5237,-0.4647,-0.4569,-0.4373,-0.3865,-0.3826,-0.4062,-0.453,-0.4569,-0.4569,-0.4569,-0.4569,-0.4569,-0.4569,-0.4569,-0.4569,-0.4569,-0.4569,-0.4569,-0.4569,-0.4062,-0.3826,-0.3787,-0.2735,-0.2308,-0.2229,-0.1176,-0.0745,-0.0706,-0.0196,0.0,0.0,0.0,0.0,0.0,0.0,0.0,0.0,0.0,0.0,0.0,0.0,0.0,0.0,0.0,0.0,0.0,0.0,0.0,0.0,0.0,0.0,0.0,0.0,0.0,0.0,0.0,0.0,0.0,0.0,0.0,0.0,0.0,0.0,0.0,0.0,0.0,0.0,0.0,0.0,0.0,0.0,0.0,0.0,0.0,0.0,0.0,0.0,0.0,0.0,0.0,0.1096,0.2423,0.3943,0.5512,0.63,0.63,0.63,0.63,0.63,0.63,0.63,0.63,0.63,0.63,0.63,0.63,0.63,0.63,0.63,0.63,0.63,0.63,0.63,0.63,-0.63,-0.63,-0.63,-0.63,-0.63,-0.6222,-0.5983,-0.5944,-0.555,-0.4453,-0.4334,-0.4021,-0.3202,-0.3085,-0.3007,-0.2773,-0.2735,-0.2656,-0.2384,-0.2383,-0.2578,-0.3085,-0.3085,-0.3085,-0.3085,-0.3085,-0.3085,-0.3085,-0.3085,-0.3085,-0.3085,-0.2851,-0.2735,-0.2696,-0.1684,-0.1215,-0.1176,-0.0353,0.0,0.0,0.0,0.0,0.0,0.0,0.0,0.0,0.0,0.0,0.0,0.0,0.0,0.0,0.0,0.0,0.0,0.0,0.0,0.0,0.0,0.0,0.0,0.0,0.0,0.0,0.0,0.0,0.0,0.0,0.0,0.0,0.0,0.0,0.0,0.0,0.0,0.0,0.0,0.0,0.0,0.0,0.0,0.0,0.0,0.0,0.0,0.0,0.0,0.0,0.0,0.0,0.0235,0.0706,0.2267,0.3632,0.4686,0.5747,0.63,0.63,0.63,0.63,0.63,0.63,0.63,0.63,0.63,0.63,0.63,0.63,0.63,0.63,0.63,0.63,0.63,0.63,0.63,0.63,-0.63,-0.63,-0.63,-0.63,-0.63,-0.5983,-0.496,-0.4805,-0.4453,-0.3357,-0.3202,-0.3202,-0.3124,-0.3085,-0.2735,-0.1802,-0.1724,-0.1293,-0.0275,-0.0235,-0.1096,-0.3007,-0.3085,-0.3085,-0.3085,-0.3085,-0.3085,-0.3085,-0.3085,-0.3085,-0.3085,-0.2152,-0.1724,-0.1646,-0.0588,-0.0118,-0.0118,-0.0039,0.0,0.0,0.0,0.0,0.0,0.0,0.0,0.0,0.0,0.0,0.0,0.0,0.0,0.0,0.0,0.0,0.0,0.0,0.0,0.0,0.0,0.0,0.0,0.0,0.0,0.0,0.0,0.0,0.0,0.0,0.0,0.0,0.0,0.0,0.0,0.0,0.0,0.0,0.0,0.0,0.0,0.0,0.0,0.0,0.0,0.0,0.0,0.0,0.0,0.0,0.0,0.0,0.0901,0.2812,0.3007,0.3632,0.4686,0.5747,0.63,0.63,0.63,0.63,0.63,0.63,0.63,0.63,0.63,0.63,0.63,0.63,0.63,0.63,0.63,0.63,0.63,0.63,0.63,0.63,-0.4453,-0.4844,-0.5079,-0.4414,-0.4334,-0.4178,-0.3787,-0.3709,-0.332,-0.2308,-0.2151,-0.1918,-0.1253,-0.1175,-0.1019,-0.0628,-0.0588,-0.0432,-0.0039,0.0,-0.0353,-0.1135,-0.1175,-0.1175,-0.1175,-0.1175,-0.1175,-0.1175,-0.1175,-0.1175,-0.1175,-0.0784,-0.0588,-0.0588,-0.0196,0.0,0.0,0.0,0.0,0.0,0.0,0.0,0.0,0.0,0.0,0.0,0.0,0.0,0.0,0.0,0.0,0.0,0.0,0.0,0.0,0.0,0.0,0.0,0.0,0.0,0.0,0.0,0.0,0.0,0.0,0.0,0.0,0.0,0.0,0.0,0.0,0.0,0.0,0.0,0.0,0.0,0.0,0.0,0.0,0.0,0.0,0.0,0.0,0.0,0.0,0.0,0.0,0.0,0.0,0.0628,0.1957,0.4021,0.41,0.4608,0.567,0.6103,0.63,0.63,0.63,0.63,0.63,0.63,0.63,0.63,0.63,0.63,0.63,0.63,0.63,0.63,0.63,0.63,0.63,0.63,0.63,0.63,-0.324,-0.3709,-0.3984,-0.324,-0.3085,-0.3007,-0.2657,-0.2618,-0.2268,-0.1215,-0.1097,-0.0824,-0.0079,0.0,0.0,0.0,0.0,0.0,0.0,0.0,0.0,0.0,0.0,0.0,0.0,0.0,0.0,0.0,0.0,0.0,0.0,0.0,0.0,0.0,0.0,0.0,0.0,0.0,0.0,0.0,0.0,0.0,0.0,0.0,0.0,0.0,0.0,0.0,0.0,0.0,0.0,0.0034,0.0337,0.0605,0.084,0.084,0.084,0.084,0.084,0.084,0.0706,0.0135,0.0,0.0,0.0,0.0,0.0,0.0,0.0,0.0,0.0,0.0,0.0,0.0,0.0,0.0,0.0,0.0,0.0,0.0,0.0,0.0,0.0,0.0,0.0,0.0,0.0,0.0157,0.0471,0.1802,0.3244,0.4647,0.504,0.555,0.63,0.63,0.63,0.63,0.63,0.63,0.63,0.63,0.63,0.63,0.63,0.63,0.63,0.63,0.63,0.63,0.63,0.63,0.63,0.63,0.63,0.63,-0.3085,-0.3085,-0.3085,-0.3085,-0.3085,-0.2735,-0.1723,-0.1568,-0.1215,-0.0157,0.0,0.0,0.0,0.0,0.0,0.0,0.0,0.0,0.0,0.0,0.0,0.0,0.0,0.0,0.0,0.0,0.0,0.0,0.0,0.0,0.0,0.0,0.0,0.0,0.0,0.0,0.0,0.0,0.0,0.0,0.0,0.0,0.0,0.0,0.0,0.0,0.0,0.0,0.0,0.0,0.0034,0.0168,0.104,0.1941,0.2711,0.2711,0.2711,0.2711,0.2711,0.2711,0.2278,0.0471,0.0034,0.0034,0.0034,0.0034,0.0034,0.0034,0.0,0.0,0.0,0.0,0.0,0.0,0.0,0.0,0.0,0.0,0.0,0.0,0.0,0.0,0.0,0.0,0.0,0.0,0.0039,0.051,0.1568,0.3597,0.4688,0.4727,0.5747,0.63,0.63,0.63,0.63,0.63,0.63,0.63,0.63,0.63,0.63,0.63,0.63,0.63,0.63,0.63,0.63,0.63,0.63,0.63,0.63,0.63,0.63,0.63,-0.1058,-0.1527,-0.1801,-0.1058,-0.094,-0.0823,-0.051,-0.0471,-0.0353,-0.0039,0.0,0.0,0.0,0.0,0.0,0.0,0.0,0.0,0.0,0.0,0.0,0.0,0.0,0.0,0.0,0.0,0.0,0.0,0.0,0.0,0.0,0.0,0.0,0.0,0.0,0.0,0.0,0.0,0.0,0.0,0.0,0.0,0.0,0.0,0.0,0.0,0.0,0.0476,0.1114,0.1105,0.1544,0.2064,0.2224,0.2477,0.2711,0.2711,0.2711,0.2711,0.2711,0.2711,0.2577,0.2044,0.191,0.191,0.191,0.191,0.191,0.191,0.1375,0.0906,0.0906,0.0404,0.0,0.0,0.0,0.0,0.0,0.0,0.0,0.0,0.0,0.0,0.0,0.0,0.0314,0.1058,0.176,0.2657,0.3711,0.4375,0.504,0.5786,0.6141,0.63,0.63,0.63,0.63,0.63,0.63,0.63,0.63,0.63,0.63,0.63,0.63,0.63,0.63,0.63,0.63,0.63,0.63,0.63,0.63,0.63,0.63,0.63,-0.0118,-0.051,-0.0745,-0.0118,0.0,0.0,0.0,0.0,0.0,0.0,0.0,0.0,0.0,0.0,0.0,0.0,0.0,0.0,0.0,0.0,0.0,0.0,0.0,0.0,0.0,0.0,0.0,0.0,0.0,0.0,0.0,0.0,0.0,0.0,0.0,0.0,0.0,0.0,0.0235,0.0628,0.0628,0.0862,0.1214,0.1214,0.1241,0.1224,0.1213,0.1645,0.221,0.2188,0.2802,0.353,0.344,0.3662,0.3939,0.3939,0.3939,0.3939,0.3939,0.3876,0.3845,0.3845,0.3274,0.2711,0.2711,0.2711,0.2711,0.2711,0.2242,0.1842,0.1842,0.1455,0.1162,0.1162,0.1188,0.1214,0.1227,0.1224,0.1213,0.1224,0.1242,0.1214,0.1214,0.1214,0.1488,0.2151,0.3164,0.4021,0.4647,0.5118,0.5628,0.63,0.63,0.63,0.63,0.63,0.63,0.63,0.63,0.63,0.63,0.63,0.63,0.63,0.63,0.63,0.63,0.63,0.63,0.63,0.63,0.63,0.63,0.63,0.63,0.63,0.0,0.0,0.0,0.0,0.0,0.0,0.0,0.0,0.0,0.0,0.0,0.0,0.0,0.0,0.0,0.0,0.0,0.0,0.0,0.0,0.0,0.0,0.0,0.0,0.0,0.0,0.0,0.0,0.0,0.0,0.0,0.0,0.0,0.0,0.0,0.0039,0.0157,0.0157,0.0745,0.1723,0.1723,0.2268,0.3085,0.3085,0.3085,0.3115,0.3088,0.3179,0.3242,0.3345,0.393,0.4615,0.4604,0.5147,0.58,0.58,0.58,0.58,0.58,0.5708,0.561,0.561,0.4296,0.2963,0.2948,0.295,0.2956,0.2956,0.2894,0.2864,0.2864,0.2892,0.2907,0.2907,0.301,0.3086,0.3085,0.31,0.309,0.3115,0.3085,0.3085,0.3085,0.3202,0.324,0.324,0.4256,0.4844,0.4844,0.5786,0.63,0.63,0.63,0.63,0.63,0.63,0.63,0.63,0.63,0.63,0.63,0.63,0.63,0.63,0.63,0.63,0.63,0.63,0.63,0.63,0.63,0.63,0.63,0.63,0.63,0.63,0.0,0.0,0.0,0.0,0.0,0.0,0.0,0.0,0.0,0.0,0.0,0.0,0.0,0.0,0.0,0.0,0.0,0.0,0.0,0.0,0.0,0.0,0.0,0.0,0.0,0.0,0.0,0.0,0.0,0.0,0.0,0.0,0.0,0.0,0.0,0.0471,0.1254,0.1254,0.184,0.2773,0.2773,0.289,0.3085,0.3085,0.3085,0.3083,0.3107,0.3645,0.4443,0.5124,0.5492,0.5661,0.5545,0.5656,0.58,0.58,0.58,0.58,0.58,0.5779,0.5755,0.5755,0.5441,0.5078,0.4867,0.4904,0.4983,0.4983,0.4499,0.4096,0.4096,0.3547,0.3062,0.3062,0.3092,0.3112,0.3092,0.3104,0.3107,0.3083,0.3085,0.3085,0.3085,0.3865,0.4334,0.4334,0.5354,0.5944,0.5944,0.618,0.63,0.63,0.63,0.63,0.63,0.63,0.63,0.63,0.63,0.63,0.63,0.63,0.63,0.63,0.63,0.63,0.63,0.63,0.63,0.63,0.63,0.63,0.63,0.63,0.63,0.63,0.0,0.0,0.0,0.0,0.0,0.0,0.0,0.0,0.0,0.0,0.0,0.0,0.0,0.0,0.0,0.0,0.0,0.0,0.0,0.0,0.0,0.0,0.0,0.0,0.0,0.0,0.0,0.0,0.0,0.0,0.0,0.0,0.0275,0.0745,0.0745,0.1332,0.2308,0.2308,0.293,0.3865,0.3865,0.4178,0.4608,0.4608,0.4608,0.4608,0.4608,0.5002,0.5541,0.5975,0.6139,0.6125,0.6044,0.602,0.602,0.602,0.602,0.602,0.602,0.5966,0.5911,0.5911,0.5857,0.5762,0.5606,0.5633,0.5691,0.5691,0.539,0.5108,0.5108,0.4762,0.4473,0.4473,0.4568,0.4645,0.4645,0.4614,0.4608,0.4608,0.4608,0.4608,0.4608,0.5118,0.5473,0.5473,0.5983,0.63,0.63,0.63,0.63,0.63,0.63,0.63,0.63,0.63,0.63,0.63,0.63,0.63,0.63,0.63,0.63,0.63,0.63,0.63,0.63,0.63,0.63,0.63,0.63,0.63,0.63,0.63,0.63,0.63,0.0,0.0,0.0,0.0,0.0,0.0,0.0,0.0,0.0,0.0,0.0,0.0,0.0,0.0,0.0,0.0,0.0,0.0,0.0,0.0,0.0,0.0,0.0,0.0,0.0,0.0,0.0,0.0,0.0,0.0079,0.0275,0.0275,0.0824,0.1841,0.1841,0.2425,0.3357,0.3357,0.3982,0.496,0.496,0.5512,0.63,0.63,0.63,0.63,0.63,0.63,0.63,0.63,0.63,0.63,0.63,0.63,0.63,0.63,0.63,0.63,0.63,0.6166,0.6067,0.6067,0.5973,0.5878,0.5878,0.5861,0.584,0.584,0.5861,0.5878,0.5878,0.5983,0.6067,0.6067,0.6176,0.63,0.63,0.63,0.63,0.63,0.63,0.63,0.63,0.63,0.63,0.63,0.63,0.63,0.63,0.63,0.63,0.63,0.63,0.63,0.63,0.63,0.63,0.63,0.63,0.63,0.63,0.63,0.63,0.63,0.63,0.63,0.63,0.63,0.63,0.63,0.63,0.63,0.63,0.63,0.63,0.63,0.0,0.0,0.0,0.0,0.0,0.0,0.0,0.0,0.0,0.0,0.0,0.0,0.0,0.0,0.0,0.0,0.0,0.0,0.0,0.0,0.0,0.0,0.0,0.0,0.0,0.0,0.0,0.0,0.0,0.0471,0.1372,0.1372,0.1918,0.289,0.289,0.3476,0.4491,0.4491,0.5118,0.6103,0.6103,0.618,0.63,0.63,0.63,0.63,0.63,0.63,0.63,0.63,0.63,0.63,0.63,0.63,0.63,0.63,0.63,0.63,0.63,0.6282,0.6269,0.6269,0.6252,0.6238,0.6238,0.6095,0.5959,0.5959,0.6105,0.6238,0.6238,0.6252,0.6269,0.6269,0.6286,0.63,0.63,0.63,0.63,0.63,0.63,0.63,0.63,0.63,0.63,0.63,0.63,0.63,0.63,0.63,0.63,0.63,0.63,0.63,0.63,0.63,0.63,0.63,0.63,0.63,0.63,0.63,0.63,0.63,0.63,0.63,0.63,0.63,0.63,0.63,0.63,0.63,0.63,0.63,0.63,0.63,0.0,0.0,0.0,0.0,0.0,0.0,0.0,0.0,0.0,0.0,0.0,0.0,0.0,0.0,0.0,0.0,0.0,0.0,0.0,0.0,0.0,0.0,0.0,0.0275,0.0863,0.0902,0.1176,0.1721,0.1176,0.1137,0.1607,0.219,0.3008,0.3982,0.3982,0.4608,0.5589,0.5589,0.5867,0.63,0.63,0.63,0.63,0.63,0.63,0.63,0.63,0.63,0.63,0.63,0.63,0.63,0.63,0.63,0.63,0.63,0.63,0.63,0.63,0.63,0.63,0.63,0.63,0.63,0.63,0.6245,0.6159,0.6159,0.6252,0.63,0.63,0.63,0.63,0.63,0.63,0.63,0.63,0.63,0.63,0.63,0.63,0.63,0.63,0.63,0.63,0.63,0.63,0.63,0.63,0.63,0.63,0.63,0.63,0.63,0.63,0.63,0.63,0.63,0.63,0.63,0.63,0.63,0.63,0.63,0.63,0.63,0.63,0.63,0.63,0.63,0.63,0.63,0.63,0.63,0.63,0.63]},{"header":{"parameterUnit":"m.s-1","parameterCategory":1,"la1":30.6,"la2":28.766,"lo1":-90.7593,"lo2":-88.6598,"dy":0.0162,"dx":0.0183,"nx":116,"ny":114,"refTime":"2023-07-24T12:00:00:Z","depth":0,"parameterNumber":3,"parameterNumberName":"V-component_of_WINDS"},"data":[0.0,0.0,0.0,0.0,0.0,0.0,0.0,0.0,0.0,0.0,0.0,0.0,0.0,0.0,0.0,0.0,0.0,0.0,0.0,0.0,0.0,0.0,0.0,0.0,0.0,0.0,0.0,0.0,0.0,0.0,0.0,0.0,0.0,0.0,0.0,0.0,0.0,0.0,0.0,0.0,0.0,0.0,0.0,0.0,0.0,0.0,0.0,0.0,0.0,0.0,0.0,0.0,0.0,0.0,0.0,0.0,0.0,0.0,0.0,0.0,0.0,0.0,0.0,0.0,0.0,0.0,0.0,0.0,0.0,0.0,0.0,0.0,0.0,0.0,0.0,0.0,0.0,0.0,0.0,0.0,0.0,0.0,0.0,0.0,0.0,0.0,0.0,0.0,0.0,0.0,0.0,0.0,0.0,0.0,0.0,0.0,0.0,0.0,0.0,0.0,0.0,0.0,0.0,0.0,0.0,0.0,0.0,0.0,0.0,0.0,0.0,0.0,0.0,0.0,0.0,0.0,0.0,0.0,0.0,0.0,0.0,0.0,0.0,0.0,0.0,0.0,0.0,0.0,0.0,0.0,0.0,0.0,0.0,0.0,0.0,0.0,0.0,0.0,0.0,0.0,0.0,0.0,0.0,0.0,0.0,0.0,0.0,0.0,0.0,0.0,0.0,0.0,0.0,0.0,0.0,0.0,0.0,0.0,0.0,0.0,0.0,0.0,0.0,0.0,0.0,0.0,0.0,0.0,0.0,0.0,0.0,0.0,0.0,0.0,0.0,0.0,0.0,0.0,0.0,0.0,0.0,0.0,0.0,0.0,0.0,0.0,0.0,0.0,0.0,0.0,0.0,0.0,0.0,0.0,0.0,0.0,0.0,0.0,0.0,0.0,0.0,0.0,0.0,0.0,0.0,0.0,0.0,0.0,0.0,0.0,0.0,0.0,0.0,0.0,0.0,0.0,0.0,0.0,0.0,0.0,0.0,0.0,0.0,0.0,0.0,0.0,0.0,0.0,0.0,0.0,0.0,0.0,0.0,0.0,0.0,0.0,0.0,0.0,0.0,0.0,0.0,0.0,0.0,0.0,0.0,0.0,0.0,0.0,0.0,0.0,0.0,0.0,0.0,0.0,0.0,0.0,0.0,0.0,0.0,0.0,0.0,0.0,0.0,0.0,0.0,0.0,0.0,0.0,0.0,0.0,0.0,0.0,0.0,0.0,0.0,0.0,0.0,0.0,0.0,0.0,0.0,0.0,0.0,0.0,0.0,0.0,0.0,0.0,0.0,0.0,0.0,0.0,0.0,0.0,0.0,0.0,0.0,0.0,0.0,0.0,0.0,0.0,0.0,0.0,0.0,0.0,0.0,0.0,0.0,0.0,0.0,0.0,0.0,0.0,0.0,0.0,0.0,0.0,0.0,0.0,0.0,0.0,0.0,0.0,0.0,0.0,0.0,0.0,0.0,0.0,0.0,0.0,0.0,0.0,0.0,0.0,0.0,0.0,0.0,0.0,0.0,0.0,0.0,0.0,0.0,0.0,0.0,0.0,0.0,0.0,0.0,0.0,0.0,0.0,0.0,0.0,0.0,0.0,0.0,0.0,0.0,0.0,0.0,0.0,0.0,0.0,0.0,0.0,0.0,0.0,0.0,0.0,0.0,0.0,0.0,0.0,0.0,0.0,0.0,0.0,0.0,0.0,0.0,0.0,0.0,0.0,0.0,0.0,0.0,0.0,0.0,0.0,0.0,0.0,0.0,0.0,0.0,0.0,0.0,0.0,0.0,0.0,0.0,0.0,0.0,0.0,0.0,0.0,0.0,0.0,0.0,0.0,0.0,0.0,0.0,0.0,0.0,0.0,0.0,0.0,0.0,0.0,0.0,0.0,0.0,0.0,0.0,0.0,0.0,0.0,0.0,0.0,0.0,0.0,0.0,0.0,0.0,0.0,0.0,0.0,0.0,0.0,0.0,0.0,0.0,0.0,0.0,0.0,0.0,0.0,0.0,0.0,0.0,0.0,0.0,0.0,0.0,0.0,0.0,0.0,0.0,0.0,0.0,0.0,0.0,0.0,0.0,0.0,0.0,0.0,0.0,0.0,0.0,0.0,0.0,0.0,0.0,0.0,0.0,0.0,0.0,0.0,0.0,0.0,0.0,0.0,0.0,0.0,0.0,0.0,0.0,0.0,0.0,0.0,0.0,0.0,0.0,0.0,0.0,0.0,0.0,0.0,0.0,0.0,0.0,0.0,0.0,0.0,0.0,0.0,0.0,0.0,0.0,0.0,0.0,0.0,0.0,0.0,0.0,0.0,0.0,0.0,0.0,0.0,0.0,0.0,0.0,0.0,0.0,0.0,0.0,0.0,0.0,0.0,0.0,0.0,0.0,0.0,0.0,0.0,0.0,0.0,0.0,0.0,0.0,0.0,0.0,0.0,0.0,0.0,0.0,0.0,0.0,0.0,0.0,0.0,0.0,0.0,0.0,0.0,0.0,0.0,0.0,0.0,0.0,0.0,0.0,0.0,0.0,0.0,0.0,0.0,0.0,0.0,0.0,0.0,0.0,0.0,0.0,0.0,0.0,0.0,0.0,0.0,0.0,0.0,0.0,0.0,0.0,0.0,0.0,0.0,0.0,0.0,0.0,0.0,0.0,0.0,0.0,0.0,0.0,0.0,0.0,0.0,0.0,0.0,0.0,0.0,0.0,0.0,0.0,0.0,0.0,0.0,0.0,0.0,0.0,0.0,0.0,0.0,0.0,0.0,0.0,0.0,0.0,0.0,0.0,0.0,0.0,0.0,0.0,0.0,0.0,0.0,0.0,0.0,0.0,0.0,0.0,0.0,0.0,0.0,0.0,0.0,0.0,0.0,0.0,0.0,0.0,0.0,0.0,0.0,0.0,0.0,0.0,0.0,0.0,0.0,0.0,0.0,0.0,0.0,0.0,0.0,0.0,0.0,0.0,0.0,0.0,0.0,0.0,0.0,0.0,0.0,0.0,0.0,0.0,0.0,0.0,0.0,0.0,0.0,0.0,0.0,0.0,0.0,0.0,0.0,0.0,0.0,0.0,0.0,0.0,0.0,0.0,0.0,0.0,0.0,0.0,0.0,0.0,0.0,0.0,0.0,0.0,0.0,0.0,0.0,0.0,0.0,0.0,0.0,0.0,0.0,0.0,0.0,0.0,0.0,0.0,0.0,0.0,0.0,0.0,0.0,0.0,0.0,0.0,0.0,0.0,0.0,0.0,0.0,0.0,0.0,0.0,0.0,0.0,0.0,0.0,0.0,0.0,0.0,0.0,0.0,0.0,0.0,0.0,0.0,0.0,0.0,0.0,0.0,0.0,0.0,0.0,0.0,0.0,0.0,0.0,0.0,0.0,0.0,0.0,0.0,0.0,0.0,0.0,0.0,0.0,0.0,0.0,0.0,0.0,0.0,0.0,0.0,0.0,0.0,0.0,0.0,0.0,0.0,0.0,0.0,0.0,0.0,0.0,0.0,0.0,0.0,0.0,0.0,0.0,0.0,0.0,0.0,0.0,0.0,0.0,0.0,0.0,0.0,0.0,0.0,0.0,0.0,0.0,0.0,0.0,0.0,0.0,0.0,0.0,0.0,0.0,0.0,0.0,0.0,0.0,0.0,0.0,0.0,0.0,0.0,0.0,0.0,0.0,0.0,0.0,0.0,0.0,0.0,0.0,0.0,0.0,0.0,0.0,0.0,0.0,0.0,0.0,0.0,0.0,0.0,0.0,0.0,0.0,0.0,0.0,0.0,0.0,0.0,0.0,0.0,0.0,0.0,0.0,0.0,0.0,0.0,0.0,0.0,0.0,0.0,0.0,0.0,0.0,0.0,0.0,0.0,0.0,0.0,0.0,0.0,0.0,0.0,0.0,0.0,0.0,0.0,0.0,0.0,0.0,0.0,0.0,0.0,0.0,0.0,0.0,0.0,0.0,0.0,0.0,0.0,0.0,0.0,0.0,0.0,0.0,0.0,0.0,0.0,0.0,0.0,0.0,0.0,0.0,0.0,0.0,0.0,0.0,0.0,0.0,0.0,0.0,0.0,0.0,0.0,0.0,0.0,0.0,0.0,0.0,0.0,0.0,0.0,0.0,0.0,0.0,0.0,0.0,0.0,0.0,0.0,0.0,0.0,0.0,0.0,0.0,0.0,0.0,0.0,0.0,0.0,0.0,0.0,0.0,0.0,0.0,0.0,0.0,0.0,0.0,0.0,0.0,0.0,0.0,0.0,0.0,0.0,0.0,0.0,0.0,0.0,0.0,0.0,0.0,0.0,0.0,0.0,0.0,0.0,0.0,0.0,0.0,0.0,0.0,0.0,0.0,0.0,0.0,0.0,0.0,0.0,0.0,0.0,0.0,0.0,0.0,0.0,0.0,0.0,0.0,0.0,0.0,0.0,0.0,0.0,0.0,0.0,0.0,0.0,0.0,0.0,0.0,0.0,0.0,0.0,0.0,0.0,0.0,0.0,0.0,0.0,0.0,0.0,0.0,0.0,0.0,0.0,0.0,0.0,0.0,0.0,0.0,0.0,0.0,0.0,0.0,0.0,0.0,0.0,0.0,0.0,0.0,0.0,0.0,0.0,0.0,0.0,0.0,0.0,0.0,0.0,0.0,0.0,0.0,0.0,0.0,0.0,0.0,0.0,0.0,0.0,0.0,0.0,0.0,0.0,0.0,0.0,0.0,0.0,0.0,0.0,0.0,0.0,0.0,0.0,0.0,0.0,0.0,0.0,0.0,0.0,0.0,0.0,0.0,0.0,0.0,0.0,0.0,0.0,0.0,0.0,0.0,0.0,0.0,0.0,0.0,0.0,0.0,0.0,0.0,0.0,0.0,0.0,0.0,0.0,0.0,0.0,0.0,0.0,0.0,0.0,0.0,0.0,0.0,0.0,0.0,0.0,0.0,0.0,0.0,0.0,0.0,0.0,0.0,0.0,0.0,0.0,0.0,0.0,0.0,0.0,0.0,0.0,0.0,0.0,0.0,0.0,0.0,0.0,0.0,0.0,0.0,0.0,0.0,0.0,0.0,0.0,0.0,0.0,0.0,0.0,0.0,0.0,0.0,0.0,0.0,0.0,0.0,0.0,0.0,0.0,0.0,0.0,0.0,0.0,0.0,0.0,0.0,0.0,0.0,0.0,0.0,0.0,0.0,0.0,0.0,0.0,0.0,0.0,0.0,0.0,0.0,0.0,0.0,0.0,0.0,0.0,0.0,0.0,0.0,0.0,0.0,0.0,0.0,0.0,0.0,0.0,0.0,0.0,0.0,0.0,0.0,0.0,0.0,0.0,0.0,0.0,0.0,0.0,0.0,0.0,0.0,0.0,0.0,0.0,0.0,0.0,0.0,0.0,0.0,0.0,0.0,0.0,0.0,0.0,0.0,0.0,0.0,0.0,0.0,0.0,0.0,0.0,0.0,0.0,0.0,0.0,0.0,0.0,0.0,0.0,0.0,0.0,0.0,0.0,0.0,0.0,0.0,0.0,0.0,0.0,0.0,0.0,0.0,0.0,0.0,0.0,0.0,0.0,0.0,0.0,0.0,0.0,0.0,0.0,0.0,0.0,0.0,0.0,0.0,0.0,0.0,0.0,0.0,0.0,0.0,0.0,0.0,0.0,0.0,0.0,0.0,0.0,0.0,0.0,0.0,0.0,0.0,0.0,0.0,0.0,0.0,0.0,0.0,0.0,0.0,0.0,0.0,0.0,0.0,0.0,0.0,0.0,0.0,0.0,0.0,0.0,0.0,0.0,0.0,0.0,0.0,0.0,0.0,0.0,0.0,0.0,0.0,0.0,0.0,0.0,0.0,0.0,0.0,0.0,0.0,0.0,0.0,0.0,0.0,0.0,0.0,0.0,0.0,0.0,0.0,0.0,0.0,0.0,0.0,0.0,0.0,0.0,0.0,0.0,0.0,0.0,0.0,0.0,0.0,0.0,0.0,0.0,0.0,0.0,0.0,0.0,0.0,0.0,0.0,0.0,0.0,0.0,0.0,0.0,0.0,0.0,0.0,0.0,0.0,0.0,0.0,0.0,0.0,0.0,0.0,0.0,0.0,0.0,0.0,0.0,0.0,0.0,0.0,0.0,0.0,0.0,0.9927,0.0,0.0,0.0,0.0,0.0,0.0,0.0,0.0,0.0,0.0,0.0,0.0,0.0,0.0,0.0,0.0,0.0,0.0,0.0,0.0,0.0,0.0,0.0,0.0,0.0,0.0,0.0,0.0,0.0,0.0,0.0,0.0,0.0,0.0,0.0,0.0,0.0,0.0,0.0,0.0,0.0,0.0,0.0,0.0,0.0,0.0,0.0,0.0,0.0,0.0,0.0,0.0,0.0,0.0,0.0,0.0,0.0,0.0,0.0,0.0,0.0,0.0,0.0,0.0,0.0,0.0,0.0,0.0,0.0,0.0,0.0,0.0,0.0,0.0,0.0,0.0,0.0,0.0,0.0,0.0,0.0,0.0,0.0,0.0,0.0,0.0,0.0,0.0,0.0,0.0,0.0,0.0,0.0,0.0,0.0,0.0,0.0,0.0,0.0,0.0,0.0,0.0,0.0,0.0,0.0,0.0,0.0,0.0,0.0,0.0,0.0,0.0,0.0,0.0,0.0,0.0,1.0009,0.0,0.0,0.0,0.0,0.0,0.0,0.0,0.0,0.0,0.0,0.0,0.0,0.0,0.0,0.0,0.0,0.0,0.0,0.0,0.0,0.0,0.0,0.0,0.0,0.0,0.0,0.0,0.0,0.0,0.0,0.0,0.0,0.0,0.0,0.0,0.0,0.0,0.0,0.0,0.0,0.0,0.0,0.0,0.0,0.0,0.0,0.0,0.0,0.0,0.0,0.0,0.0,0.0,0.0,0.0,0.0,0.0,0.0,0.0,0.0,0.0,0.0,0.0,0.0,0.0,0.0,0.0,0.0,0.0,0.0,0.0,0.0,0.0,0.0,0.0,0.0,0.0,0.0,0.0,0.0,0.0,0.0,0.0,0.0,0.0,0.0,0.0,0.0,0.0,0.0,0.0,0.0,0.0,0.0,0.0,0.0,0.0,0.0,0.0,0.0,0.0,0.0,0.0,0.0,0.0,0.0,0.0,0.0,1.1558,1.1214,1.1214,1.1214,1.1729,1.2547,1.1601,1.1601,1.2157,1.0053,0.0,0.0,0.0,0.0,0.0,0.0,0.0,0.0,0.0,0.0,0.0,0.0,0.0,0.0,0.0,0.0,0.0,0.0,0.0,0.0,0.0,0.0,0.0,0.0,0.0,0.0,0.0,0.0,0.0,0.0,0.0,0.0,0.0,0.0,0.0,0.0,0.0,0.0,1.6217,1.5255,1.3729,1.171,0.9011,0.0,0.0,0.0,0.0,0.0,0.0,0.0,0.0,0.0,0.0,0.0,0.0,0.0,0.0,0.0,0.0,0.0,0.0,0.0,0.0,0.0,0.0,0.0,0.0,0.0,0.0,0.0,0.0,0.0,0.0,0.0,0.0,0.0,0.0,0.0,0.0,0.0,0.0,0.0,0.0,0.0,0.0,0.0,2.1517,2.0712,0.0,0.0,0.0,0.0,0.0,0.0,0.0,0.0,0.0,0.0,0.0,0.0,0.0,1.3603,1.2547,1.3421,1.3336,1.2328,1.3209,1.3652,1.3652,1.3652,1.3737,1.3864,1.3695,0.0,1.22,1.0913,0.0,0.0,0.0,0.0,0.0,0.0,0.0,0.0,0.0,0.0,0.0,0.0,0.0,0.0,0.0,0.0,0.0,0.0,0.0,0.0,0.0,0.0,0.0,0.0,0.0,0.0,0.0,0.0,0.0,0.0,0.0,0.0,0.0,0.0,0.0,0.0,2.0231,1.9348,1.8006,1.7142,1.5712,1.3765,1.1335,0.9346,0.7625,0.5068,0.0,0.0,0.0,0.0,0.0,0.0,0.0,0.0,0.0,0.0,0.0,0.0,0.0,0.0,0.0,0.0,0.0,0.0,0.0,0.0,0.0,0.0,0.0,0.0,0.0,0.0,0.0,0.0,0.0,0.0,0.0,0.0,0.0,0.0,0.0,0.0,0.0,0.0,0.0,2.1221,2.1039,2.0644,2.0605,2.0401,0.0,0.0,0.0,0.0,0.0,0.0,0.0,0.0,0.0,1.5019,1.4412,1.3864,1.3336,1.3822,1.3822,1.3336,1.3864,1.4088,1.4082,1.3915,1.3841,1.3828,1.3667,1.3295,1.271,1.1723,1.06,0.9359,0.0,0.0,0.0,0.0,0.6586,0.6501,0.0,0.0,0.0,0.0,0.0,0.0,0.0,0.0,0.0,0.0,0.0,0.0,0.0,0.0,0.0,2.9848,0.0,0.0,0.0,0.0,0.0,0.0,0.0,0.0,0.0,0.0,0.0,2.2891,2.2498,2.1599,2.0224,1.9052,1.7571,1.5799,1.3784,1.1126,0.8046,0.5957,0.3107,0.0,0.0,0.0,0.0,0.0,0.0,0.0,0.0,0.0,0.0,0.0,0.0,0.0,0.0,0.0,0.0,0.0,0.0,0.0,0.0,0.0,0.0,0.0,0.0,0.0,0.0,0.0,0.0,0.0,0.0,0.0,0.0,0.0,0.0,0.0,0.0,0.0,0.0,2.0828,2.0857,2.0644,2.0605,2.0605,0.0,0.0,0.0,0.0,0.0,0.0,1.7302,1.656,1.5985,1.5703,1.4936,1.437,1.4088,1.4015,1.3975,1.3975,1.3895,1.3861,1.3854,1.3593,1.3493,1.348,1.3307,1.3166,1.3034,1.2158,1.12,1.0186,0.8774,0.7734,0.7033,0.6911,0.6842,0.6835,0.0,0.0,0.0,0.0,0.0,0.0,0.0,0.0,0.0,0.0,0.0,0.0,0.0,0.0,3.1331,3.068,3.0661,3.0459,0.0,0.0,0.0,0.0,0.0,0.0,0.0,0.0,0.0,2.6069,2.4663,2.3586,2.2777,2.1024,1.9329,1.7683,1.5661,1.269,0.9107,0.7019,0.3752,-0.0077,0.0,0.0,0.0,0.0,0.0,0.0,0.0,0.0,0.0,0.0,0.0,0.0,0.0,0.0,0.0,0.0,0.0,0.0,0.0,0.0,0.0,0.0,0.0,0.0,0.0,0.0,0.0,0.0,0.0,0.0,0.0,0.0,0.0,0.0,0.0,0.0,0.0,0.0,0.0,2.0712,2.0605,0.0,0.0,0.0,0.0,1.8997,1.7948,1.7302,1.7302,1.7253,1.6764,1.5745,1.5662,1.5137,1.413,1.3766,1.3626,1.362,1.3387,1.3253,1.3253,1.324,1.3233,1.3233,1.322,1.3046,1.2747,1.1879,1.1496,1.1204,0.9059,0.8097,0.7938,0.793,0.7861,0.7718,0.0,0.0,0.0,0.0,0.0,0.0,0.0,0.0,0.0,0.0,0.0,0.0,0.0,3.2686,3.2697,3.1917,3.2122,3.2123,3.1633,0.0,0.0,0.0,0.0,0.0,0.0,0.0,2.8319,2.7603,2.667,2.5571,2.4246,2.324,2.1556,1.9383,1.8111,1.5816,1.2683,0.9484,0.5768,0.1851,0.0116,-0.2448,0.0,0.0,0.0,0.0,0.0,0.0,0.0,0.0,0.0,0.0,0.0,0.0,0.0,0.0,0.0,0.0,0.0,0.0,0.0,0.0,0.0,0.0,0.0,0.0,0.0,0.0,0.0,0.0,0.0,0.0,0.0,0.0,0.0,0.0,0.0,0.0,0.0,2.0712,2.0605,0.0,2.0605,2.0245,2.004,2.004,1.9638,1.9273,1.8976,1.8335,1.7627,1.6999,1.6273,1.5417,1.4412,1.4298,1.3938,1.332,1.326,1.3213,1.32,1.3006,1.2951,1.2938,1.2712,1.2559,1.2465,1.215,1.1644,1.0983,1.017,0.943,0.8836,0.8836,0.8789,0.8765,0.0,0.0,0.0,0.0,0.0,0.0,0.0,0.0,0.0,0.0,0.0,3.3328,3.3109,3.3588,3.3742,3.3291,3.3413,3.3346,3.2893,0.0,0.0,0.0,0.0,0.0,0.0,3.0543,3.0166,2.9394,2.8652,2.7604,2.6298,2.5767,2.4222,2.1862,2.1008,1.918,1.6514,1.3085,0.8709,0.3944,0.1887,-0.0852,-0.3781,0.0,0.0,0.0,0.0,0.0,0.0,0.0,0.0,0.0,0.0,0.0,0.0,0.0,0.0,0.0,0.0,0.0,0.0,0.0,0.0,0.0,0.0,0.0,0.0,0.0,0.0,0.0,0.0,0.0,0.0,0.0,0.0,0.0,0.0,2.2113,2.2301,2.1631,2.1176,2.0867,2.0867,2.0434,2.0175,2.0175,2.0175,2.0048,1.9717,1.9014,1.8357,1.7719,1.6971,1.6084,1.5096,1.4689,1.4298,1.3997,1.3558,1.3355,1.3387,1.3542,1.3404,1.3105,1.2859,1.2952,1.323,1.2556,1.21,1.1712,1.1044,1.0378,0.982,0.982,0.982,0.982,0.0,0.0,0.0,0.0,0.0,0.0,0.0,0.0,0.0,0.0,3.3578,3.3915,3.4195,3.4211,3.4345,3.4674,3.4401,3.4043,3.3653,3.3389,0.0,0.0,0.0,0.0,3.169,3.1672,3.1672,3.1654,3.0586,2.9699,2.8992,2.8559,2.722,2.5105,2.4362,2.272,2.0315,1.7703,1.2678,0.6312,0.4094,0.135,-0.1514,0.0,0.0,0.0,0.0,0.0,0.0,0.0,0.0,0.0,0.0,0.0,0.0,0.0,0.0,0.0,0.0,0.0,0.0,0.0,0.0,0.0,0.0,0.0,0.0,0.0,0.0,0.0,0.0,0.0,0.0,0.0,0.0,0.0,2.3624,2.3503,2.3503,2.3492,2.2269,2.1408,2.1408,2.0161,1.936,1.936,1.9323,1.9277,1.9268,1.9268,1.881,1.7748,1.7711,1.7162,1.6043,1.4856,1.4739,1.5565,1.4325,1.3745,1.3781,1.4772,1.4665,1.3745,1.3745,1.4314,1.5057,1.3164,1.2915,1.3557,1.1601,1.0864,1.0864,1.0864,1.0864,1.082,0.0,0.0,0.0,0.0,0.0,0.0,0.0,0.0,0.0,0.0,3.4025,3.4206,3.4529,3.4561,3.4593,3.4684,3.4622,3.4529,3.4397,0.0,0.0,0.0,0.0,0.0,3.3345,3.3345,3.3173,3.2832,3.1889,3.1358,3.1129,3.0384,2.944,2.83,2.7163,2.5962,2.4604,2.1844,1.8815,1.5265,0.8157,0.4308,0.2719,0.0,0.0,0.0,0.0,0.0,0.0,0.0,0.0,0.0,0.0,0.0,0.0,0.0,0.0,0.0,0.0,0.0,0.0,0.0,0.0,0.0,0.0,0.0,0.0,0.0,0.0,0.0,0.0,0.0,0.0,0.0,2.5259,2.4969,2.3688,2.3798,2.3757,2.3024,2.2234,2.1761,2.1761,2.0853,2.0221,2.0221,1.9667,1.915,1.8792,1.8783,1.8531,1.7942,1.7932,1.7448,1.6457,1.6103,1.5732,1.5312,1.4963,1.4772,1.4807,1.5057,1.5057,1.4772,1.4772,1.495,1.5163,1.4629,1.4557,1.4593,1.2645,1.1885,1.1885,1.1885,1.1885,1.1768,0.0,0.0,0.0,0.0,0.0,0.0,0.0,0.0,0.0,0.0,3.42,3.436,3.4813,3.4879,3.4917,3.5035,3.4935,3.4879,3.4879,0.0,0.0,0.0,0.0,3.4377,3.4377,3.4377,3.423,3.3934,3.3226,3.2866,3.2824,3.2117,3.1428,3.0726,2.9683,2.8801,2.7982,2.5664,2.3844,2.1996,1.595,1.1361,0.797,0.6353,0.6079,0.6737,0.7774,0.8541,0.9291,1.0652,0.0,0.0,0.0,0.0,0.0,0.0,0.0,0.0,0.0,0.0,0.0,0.0,0.0,0.0,0.0,0.0,0.0,0.0,0.0,0.0,0.0,0.0,0.0,0.0,2.5923,2.5428,2.4631,2.4474,2.4215,2.3648,2.2762,2.2227,2.2227,2.1251,2.0599,2.0599,2.0131,1.9717,1.9448,1.9097,1.8791,1.8539,1.8202,1.7759,1.7182,1.6819,1.6532,1.6376,1.5974,1.5799,1.579,1.6193,1.6158,0.0,1.5799,1.6009,1.6298,1.5517,1.5438,0.0,0.0,0.0,0.0,0.0,1.2879,1.2732,0.0,0.0,0.0,0.0,0.0,0.0,0.0,0.0,0.0,0.0,0.0,3.4524,3.5092,3.516,3.5258,3.5509,3.5299,3.5173,0.0,0.0,0.0,3.4995,3.4982,3.4982,3.4982,3.4982,3.4967,3.4894,3.4448,3.4205,3.4142,3.3682,3.3184,3.263,3.191,3.1306,3.0707,2.9161,2.7972,2.6984,2.5238,2.0437,1.4189,1.3124,1.2785,1.306,1.3852,1.416,1.4327,1.5437,0.0,0.0,0.0,0.0,0.0,0.0,0.0,0.0,0.0,0.0,0.0,0.0,0.0,0.0,0.0,0.0,0.0,0.0,0.0,0.0,0.0,0.0,0.0,0.0,2.6351,2.5911,2.5845,2.5265,2.4836,2.472,2.3558,2.2739,2.2739,2.1525,2.0751,2.0751,2.0655,2.059,2.059,0.0,0.0,0.0,0.0,1.8303,1.8303,1.7472,1.7438,1.8134,1.7301,1.6844,1.6784,1.7613,1.7535,1.674,1.674,1.7217,1.7872,1.6193,1.6009,1.6636,1.5623,1.5199,1.5092,1.4063,1.3709,1.3564,0.0,0.0,0.0,0.0,0.0,0.0,0.0,0.0,0.0,3.4551,3.4784,3.507,3.5449,3.5504,3.5546,3.5655,3.5607,3.5575,0.0,0.0,3.553,3.555,3.555,3.555,3.555,3.555,3.5538,3.5536,3.5215,3.5064,3.5033,3.4687,3.4455,3.4306,3.3733,3.341,3.3237,3.2053,3.1094,3.0309,2.9485,2.6199,2.1643,2.0039,2.0165,2.1134,2.0739,2.0596,2.0682,2.1178,2.0791,2.0103,2.0336,2.0632,0.0,0.0,0.0,0.0,0.0,0.0,0.0,0.0,0.0,0.0,0.0,0.0,0.0,0.0,0.0,0.0,0.0,0.0,0.0,2.6413,2.6229,2.5978,2.5557,2.5375,2.4986,2.4248,2.3486,2.3015,2.3015,2.2185,2.1647,2.1647,2.1005,2.059,2.059,2.043,2.0365,2.0365,2.0171,2.0107,2.0107,1.9933,1.9574,1.9044,0.0,0.0,1.7759,1.7906,1.7896,1.7725,1.7725,1.7828,1.7974,1.7613,1.7579,1.7579,1.5869,1.5199,1.5092,1.4063,1.3709,1.3673,0.0,0.0,0.0,0.0,0.0,0.0,0.0,0.0,0.0,0.0,3.5054,3.5261,3.5565,3.563,3.5671,3.57,3.5663,0.0,0.0,3.5668,3.566,3.5703,3.5703,3.5703,3.5703,3.5703,3.5683,3.5656,3.5525,3.5424,3.5395,3.5237,3.5159,3.5122,3.4722,3.4557,3.4518,3.3832,3.32,3.2619,3.2316,3.0907,2.8699,2.6269,2.581,2.6405,2.6036,2.5895,2.5929,2.6047,2.5667,2.5129,2.5256,2.5389,2.5647,0.0,0.0,0.0,0.0,0.0,0.0,0.0,0.0,0.0,0.0,0.0,0.0,0.0,0.0,2.7442,2.7184,0.0,2.7089,2.6935,2.6604,2.6258,2.6002,2.5618,2.5242,2.4776,2.4421,2.4237,2.4237,2.3564,2.3088,2.3088,2.2317,2.1865,2.1865,2.1459,2.1239,2.1239,2.0814,2.059,2.059,2.059,2.0365,1.9944,1.9944,1.9726,1.9299,1.9299,1.9299,1.9299,1.9299,1.9299,1.9299,1.9299,1.9299,1.9199,1.8271,1.7366,1.6472,1.5508,1.5155,1.5084,0.0,0.0,0.0,0.0,0.0,0.0,0.0,0.0,0.0,0.0,0.0,3.54,3.563,3.5705,3.5735,0.0,0.0,0.0,0.0,3.566,3.5632,3.5707,3.5707,3.5707,3.5707,3.5707,3.5651,3.5539,3.5539,3.5498,3.539,3.5363,3.5359,3.5357,3.5121,3.5026,3.5003,3.4684,3.4348,3.3994,3.3904,3.3853,3.3603,3.1221,3.033,3.0315,3.0251,3.022,3.022,3.0231,2.9937,2.9574,2.9619,2.9699,2.9875,3.0163,3.0188,0.0,0.0,0.0,0.0,0.0,0.0,0.0,0.0,2.9059,2.845,2.7811,2.7569,2.7542,2.7693,2.7525,2.7486,2.7896,2.7352,2.6927,2.7041,2.6453,2.5999,2.5999,2.5659,2.5398,2.5398,2.4879,2.4509,2.4509,2.3901,2.356,2.356,2.2925,2.25,2.2359,2.1686,2.1247,2.1101,2.1101,2.1005,2.0846,2.0846,2.0751,2.059,2.059,2.059,2.059,2.059,2.059,2.059,2.059,2.059,2.059,2.059,1.9748,1.8385,1.7248,1.686,1.6722,0.0,0.0,0.0,0.0,0.0,0.0,0.0,0.0,0.0,0.0,0.0,0.0,0.0,0.0,0.0,0.0,0.0,0.0,3.5871,3.576,3.5697,3.5707,3.5707,3.5707,3.5707,3.5707,3.5574,3.533,3.533,3.5218,3.4974,3.4901,3.4886,3.4871,3.4786,3.4736,3.4718,3.4275,3.4062,3.396,3.3547,3.3389,3.3393,3.3517,3.3602,3.3611,3.3257,3.3122,3.318,3.3468,3.2872,3.2023,3.2146,3.1959,3.1725,3.1806,3.2044,3.2283,3.239,3.2056,3.1819,3.2634,3.1983,3.1126,0.0,3.1076,3.0838,3.017,2.958,2.9221,2.9155,2.8275,2.792,2.9035,2.867,2.8472,2.9004,2.8536,2.8143,2.8143,2.6517,2.5398,2.5398,2.5315,2.5287,2.5287,2.5203,2.5147,2.5147,2.505,2.4711,2.4047,2.3959,2.3535,2.2811,2.2811,2.2476,2.1753,2.1753,2.1365,2.059,2.059,2.059,2.059,2.059,2.059,2.059,2.059,2.059,2.059,2.059,2.0494,2.0096,1.8375,1.776,1.7625,0.0,0.0,0.0,0.0,0.0,0.0,0.0,0.0,0.0,0.0,0.0,0.0,0.0,0.0,0.0,0.0,0.0,0.0,3.5737,3.5496,3.5342,3.5342,3.5203,3.5127,3.5127,3.5127,3.507,3.4939,3.4939,3.489,3.4788,3.4471,3.4331,3.431,3.3857,3.3657,3.3631,3.3271,3.2982,3.2704,3.2513,3.2416,3.248,3.2966,3.3363,3.3697,3.4303,3.4526,0.0,0.0,3.452,3.4031,3.4108,3.3929,3.3717,3.3852,3.3707,3.3364,3.2897,3.2844,3.3025,3.3348,3.2761,3.2059,3.1846,3.1477,3.092,3.0012,2.9624,2.9437,2.9425,2.8996,2.881,2.9316,2.918,2.9111,2.9361,2.918,2.9019,2.9019,2.8251,2.745,2.6745,2.6283,2.6041,2.6041,2.5646,2.5398,2.5398,2.5398,2.5259,2.4951,2.4922,2.4781,2.4439,2.4439,2.4281,2.3936,2.3936,2.3748,2.3386,2.3386,2.3386,2.3386,2.3386,2.3386,2.3386,2.3386,2.3132,2.2809,2.3221,2.3132,2.2494,2.0288,1.9455,1.9422,0.0,0.0,0.0,0.0,0.0,0.0,0.0,0.0,0.0,0.0,0.0,0.0,0.0,0.0,0.0,0.0,0.0,0.0,0.0,3.5246,3.507,3.499,3.4793,3.4694,3.4694,3.4694,3.4603,3.4405,3.4405,3.4289,3.4085,3.3758,3.3587,3.3561,3.302,3.2783,3.2752,3.2278,3.1863,3.1535,3.1422,3.1382,3.1458,3.2074,3.2516,3.3003,3.4413,3.4925,0.0,0.0,3.5309,3.5197,3.5297,3.5162,3.5001,3.5189,3.4944,3.4518,3.3926,3.3919,3.404,3.3944,3.3298,3.2596,3.2275,3.1814,3.1206,3.0423,3.0025,2.987,3.002,2.9707,2.9518,2.9848,2.9761,2.9695,2.987,2.9761,2.9651,2.9651,2.9496,2.9065,2.8198,2.76,2.7246,2.7056,2.6712,2.6436,2.6252,2.6409,2.633,2.5943,2.5957,2.5782,2.5398,2.5398,2.5398,2.5398,2.5398,2.5494,2.5645,2.5645,2.5563,2.5398,2.5398,2.5398,2.5398,2.5398,2.5176,2.4882,2.5245,2.5189,2.46,2.2669,2.1639,2.1224,0.0,0.0,0.0,0.0,0.0,0.0,0.0,0.0,0.0,0.0,0.0,0.0,0.0,0.0,0.0,0.0,0.0,0.0,0.0,3.5132,3.4981,3.4714,3.4694,3.4694,3.4694,3.4694,3.4353,3.3626,3.3626,3.3273,3.2565,3.2549,3.2549,3.2533,3.2516,3.25,3.245,3.1394,3.0939,3.0898,3.0514,3.0335,3.0444,3.1439,3.1843,3.2057,3.3666,0.0,0.0,3.4983,3.5151,3.5161,3.5556,3.5456,3.5208,3.5287,3.5643,3.6021,3.5926,3.5579,3.5177,3.4847,3.3815,3.2832,3.2549,3.2468,3.2452,3.24,3.1577,3.1031,3.1608,3.046,2.9783,3.0975,3.0658,3.0477,3.1055,3.0638,3.0272,3.0272,2.9761,2.9384,2.9361,2.9339,2.9065,2.8487,2.8973,2.9004,2.8439,2.8973,2.8678,2.737,2.7335,2.6735,2.5425,2.5398,2.5398,2.5398,2.5398,2.5727,2.6282,2.6282,2.5941,2.5398,2.5398,2.5398,2.5398,2.5398,2.574,2.6177,2.5631,2.574,2.615,2.5508,2.4286,2.2807,0.0,0.0,0.0,0.0,0.0,0.0,0.0,0.0,0.0,0.0,0.0,0.0,0.0,0.0,0.0,0.0,3.5566,0.0,0.0,3.4943,3.4704,3.4379,3.3938,3.3692,3.3692,3.3409,3.3117,3.2862,3.2862,3.2739,3.2501,3.2179,3.2039,3.2004,3.1346,3.1038,3.0999,3.0215,2.9897,2.9875,2.9767,2.9935,3.0377,3.0968,3.1629,3.2383,0.0,0.0,3.3901,3.4622,3.5005,3.5179,3.5326,3.5446,3.5541,3.5551,3.5531,3.5514,3.5526,3.5258,3.4936,3.4838,3.4434,3.3986,3.3592,3.3359,3.314,3.2834,3.2326,3.2022,3.223,3.1827,3.1592,3.1986,3.1897,3.1826,3.2021,3.1897,3.1755,3.1755,3.131,3.1121,3.1428,3.0198,2.9316,2.9111,2.9293,2.9316,2.9111,2.9293,2.9187,2.8724,2.874,2.8513,2.8051,2.8051,2.8051,2.8051,2.8051,2.8172,2.8372,2.8372,2.8252,2.8051,2.8051,2.8051,2.8051,2.8051,2.7884,2.7652,2.7948,2.7585,2.6865,2.6662,2.5894,2.4833,0.0,0.0,0.0,0.0,0.0,0.0,0.0,0.0,0.0,0.0,0.0,0.0,0.0,0.0,0.0,0.0,0.0,3.5086,0.0,0.0,3.4334,3.3867,3.3425,3.3105,3.2952,3.2648,3.2417,3.2247,3.2247,3.2074,3.17,3.1403,3.1155,3.0906,3.0281,2.9978,2.9935,2.9339,2.9065,2.9104,2.9316,2.9629,3.0064,3.0744,3.144,0.0,0.0,0.0,3.3344,3.4209,3.466,3.4874,3.5117,3.5421,3.5707,3.5692,3.5546,3.539,3.5432,3.5288,3.5104,3.4999,3.4948,3.4805,3.4381,3.4158,3.3948,3.3613,3.3208,3.2893,3.2893,3.2677,3.2501,3.2501,3.2501,3.2501,3.2501,3.2501,3.2501,3.2501,3.223,3.2161,3.2467,3.1297,3.0365,2.9961,2.9989,2.9951,2.9739,2.993,2.9935,2.9717,2.9717,2.9607,2.9406,2.9406,2.9406,2.9406,2.9629,2.9685,2.9614,2.9685,2.9685,2.9598,2.9598,2.9598,2.962,2.9789,2.9539,2.9076,2.9344,2.8804,2.7883,2.7673,2.723,2.6579,0.0,0.0,0.0,0.0,0.0,0.0,0.0,0.0,0.0,0.0,0.0,0.0,0.0,0.0,0.0,0.0,0.0,0.0,0.0,0.0,0.0,3.3229,3.3136,3.2921,3.2467,3.2451,3.223,3.1771,3.1752,3.123,3.0293,3.0272,2.9951,2.9406,2.9361,2.9361,2.9316,2.8709,2.8439,2.8511,2.9111,2.9361,2.954,3.0699,0.0,0.0,0.0,0.0,3.2743,3.3792,3.4164,3.4312,3.4982,3.54,3.5666,3.5696,3.5696,3.5696,3.5696,3.5703,3.5639,3.5383,3.5311,3.5234,3.4933,3.4833,3.4795,3.4746,3.4167,3.3653,3.3653,3.3072,3.2582,3.2582,3.2583,3.2567,3.2567,3.2567,3.2567,3.2567,3.255,3.255,3.2567,3.2534,3.2091,3.1094,0.0,3.1018,3.0439,3.0958,3.0998,3.0423,3.0402,3.0149,2.9569,2.9569,2.9546,2.9524,3.0128,3.0298,3.0129,3.0336,3.0298,3.0129,3.0129,3.0096,3.0104,3.0547,3.0579,3.0335,2.9748,2.9396,2.911,2.8553,2.8236,2.7894,0.0,0.0,0.0,0.0,0.0,0.0,0.0,0.0,0.0,0.0,0.0,0.0,0.0,0.0,0.0,0.0,0.0,0.0,0.0,0.0,0.0,0.0,0.0,0.0,0.0,0.0,0.0,0.0,3.0891,3.0547,3.0293,2.9848,2.954,2.9384,2.8943,2.8732,2.8685,2.8091,2.7835,2.787,0.0,2.9012,2.9473,0.0,0.0,0.0,0.0,3.2807,3.3476,3.3472,3.3789,3.4315,3.4931,3.5182,3.5301,3.5542,3.5621,3.5633,3.5683,3.566,3.5616,3.5597,3.5561,3.5502,3.5482,3.5282,3.5096,3.5082,3.4728,3.4427,3.4427,3.4067,3.3779,3.3779,3.3588,3.3462,3.3462,3.3462,3.3462,3.3462,3.3196,3.3136,3.3433,3.2887,3.2533,3.261,3.2349,3.2109,3.1951,3.2074,3.2109,3.1951,3.1951,3.1863,3.172,3.1702,3.1519,3.1196,3.17,3.1899,3.1846,3.1934,3.1899,3.1846,3.1846,3.1533,3.0976,3.1096,3.076,3.016,3.0012,2.9589,2.9018,2.8874,2.8448,2.7924,0.0,0.0,0.0,0.0,0.0,0.0,0.0,0.0,0.0,0.0,0.0,0.0,0.0,0.0,0.0,0.0,0.0,0.0,0.0,0.0,0.0,0.0,0.0,0.0,0.0,0.0,0.0,0.0,0.0,0.0,3.0293,2.9935,2.9518,2.8989,2.8654,2.8343,2.8091,2.8018,0.0,0.0,0.0,0.0,0.0,0.0,0.0,0.0,3.2179,3.2775,3.355,3.362,3.3893,3.4281,3.4765,3.4999,3.5171,3.5477,3.557,3.5566,3.5644,3.562,3.5621,3.5685,3.5718,3.5739,3.569,3.5597,3.5485,3.5396,3.5124,3.4912,3.4889,3.4624,3.4412,3.4412,3.4295,3.4196,3.4196,3.4196,3.4196,3.4196,3.4,3.3944,3.4165,3.3747,3.3502,3.3629,3.2929,3.2501,3.2501,3.2501,3.2501,3.2501,3.2501,3.2501,3.2501,3.2501,3.2384,3.2109,3.2366,3.2599,3.2793,3.2599,3.2677,3.2964,0.0,3.2216,3.19,3.171,3.118,3.0438,3.0438,2.9989,2.9302,2.9302,2.904,2.8704,0.0,0.0,0.0,0.0,0.0,0.0,0.0,0.0,0.0,0.0,0.0,0.0,0.0,0.0,0.0,0.0,0.0,0.0,0.0,0.0,0.0,0.0,0.0,0.0,0.0,0.0,0.0,0.0,0.0,0.0,0.0,0.0,0.0,0.0,0.0,0.0,0.0,0.0,0.0,0.0,0.0,0.0,0.0,0.0,0.0,0.0,3.2004,3.2598,3.3372,3.3994,3.42,3.4258,3.4653,3.4917,3.5147,3.5424,3.55,3.5515,3.5566,3.5579,3.5596,3.5659,3.5761,3.5839,3.5759,3.5795,3.5823,3.5648,3.5427,3.5236,3.5168,3.4935,3.4744,3.4744,3.4714,3.4694,3.4694,3.4694,3.4694,3.4694,3.4694,3.4694,3.4694,3.4694,3.4572,3.43,3.3348,3.2771,3.2725,3.2773,3.2771,3.2725,3.2679,3.2663,3.2645,3.2693,3.2725,3.2707,3.2755,3.3006,3.3382,3.2868,3.2969,3.3515,3.2654,0.0,3.2434,3.2077,3.1469,3.0743,3.076,3.0325,2.9719,2.9725,2.9733,2.9723,0.0,0.0,0.0,0.0,0.0,0.0,0.0,0.0,0.0,0.0,0.0,0.0,0.0,0.0,0.0,0.0,0.0,0.0,0.0,0.0,0.0,0.0,0.0,0.0,0.0,3.1734,3.1528,3.119,3.0699,0.0,0.0,0.0,0.0,0.0,0.0,0.0,0.0,0.0,0.0,0.0,0.0,0.0,0.0,0.0,0.0,0.0,3.3192,3.3564,3.3743,3.4086,3.42,3.4292,3.486,3.507,3.5147,3.5424,3.55,3.5507,3.5521,3.5528,3.5534,3.5591,3.5621,3.569,3.5836,3.5797,3.5712,3.5697,3.5591,3.5504,3.5448,3.5215,3.5025,3.5025,3.4832,3.4694,3.4694,3.4694,3.4694,3.4694,3.4694,3.4694,3.4694,3.4694,3.4674,3.4622,3.4427,3.4204,3.3919,3.4162,3.4186,3.3907,3.3693,3.3524,3.341,3.3747,3.3851,3.3753,3.413,3.4371,3.4416,3.3608,3.3301,3.339,3.2506,0.0,3.1214,3.113,3.063,2.9911,2.9961,2.9905,2.9794,2.9844,2.9877,2.9896,0.0,0.0,0.0,0.0,0.0,0.0,0.0,0.0,0.0,0.0,0.0,0.0,0.0,0.0,0.0,0.0,0.0,0.0,0.0,0.0,0.0,0.0,0.0,0.0,0.0,3.2281,3.2074,3.1878,0.0,3.1442,3.1423,3.0886,3.0468,3.0161,2.9663,2.9248,0.0,0.0,0.0,0.0,0.0,0.0,0.0,0.0,0.0,0.0,0.0,3.4006,3.408,3.4532,3.4666,3.4716,3.5008,3.5105,3.5147,3.5424,3.55,3.55,3.55,3.55,3.5501,3.5547,3.5571,3.5621,3.5774,3.5806,3.5781,3.5708,3.5667,3.5611,3.5515,3.5391,3.5458,3.5868,3.5818,3.5904,3.6351,3.6427,3.6256,3.5789,3.5732,3.5579,3.5151,3.5113,3.5062,3.4926,3.5044,3.4916,3.4478,3.4603,3.4632,3.4475,3.433,3.4242,3.4167,3.436,3.4438,3.4363,3.4595,3.4458,3.4014,3.3589,3.3223,3.2889,3.2046,0.0,3.1327,3.0879,3.0497,3.0163,3.0195,3.0221,3.0211,3.0248,3.0251,3.0279,0.0,0.0,0.0,0.0,0.0,0.0,0.0,0.0,0.0,0.0,0.0,0.0,0.0,0.0,0.0,0.0,0.0,0.0,0.0,0.0,0.0,0.0,0.0,0.0,0.0,0.0,0.0,3.267,3.2608,0.0,0.0,0.0,0.0,0.0,3.0787,3.0336,2.9902,3.0377,0.0,0.0,0.0,3.1658,0.0,0.0,0.0,0.0,0.0,3.4311,3.4401,3.4916,3.5105,3.5113,3.5174,3.519,3.5223,3.5439,3.55,3.55,3.55,3.55,3.55,3.55,3.5547,3.5611,3.5678,3.5772,3.5845,3.5756,3.5717,3.5671,3.554,3.5643,3.5962,3.6596,3.6865,3.7219,3.7892,3.8007,3.7757,3.7065,3.6808,3.6442,3.5827,3.5596,3.5398,3.5207,3.5376,3.5312,3.4898,3.4832,3.4793,3.4793,3.4724,3.4724,3.4793,3.4793,3.4803,3.4879,3.4879,3.4424,3.3597,3.3399,3.2975,3.233,3.1499,0.0,0.0,3.0804,3.0544,3.0606,3.0623,3.0628,3.0611,3.0645,3.067,3.065,0.0,0.0,0.0,0.0,0.0,0.0,0.0,0.0,0.0,0.0,0.0,0.0,0.0,0.0,0.0,0.0,0.0,0.0,0.0,0.0,0.0,0.0,0.0,0.0,0.0,0.0,0.0,3.3236,3.2991,0.0,0.0,0.0,0.0,0.0,0.0,3.1438,3.1401,3.1473,0.0,0.0,0.0,0.0,0.0,0.0,0.0,0.0,0.0,3.4653,3.4704,3.4999,3.5105,3.5138,3.5383,3.5453,3.5479,3.5493,3.55,3.55,3.55,3.55,3.55,3.55,3.5494,3.5534,3.5663,3.571,3.5741,3.5862,3.5775,3.5671,3.5596,3.6151,3.6615,3.6692,3.7353,3.7911,3.7988,3.8007,3.7969,3.7892,3.718,3.6673,3.6596,3.5923,3.5493,3.5479,3.5493,3.5486,3.5432,3.5198,3.507,3.507,3.4841,3.4832,3.507,3.507,3.519,3.5432,3.5432,3.5008,3.4191,3.3399,3.2643,3.1902,3.1031,0.0,0.0,3.0613,3.0597,3.0611,3.0671,3.0689,3.0713,3.0835,3.0878,3.0859,0.0,0.0,0.0,0.0,0.0,0.0,0.0,0.0,0.0,0.0,0.0,0.0,0.0,0.0,0.0,0.0,0.0,0.0,0.0,0.0,0.0,0.0,0.0,0.0,0.0,0.0,3.436,3.4136,3.4046,0.0,0.0,0.0,0.0,0.0,0.0,3.2287,3.2159,3.232,0.0,0.0,0.0,0.0,0.0,0.0,0.0,0.0,0.0,0.0,3.5035,3.5266,3.5346,3.5361,3.5479,3.55,3.55,3.55,3.55,3.55,3.55,3.55,3.55,3.55,3.5522,3.5574,3.5675,3.5764,3.5848,3.5883,3.5799,3.5675,3.5616,3.6196,3.6865,3.7411,3.82,3.895,3.9438,3.9496,3.9342,3.8834,3.8007,3.7276,3.675,3.5962,3.55,3.55,3.554,3.5556,3.5556,3.5416,3.5346,3.5346,3.5231,3.5231,3.5346,3.5391,3.5457,3.5543,3.5116,3.4462,3.3616,3.2738,3.1886,3.1106,3.0758,0.0,0.0,3.0667,3.0703,3.0783,3.0813,3.0816,3.0836,3.0879,3.0898,3.0879,0.0,0.0,0.0,0.0,0.0,0.0,0.0,0.0,0.0,0.0,0.0,0.0,0.0,0.0,0.0,0.0,0.0,0.0,0.0,0.0,0.0,0.0,0.0,0.0,0.0,0.0,3.505,3.4991,3.4925,3.488,0.0,0.0,3.4162,3.3971,0.0,0.0,0.0,0.0,0.0,0.0,0.0,0.0,0.0,0.0,0.0,0.0,0.0,0.0,0.0,0.0,0.0,3.5556,3.5556,3.5556,3.5558,3.5515,3.55,3.55,3.55,3.55,3.55,3.55,3.5552,3.5626,3.5682,3.5805,3.5901,3.593,3.5812,3.5686,3.5644,3.6425,3.7296,0.0,3.8931,3.9842,4.0419,4.0496,4.0285,3.9727,3.8892,3.8048,3.7192,3.6163,3.5556,3.5556,3.5596,3.563,3.563,3.5574,3.5556,3.5556,3.5556,3.5556,3.5556,3.5601,3.5509,3.5276,3.475,3.392,3.2814,3.2208,3.1478,3.0683,3.0683,0.0,0.0,3.0768,3.0798,3.0838,3.0838,3.0835,3.081,3.081,3.081,3.0787,0.0,0.0,0.0,0.0,0.0,0.0,0.0,0.0,0.0,0.0,0.0,0.0,0.0,0.0,0.0,0.0,0.0,0.0,0.0,0.0,0.0,0.0,0.0,0.0,0.0,0.0,3.568,3.568,3.5421,3.5281,3.5296,3.502,3.489,3.4883,0.0,0.0,0.0,0.0,0.0,0.0,0.0,0.0,0.0,0.0,0.0,0.0,0.0,0.0,0.0,0.0,0.0,0.0,0.0,3.5703,3.5663,3.5547,3.55,3.55,3.55,3.55,3.55,3.55,3.5552,3.5626,3.5682,3.5805,3.5914,3.5995,3.5841,3.5707,3.5703,3.6958,3.7988,3.8007,3.94,4.0496,4.0496,4.0496,4.0496,4.0496,3.9785,3.8965,3.8158,3.6645,3.5703,3.5703,3.5703,0.0,3.5703,3.5703,3.5703,3.5703,3.5703,3.5703,3.5703,3.5703,3.5291,3.4506,3.451,3.3632,3.201,3.1991,3.1604,3.0898,0.0,0.0,0.0,3.0898,3.0816,3.0696,3.0696,3.0667,3.0606,3.0606,3.0606,3.0594,0.0,0.0,0.0,0.0,0.0,0.0,0.0,0.0,0.0,0.0,0.0,0.0,0.0,0.0,0.0,0.0,0.0,0.0,0.0,0.0,0.0,0.0,0.0,0.0,0.0,0.0,0.0,3.5624,3.5543,3.5525,3.5562,3.5487,3.5345,3.516,3.5092,3.4963,0.0,0.0,0.0,0.0,0.0,0.0,0.0,0.0,0.0,0.0,0.0,0.0,0.0,0.0,0.0,0.0,0.0,0.0,0.0,3.5646,3.5644,3.5644,3.5644,3.5644,3.5644,3.5644,3.5725,3.5811,3.5834,3.5896,3.5956,3.5947,3.5814,3.588,3.642,3.7333,3.82,3.8796,3.9804,4.0496,4.0496,4.0496,4.0523,4.063,3.9442,3.8282,3.7428,3.6423,3.5802,3.571,3.5775,3.5838,3.5838,3.5838,3.5799,3.5707,3.5707,3.5707,3.5707,3.5797,3.5407,3.4567,3.4017,3.3173,3.2125,3.1519,3.1112,0.0,0.0,0.0,0.0,3.0702,3.0676,3.0641,3.0641,3.0625,3.0603,3.0603,3.0603,3.0594,0.0,0.0,0.0,0.0,0.0,0.0,0.0,0.0,0.0,0.0,0.0,0.0,0.0,0.0,0.0,0.0,0.0,0.0,0.0,0.0,0.0,0.0,0.0,0.0,0.0,0.0,3.5632,3.5644,3.5644,3.5664,3.5695,3.5695,3.5608,3.5447,3.5381,3.5252,0.0,0.0,0.0,0.0,0.0,0.0,3.566,0.0,0.0,0.0,0.0,0.0,0.0,0.0,0.0,0.0,0.0,0.0,0.0,0.0,3.5808,3.5797,3.5723,3.5707,3.5707,3.5707,3.5802,3.5901,3.5901,3.5934,3.5948,3.5908,3.6027,3.6302,3.6802,3.7758,3.8661,3.9207,3.9977,4.0496,4.0496,4.0537,4.063,4.0726,3.9315,3.8127,3.7584,3.6565,3.5896,3.583,3.5893,3.5944,3.5944,3.5944,3.5895,3.5828,3.5808,3.5808,3.5808,3.5561,3.5005,3.4145,3.3338,3.2499,3.1617,3.1071,3.0813,0.0,0.0,0.0,0.0,3.0625,3.0587,3.0558,3.0558,3.0552,3.0517,3.0517,3.0517,3.0501,0.0,0.0,0.0,0.0,0.0,0.0,0.0,0.0,0.0,0.0,0.0,0.0,0.0,0.0,0.0,0.0,0.0,0.0,0.0,0.0,0.0,0.0,0.0,0.0,0.0,3.5497,3.5628,3.5636,3.5636,3.564,3.5647,3.5647,3.5647,3.5631,3.5563,3.5546,0.0,0.0,0.0,0.0,0.0,0.0,0.0,0.0,0.0,0.0,0.0,0.0,0.0,0.0,0.0,0.0,0.0,0.0,0.0,0.0,0.0,0.0,0.0,3.5729,3.5723,3.5723,3.5812,3.5908,3.5892,3.5898,0.0,3.5951,3.6476,3.6936,3.7041,3.8292,3.9323,3.9381,4.0015,4.0496,4.0496,4.063,4.0731,4.0817,3.9399,3.8401,3.8401,3.6947,3.5996,3.5996,3.5996,3.5996,3.5996,3.5996,3.5996,3.5996,3.5996,3.5976,3.5918,3.5098,3.4238,3.3301,3.2558,3.1656,3.0695,3.0692,3.0665,0.0,0.0,0.0,0.0,3.0587,3.0556,3.0485,3.0485,3.0442,3.0367,3.0367,3.0361,3.0311,0.0,0.0,0.0,0.0,0.0,0.0,0.0,0.0,0.0,0.0,0.0,0.0,0.0,0.0,0.0,0.0,0.0,0.0,0.0,0.0,0.0,0.0,0.0,0.0,0.0,3.4901,3.4961,3.5007,3.5007,3.5038,3.5083,3.5083,3.5083,3.5102,3.5014,0.0,0.0,0.0,0.0,0.0,0.0,0.0,0.0,0.0,0.0,0.0,3.5316,3.5393,0.0,0.0,0.0,0.0,0.0,0.0,0.0,0.0,3.576,3.5778,3.585,0.0,3.593,3.593,3.5953,3.5957,0.0,3.5896,3.6053,3.6565,3.6789,3.7276,3.8503,3.9044,3.9496,4.0112,4.0381,4.0496,4.0496,4.067,4.0821,4.0947,3.9534,3.8552,3.8552,3.6992,3.5996,3.5996,3.5996,3.5996,3.5996,3.5996,3.5996,3.5996,3.5996,3.5684,3.5019,3.4805,3.3945,3.248,3.2181,3.1563,3.0693,3.0655,3.0603,0.0,0.0,0.0,3.0513,3.0472,3.043,3.0422,3.0422,3.0285,3.0089,3.0089,2.9996,2.9856,0.0,0.0,0.0,0.0,0.0,0.0,0.0,0.0,0.0,0.0,0.0,0.0,0.0,0.0,0.0,0.0,0.0,0.0,0.0,0.0,0.0,0.0,0.0,0.0,0.0,3.4632,3.4726,3.4755,3.4755,3.4781,3.4797,3.4797,3.4797,3.4816,3.4772,0.0,0.0,0.0,0.0,0.0,3.4755,0.0,0.0,0.0,0.0,0.0,3.5119,3.5207,0.0,3.5521,3.5606,3.5616,0.0,0.0,0.0,0.0,3.5707,3.5717,3.5797,3.5885,3.5951,3.5996,3.5975,3.5946,3.5908,3.5821,3.5974,3.674,3.7176,3.7791,3.9068,3.9646,4.006,4.0435,4.0584,4.0651,4.0722,4.0821,4.0794,4.0532,3.9373,3.8437,3.8047,3.6797,3.5996,3.5996,3.5996,3.5996,3.5996,3.5973,3.5949,3.5949,3.5549,3.51,3.4663,3.4253,3.3389,3.2065,3.1574,3.1098,3.0617,3.0568,3.0537,0.0,0.0,0.0,3.0442,3.0419,3.0404,3.0404,3.0404,3.0311,3.0189,3.0189,3.0032,2.9821,0.0,0.0,0.0,0.0,0.0,0.0,0.0,0.0,0.0,0.0,0.0,0.0,0.0,0.0,0.0,0.0,0.0,0.0,0.0,0.0,0.0,0.0,0.0,0.0,3.4147,3.442,3.4569,3.4569,3.4569,3.4569,3.4569,3.4569,3.4569,3.4569,3.4569,0.0,0.0,0.0,0.0,3.4559,3.4497,0.0,0.0,0.0,0.0,0.0,0.0,0.0,0.0,3.5327,3.5439,3.5455,3.5548,0.0,0.0,0.0,0.0,0.0,3.5678,3.5783,3.5884,3.5973,3.5945,3.588,3.5873,3.5822,3.6046,3.6895,3.7668,3.8464,3.936,4.0166,4.0661,4.0568,4.0682,4.0854,4.0988,4.0898,4.0582,3.9961,3.9004,3.8105,3.7363,3.6504,3.5996,3.5996,3.5996,3.5996,3.5996,3.5942,3.5901,3.5901,3.4993,3.4458,3.4369,3.3518,3.2619,3.1682,3.0944,3.0547,3.0498,3.0481,3.0447,3.0404,0.0,0.0,3.0404,3.0404,3.0404,3.0404,3.0404,3.0355,3.0292,3.0292,3.0102,2.9818,0.0,0.0,0.0,0.0,0.0,0.0,0.0,0.0,0.0,0.0,0.0,0.0,0.0,0.0,0.0,0.0,0.0,0.0,0.0,0.0,0.0,0.0,0.0,3.3831,3.385,3.3902,3.3928,3.3928,3.3928,3.3928,3.3928,3.3928,3.3928,3.3928,3.3928,3.3928,3.3915,3.3565,3.3625,3.3902,3.357,0.0,0.0,0.0,0.0,0.0,0.0,0.0,0.0,3.4971,3.5155,3.5207,3.5448,0.0,0.0,0.0,0.0,0.0,3.5611,3.5671,3.5764,3.5882,3.5907,3.5871,3.5761,3.6237,3.6928,3.7674,3.851,3.9386,4.0307,4.0602,4.0713,4.0752,4.0777,4.0854,4.0988,4.035,3.9899,3.9902,3.8476,3.7441,3.7305,3.6504,3.5996,3.5996,3.5996,3.5996,3.5996,3.5942,3.5901,3.5901,3.4993,3.4111,3.3343,3.2526,3.1674,3.08,3.0607,3.0516,3.0498,3.0441,3.0408,3.0404,0.0,3.0404,3.0404,3.0404,3.0404,3.0404,3.0404,3.0168,2.9807,2.9807,2.9533,2.9141,0.0,0.0,0.0,0.0,0.0,0.0,0.0,0.0,0.0,0.0,0.0,0.0,0.0,0.0,0.0,0.0,0.0,0.0,0.0,0.0,0.0,0.0,3.2743,3.3087,3.3087,3.3087,3.3087,3.3087,3.3087,3.3087,3.3087,3.3087,3.3087,3.3087,3.3087,3.3087,3.309,3.2887,3.2919,3.3072,0.0,0.0,0.0,0.0,0.0,0.0,0.0,0.0,0.0,0.0,3.5105,3.5157,3.5424,0.0,0.0,0.0,0.0,0.0,3.554,3.56,3.565,3.5717,3.5816,3.5877,3.5812,3.6013,3.6557,3.7797,3.8348,3.9035,4.0435,4.0726,4.0816,4.0988,4.0957,4.0799,4.0456,4.0069,3.9487,3.8594,0.0,3.7109,3.6641,3.623,3.5996,3.5996,3.5996,3.5996,3.5996,3.5866,3.5797,3.5797,3.4384,3.3427,3.299,3.1739,3.0892,3.05,3.0462,3.0451,3.0446,3.0419,3.0404,3.0404,0.0,3.0404,3.0404,3.0404,3.0404,3.0404,3.0404,3.0176,2.9837,2.9626,2.9395,2.9211,0.0,0.0,0.0,0.0,0.0,0.0,0.0,0.0,0.0,0.0,0.0,0.0,0.0,0.0,0.0,0.0,0.0,0.0,0.0,0.0,3.166,3.166,3.1986,3.2282,3.2501,3.2501,3.2501,3.2501,3.2501,3.2501,3.2501,3.2501,3.2501,3.2501,3.2501,3.2501,3.2501,3.2366,3.2401,3.2484,0.0,0.0,0.0,0.0,0.0,0.0,0.0,0.0,0.0,0.0,0.0,0.0,0.0,0.0,0.0,3.55,3.55,3.55,3.55,3.5552,3.5611,3.5611,3.5725,3.5827,3.5843,3.5854,3.6231,3.7573,3.8092,3.8762,4.0208,4.0704,4.0959,4.1171,4.095,4.0552,3.998,3.9551,3.8809,3.7461,3.7129,3.6738,3.6055,3.5996,3.5996,3.5996,3.5995,3.5974,3.5974,3.5783,3.5574,3.5379,3.3757,3.2814,3.2622,3.1135,3.0404,3.0404,3.0404,3.0404,3.0404,3.0404,3.0404,3.0404,3.0404,3.0404,3.0404,3.0404,3.0361,3.0305,3.0305,3.0115,2.9813,2.9445,2.931,2.9278,0.0,0.0,0.0,0.0,0.0,0.0,0.0,0.0,0.0,0.0,0.0,0.0,0.0,0.0,0.0,0.0,0.0,0.0,0.0,0.0,3.1232,3.1232,3.1271,3.1675,3.2484,3.2501,3.2501,3.2501,3.2501,3.2501,3.2501,3.2501,3.2501,3.2501,3.2501,3.2501,3.2467,3.2039,3.2092,3.2467,3.2039,0.0,0.0,0.0,0.0,0.0,0.0,0.0,0.0,0.0,0.0,0.0,0.0,0.0,3.55,3.55,3.55,3.55,3.55,3.5552,3.5611,3.5611,3.5606,3.563,3.5696,3.6172,3.671,3.7027,3.8263,3.9403,3.9711,4.0533,4.1171,4.1191,4.0508,3.9961,3.9902,3.8516,3.7441,3.7305,3.6582,3.6074,3.6016,3.5996,3.5996,3.5996,3.5945,3.5907,3.5907,3.5714,3.5238,3.4425,3.3431,3.2545,3.1795,3.0865,3.0404,3.0404,3.0404,3.0404,3.0404,3.0404,3.0404,3.0404,3.0404,3.0404,3.0404,3.0404,3.0254,3.0021,3.0021,2.9799,2.9404,2.9134,2.904,2.9028,0.0,0.0,0.0,0.0,0.0,0.0,0.0,0.0,0.0,0.0,0.0,0.0,0.0,0.0,0.0,0.0,0.0,0.0,0.0,0.0,3.0081,3.0081,3.0081,3.0243,3.0573,3.1306,3.1694,3.1694,3.1694,3.1694,3.1694,3.1694,3.1694,3.1694,3.1694,3.1694,3.1675,3.1506,3.1543,3.1675,3.1506,3.1526,0.0,0.0,0.0,0.0,0.0,0.0,0.0,0.0,3.4079,3.4467,0.0,3.5174,3.5289,3.5446,3.55,3.55,3.55,3.5509,3.554,3.554,3.554,3.5574,3.5687,3.5858,3.6358,3.7564,3.7836,3.8234,3.947,3.964,3.9766,4.0293,3.9668,3.8906,3.8359,3.7715,3.7109,3.6562,3.6191,3.5996,3.5996,3.5996,3.5975,3.5945,3.5911,3.5869,3.5772,3.5666,3.5204,3.4333,3.3381,3.2506,3.1718,3.0846,3.0404,3.0404,3.0404,3.0404,3.0404,3.0404,3.0404,3.0404,3.0404,3.0305,3.015,3.015,3.0018,2.9796,2.9678,2.9523,2.9372,2.91,2.9005,2.9005,0.0,0.0,0.0,0.0,0.0,0.0,0.0,0.0,0.0,0.0,0.0,0.0,0.0,0.0,0.0,0.0,0.0,0.0,0.0,0.0,2.9406,2.9406,2.9406,2.9406,2.9406,3.0393,3.0918,3.0918,3.1112,3.119,3.119,3.119,3.119,3.119,3.119,3.119,3.119,3.119,3.119,3.119,3.119,3.119,0.0,0.0,0.0,0.0,0.0,0.0,0.0,0.0,3.3805,0.0,0.0,0.0,0.0,3.5312,3.5432,3.55,3.55,3.55,3.5514,3.5534,3.5528,3.5562,3.5667,3.5642,3.597,3.728,3.7491,3.7835,3.9112,3.9176,3.9121,3.9434,3.8769,3.7988,3.7383,3.7051,3.668,3.6074,3.5996,3.5996,3.5996,3.5975,3.5948,3.5905,3.5831,3.5762,3.5663,3.533,3.4754,3.3884,3.2991,3.2122,3.1288,3.0692,3.0404,3.0404,3.0404,3.0404,3.0404,3.0404,3.0404,3.0398,3.0311,3.0163,2.9999,2.9931,2.978,2.9589,2.9363,2.9267,2.9246,2.9067,2.9005,2.9005,0.0,0.0,0.0,0.0,0.0,0.0,0.0,0.0,0.0,0.0,0.0,0.0,0.0,0.0,0.0,0.0,0.0,0.0,0.0,2.9042,2.9384,2.9384,2.9384,2.9384,2.9384,2.9957,3.0293,3.0293,3.0898,3.119,3.119,3.119,3.119,3.119,3.119,3.119,3.119,3.119,3.119,3.119,3.119,3.119,3.119,0.0,0.0,0.0,0.0,0.0,0.0,0.0,3.3643,3.4188,0.0,0.0,0.0,3.5096,3.5289,3.55,3.55,3.55,3.5528,3.5574,3.5591,3.5626,3.5682,3.5646,3.5663,3.586,3.7336,3.8594,3.8594,3.9297,3.957,3.873,3.7851,3.7285,3.7285,3.6543,3.5996,3.5996,3.5996,3.5996,3.5996,3.5944,3.5901,3.59,3.5702,3.5611,3.5586,3.4717,3.3801,3.291,3.2122,3.1269,3.0404,3.0404,3.0404,3.0404,3.0404,3.0404,3.0404,3.0404,3.0404,3.0392,3.0129,3.0006,2.9984,2.9771,2.9579,2.9372,2.91,2.9005,2.9005,2.9005,2.9005,2.9005,0.0,0.0,0.0,0.0,0.0,0.0,0.0,0.0,0.0,0.0,0.0,0.0,0.0,0.0,0.0,0.0,0.0,0.0,0.0,2.8027,2.8125,2.8125,2.8125,2.8125,2.8125,2.8732,2.9651,3.0918,3.1112,3.119,3.119,3.119,3.119,3.119,3.119,3.119,3.119,3.119,3.119,3.119,3.119,3.119,3.119,0.0,0.0,0.0,0.0,0.0,0.0,0.0,0.0,0.0,0.0,0.0,0.0,3.5034,3.5289,3.55,3.55,3.5534,3.5577,3.56,3.5639,3.569,3.57,3.5682,3.5716,3.5869,3.6847,3.7695,3.7695,3.7402,3.7266,3.7637,3.6953,3.6387,3.6387,3.6152,3.5996,3.5996,3.5951,3.5939,3.5939,3.5841,3.5736,3.5686,3.5636,3.5317,0.0,3.4347,3.3551,3.2102,3.1814,3.1269,3.0404,3.0404,3.0404,3.0404,3.0404,3.0404,3.0404,3.0404,3.0404,3.0398,3.0311,3.0095,2.9754,2.9367,2.9181,2.9112,2.904,2.9005,2.9005,2.9005,2.9005,2.9005,0.0,0.0,0.0,0.0,0.0,0.0,0.0,0.0,0.0,0.0,0.0,0.0,0.0,0.0,0.0,0.0,0.0,0.0,0.0,0.0,2.76,2.76,2.76,2.771,2.7944,2.8295,2.9271,3.0838,3.0838,3.0838,3.0858,3.1075,3.119,3.119,3.119,3.119,3.119,3.119,3.1055,3.0838,3.0838,3.0838,3.0838,0.0,0.0,0.0,0.0,0.0,0.0,0.0,0.0,0.0,3.3943,0.0,3.4724,3.4898,3.5232,3.5547,3.5547,3.5585,3.5657,3.5702,3.5756,3.5799,3.5806,3.5792,3.5809,3.5918,3.6677,3.7187,3.6855,3.6641,3.6582,3.6758,3.6348,3.5996,3.5996,3.5975,3.5951,3.5951,3.5884,3.5812,3.5812,3.5723,3.5633,3.5596,3.5577,0.0,0.0,3.3878,3.3064,3.1737,3.1365,3.0923,3.0404,3.0404,3.0404,3.0404,3.0404,3.0329,3.0248,3.0355,3.0404,3.0398,3.0299,3.0044,2.967,2.9312,2.9167,2.9156,2.9033,2.9005,2.9005,2.9005,2.9005,2.9005,0.0,0.0,0.0,0.0,0.0,0.0,0.0,0.0,0.0,0.0,0.0,0.0,0.0,0.0,0.0,0.0,0.0,0.0,0.0,0.0,2.7433,2.7484,2.756,2.786,2.8407,2.8415,2.895,3.0043,3.023,3.033,3.0377,3.0938,3.1171,3.1131,3.1131,3.1075,3.1035,3.1035,3.072,3.0208,3.0208,3.0208,3.023,3.0272,0.0,0.0,0.0,0.0,0.0,0.0,0.0,0.0,3.3638,3.4177,3.4694,3.4694,3.5128,3.5611,3.5611,3.565,3.5755,3.5871,3.5905,3.5936,3.5995,3.5949,3.5938,3.5995,3.6621,3.6934,3.6152,3.6641,3.6914,3.6133,3.5996,3.5996,3.5996,3.5944,3.59,3.5877,3.5764,3.5693,3.5693,3.563,3.559,3.559,0.0,0.0,0.0,3.3333,3.2487,3.1621,3.0808,3.0398,3.0361,3.0361,3.0355,3.0343,3.0343,3.0202,2.9984,3.0248,3.0355,3.0311,3.0075,2.9861,2.9652,2.9483,2.9392,2.9341,2.9089,2.9005,2.9005,2.9005,2.9005,2.9005,0.0,0.0,0.0,0.0,0.0,0.0,0.0,0.0,0.0,0.0,0.0,0.0,0.0,0.0,0.0,0.0,0.0,0.0,0.0,0.0,2.6135,2.6721,2.728,2.766,2.7785,2.7785,2.7919,2.8183,2.9591,3.0539,3.1015,3.1151,3.0955,3.0497,3.0497,3.023,2.9783,2.9783,2.9717,2.9585,2.9585,2.9585,2.9651,3.0123,3.0393,0.0,0.0,0.0,0.0,0.0,0.0,0.0,3.3302,3.3956,3.4694,3.4694,3.5128,3.5611,3.5611,3.5725,3.5869,3.59,3.5944,3.5975,3.5996,3.5995,3.5975,3.5996,3.6152,3.6211,3.6035,3.6152,3.6211,3.6035,3.5996,3.5975,3.5939,3.5908,3.5869,3.5758,3.5667,3.5611,3.5611,3.5562,3.5522,0.0,0.0,0.0,3.3256,3.3006,3.2218,3.0731,3.05,3.0305,3.0082,3.0082,3.0011,0.0,2.9848,2.9823,2.9763,2.9996,3.0003,2.9848,2.9799,2.9643,2.9464,2.9433,2.9278,2.9078,2.9028,2.9005,2.9005,2.9005,2.9005,2.9005,0.0,0.0,0.0,0.0,0.0,0.0,0.0,0.0,0.0,0.0,0.0,0.0,0.0,0.0,0.0,0.0,0.0,0.0,0.0,0.0,0.0,0.0,2.7203,0.0,0.0,0.0,0.0,2.8018,2.8973,2.9739,3.0335,3.0335,3.0314,3.0293,3.0293,3.0123,2.9827,2.9827,2.9651,2.9361,2.9088,2.8966,2.8996,2.9316,2.9607,2.9951,3.0539,0.0,0.0,0.0,0.0,0.0,0.0,0.0,3.4497,3.4653,3.5037,3.5438,3.5591,3.5771,3.5907,3.5944,3.5974,3.5996,3.5996,3.5996,3.5996,3.5996,3.5996,3.5996,3.5996,3.5996,3.5996,3.5951,3.5948,3.5919,3.5812,3.5771,3.5728,3.5659,3.5595,3.5558,3.5558,3.5515,3.55,0.0,0.0,3.4731,3.2987,3.2891,3.2141,3.0442,3.0404,3.0323,3.0196,3.0196,3.0061,2.9845,2.9845,2.9729,2.9561,2.9754,2.9796,2.9705,2.9705,2.9634,2.9542,2.9434,2.932,2.9189,2.9044,2.9005,2.9005,2.9005,2.9005,2.9005,0.0,0.0,0.0,0.0,0.0,0.0,0.0,0.0,0.0,0.0,0.0,0.0,0.0,0.0,0.0,0.0,0.0,0.0,0.0,0.0,0.0,0.0,2.6956,0.0,0.0,0.0,0.0,2.8343,2.8439,2.8803,2.9406,2.9496,2.9827,3.0309,3.0187,3.0102,2.9978,2.987,2.9563,2.9042,2.8559,2.8343,2.8359,2.8463,2.8803,2.9339,3.0059,3.0293,3.0439,3.138,0.0,0.0,0.0,0.0,3.4169,3.4582,3.4935,3.5271,3.5588,3.5791,3.5913,3.5975,3.5996,3.5996,3.5996,3.5996,3.5996,3.5996,3.5996,3.5996,3.5976,3.5975,3.5951,3.5878,3.5871,3.5809,3.5693,3.5639,3.56,3.5574,3.5534,3.55,3.55,3.55,0.0,0.0,0.0,3.4731,3.2987,3.2891,3.2141,3.0442,3.0404,3.0373,3.0323,3.0292,3.0155,2.9901,2.9842,2.9651,2.9341,2.9504,2.9579,2.9579,2.9625,2.9616,2.957,2.9454,2.9372,2.931,2.9078,2.9005,2.9005,2.9005,2.9005,2.9005,0.0,0.0,0.0,0.0,0.0,0.0,0.0,0.0,0.0,0.0,0.0,0.0,0.0,0.0,0.0,0.0,0.0,0.0,2.3245,0.0,0.0,2.4595,2.5919,2.6642,0.0,0.0,0.0,2.771,2.8222,2.8803,2.9406,2.9951,3.023,3.0272,2.9761,2.9225,2.8724,2.8174,2.7919,2.782,2.776,2.771,2.7785,2.831,2.8559,2.8756,2.9892,3.0293,3.0414,3.1058,3.1564,0.0,0.0,0.0,3.3813,3.45,3.4935,3.5265,3.5537,3.5746,3.5913,3.5975,3.5996,3.5996,3.5996,3.5996,3.5996,3.5996,3.5996,3.5975,3.5917,3.5911,3.5877,3.5755,3.5723,3.5689,3.5616,3.5601,3.5582,3.5515,3.5514,3.55,3.55,3.55,0.0,0.0,3.55,3.4731,3.2987,3.2891,3.2141,3.0442,3.0404,3.0299,3.0061,2.9888,2.9697,2.9483,2.9249,2.9104,2.9044,2.9089,2.9082,2.9104,2.9332,2.9301,2.9104,2.932,2.9257,2.9044,2.8998,2.9005,2.9005,2.9005,2.9005,2.9005,0.0,0.0,0.0,0.0,0.0,0.0,0.0,0.0,0.0,0.0,0.0,0.0,0.0,0.0,0.0,2.3108,2.3108,2.3108,2.3108,2.3855,2.4292,2.4292,2.5315,2.6095,2.6484,0.0,2.7203,2.76,2.786,2.8472,2.9406,2.9673,2.9995,3.0293,3.0021,2.9761,2.9496,2.9232,2.9118,2.9073,2.874,2.8614,2.8599,2.8535,2.8724,2.9065,2.9607,3.0,3.0393,3.0995,3.1468,3.1897,3.235,0.0,0.0,0.0,3.4804,3.5023,3.5529,3.5774,3.5913,3.5975,3.5996,3.5996,3.5996,3.5996,3.5996,3.5948,3.5946,3.5922,3.5905,3.5838,3.5752,3.5655,3.5638,3.5611,3.5544,3.554,3.5528,3.5507,3.55,3.55,3.55,3.55,0.0,0.0,3.5281,3.4515,3.2766,3.2573,3.1802,3.024,3.0066,3.0022,3.0006,2.9796,2.9652,2.9561,2.9332,2.9214,2.9214,2.9214,2.9145,2.9005,2.9123,2.9112,2.9017,2.9134,2.9112,2.9005,2.9005,2.9005,2.9005,2.9005,2.9005,2.9005,0.0,0.0,0.0,0.0,0.0,0.0,0.0,0.0,0.0,0.0,0.0,0.0,0.0,0.0,0.0,0.0,2.3108,2.3108,2.3108,2.3662,2.4002,2.4002,2.4724,2.5481,2.6203,2.6404,2.6852,2.76,2.776,2.8376,2.9406,2.9563,2.9935,3.0518,3.0372,3.0293,3.0293,3.0145,3.0081,3.0038,2.9585,2.9406,2.9361,2.8896,2.9012,2.9429,2.9563,2.9913,3.0393,3.0995,3.1391,3.1733,3.2179,3.2648,0.0,0.0,0.0,3.4923,3.5519,3.5752,3.5877,3.5951,3.5995,3.5996,3.5996,3.5995,3.5951,3.5908,3.586,3.5819,3.5819,3.5733,3.565,3.5599,3.5571,3.555,3.552,3.55,3.55,3.55,3.55,3.55,3.55,3.55,0.0,0.0,3.5105,3.4404,3.2805,3.2391,3.1587,3.0277,2.9885,2.9763,2.9924,2.9712,2.9579,2.9514,2.9444,2.9402,2.9402,2.9454,2.9332,2.91,2.904,2.9005,2.9005,2.9005,2.9005,2.9005,2.9005,2.9005,2.9005,2.9005,2.9005,2.9005,0.0,0.0,0.0,0.0,0.0,0.0,0.0,0.0,0.0,0.0,0.0,0.0,2.3108,2.3108,2.3108,2.3108,2.3108,2.3108,2.3108,2.3125,2.3155,2.3155,2.3943,0.0,2.5425,2.6149,2.6852,2.76,2.8165,2.8779,2.9406,2.9995,3.0597,3.1131,3.0576,3.0293,3.0251,2.9695,2.9451,2.9451,2.9406,2.9406,2.9406,2.9361,2.9361,2.9473,3.0059,3.0272,3.0393,3.0995,3.121,3.131,3.1715,3.2161,3.2677,0.0,0.0,0.0,3.5516,3.5655,3.5732,3.5875,3.5949,3.5996,3.5996,3.5948,3.5905,3.5901,3.5758,3.5611,3.5611,3.5606,3.5574,3.5528,3.5514,3.5494,3.55,3.55,3.55,3.55,3.55,3.55,3.55,3.55,0.0,0.0,3.5105,3.4601,3.343,3.2619,3.1789,3.0874,3.0101,2.9713,2.9722,2.9513,2.9289,2.9033,2.9278,2.9402,2.9412,2.9598,2.957,2.9372,2.9112,2.9005,2.9005,2.9005,2.9005,2.9005,2.9005,2.9005,2.9005,2.9005,2.9005,2.9005,0.0,0.0,0.0,0.0,0.0,0.0,0.0,0.0,0.0,0.0,0.0,0.0,0.0,2.3108,2.3108,2.3108,2.3108,2.3108,2.3108,2.3108,2.3108,2.3108,2.3365,2.4134,2.537,2.5646,2.639,2.76,2.781,2.8424,2.9406,2.9629,3.0251,3.119,3.0975,3.0878,3.0858,3.0658,3.0576,3.0576,3.0576,3.0576,3.0518,3.0123,3.0208,3.0539,3.0356,3.0539,3.0898,3.1131,3.119,3.1271,3.1678,3.2109,3.2693,3.369,3.4515,3.5152,3.5303,3.5482,3.5686,3.586,3.5914,3.5947,3.5996,3.5948,3.5873,3.5797,3.5686,3.5579,3.554,3.554,3.5534,3.5494,3.55,3.55,3.55,3.5354,3.5239,3.5239,3.5096,3.4981,3.4981,3.4981,0.0,0.0,0.0,3.4122,3.3194,3.2229,3.1381,3.0728,2.9762,2.9241,2.9241,2.9343,2.9351,2.9257,2.9351,2.9402,2.9402,2.9465,2.9474,2.9402,2.9299,2.9167,2.9005,2.9005,2.9005,2.9005,2.9005,2.9005,2.9005,2.9005,2.9005,2.9005,0.0,0.0,0.0,0.0,0.0,0.0,0.0,0.0,0.0,0.0,0.0,0.0,0.0,0.0,2.3108,2.3108,2.3108,2.3108,2.3108,2.3108,2.3108,2.3108,2.3108,2.3813,2.537,2.5398,2.612,2.76,2.76,2.8222,2.9406,2.918,2.9848,3.119,3.0995,3.1015,3.119,3.119,3.119,3.119,3.119,3.119,3.1131,3.0518,3.0679,3.1131,3.0518,3.0679,3.119,3.119,3.119,3.1249,3.1507,3.2004,3.2725,3.3869,3.4563,3.4997,3.5124,3.538,3.564,3.5789,3.5871,3.5913,3.5976,3.5901,3.5805,3.5717,3.5626,3.5538,3.5501,3.55,3.55,3.55,3.5432,3.5369,3.5369,3.513,3.4963,3.4963,3.4822,3.4694,3.4694,3.4694,0.0,0.0,0.0,0.0,3.3302,3.2342,3.1391,3.0498,2.9513,2.9005,2.9005,2.9178,2.9267,2.9267,2.9361,2.9402,2.9394,2.9551,2.9532,2.9412,2.9533,2.9425,2.9134,2.9134,2.9078,2.9005,2.9005,2.9005,2.9005,2.9005,2.9005,2.9005,0.0,0.0,0.0,0.0,0.0,0.0,0.0,0.0,0.0,0.0,0.0,0.0,0.0,0.0,0.0,2.3108,2.3108,2.3108,2.3108,2.3108,2.3108,2.3108,2.3108,2.3813,2.5342,2.5398,2.6108,2.7575,2.76,2.8222,2.9361,2.8779,2.9451,3.1151,3.0559,3.0638,3.119,3.119,3.119,3.119,3.119,3.119,3.1151,3.0539,3.0679,3.1131,3.0539,3.0699,3.119,3.119,3.119,3.119,3.121,3.1805,3.2725,3.3843,3.4412,3.4744,0.0,0.0,0.0,3.5675,3.5799,3.5911,3.5975,3.5845,3.571,3.5707,3.56,3.5507,3.55,3.55,3.55,3.55,3.5262,3.5105,3.5105,3.4851,3.4684,3.4684,3.4674,3.4674,3.4674,0.0,0.0,0.0,3.4188,3.4062,3.3802,3.3036,3.1861,3.0246,2.9457,2.9035,2.9005,2.9005,2.9005,2.9005,2.9257,2.9392,2.9412,2.9788,2.9754,2.9414,2.9821,2.9782,2.9402,2.9402,2.9235,2.9005,2.9005,2.9005,2.9005,2.9005,2.9005,2.9005,0.0,0.0,0.0,0.0,0.0,0.0,0.0,0.0,0.0,0.0,0.0,0.0,2.3108,2.3108,2.3108,2.3108,2.3108,2.3108,2.3108,2.3108,2.3108,2.3108,2.3108,2.356,2.4567,2.5119,2.5864,0.0,0.0,0.0,0.0,0.0,0.0,3.0539,3.0356,3.0638,3.119,3.119,3.119,3.119,3.119,3.119,3.1171,3.1015,3.1055,3.1171,3.1015,3.1055,3.119,3.119,3.119,3.1252,3.1528,3.2039,3.2632,3.3277,3.3893,3.4412,3.4715,0.0,0.0,0.0,0.0,0.0,3.589,3.5876,3.5829,3.5717,3.5635,3.555,3.5508,3.55,3.55,3.55,3.5262,3.5105,3.5105,3.4656,3.4345,3.4345,3.4165,3.4055,3.4055,0.0,0.0,0.0,3.3915,3.3876,3.3788,3.3229,3.2051,3.0265,3.0176,2.9769,2.9005,2.9005,2.9005,2.9005,2.9085,2.9112,2.9112,2.922,2.9314,2.9404,2.967,2.9653,2.9402,2.9402,2.9235,2.9005,2.9005,2.9005,2.9005,2.9005,2.9005,2.9005,0.0,0.0,0.0,0.0,0.0,0.0,0.0,0.0,0.0,0.0,0.0,0.0,2.3108,0.0,2.3108,2.3108,2.3108,2.3108,2.3108,2.3108,2.3108,2.3108,2.3108,2.3484,2.4292,2.5007,0.0,0.0,0.0,0.0,0.0,0.0,0.0,0.0,3.0038,3.0393,3.119,3.119,3.119,3.119,3.119,3.119,3.1171,3.0918,3.0975,3.1171,3.0918,3.0995,3.119,3.119,3.119,3.1271,3.1678,3.1986,3.2332,3.3014,3.3556,3.4031,3.4383,3.4784,3.5149,3.538,0.0,0.0,3.5867,3.5858,3.5819,3.5788,3.569,3.5585,3.5552,3.5515,3.55,3.55,3.5262,3.507,3.4954,3.4412,3.4031,3.4031,3.3902,3.3807,0.0,3.3807,3.3807,3.3807,3.3807,3.3807,3.3807,3.3179,3.223,3.0914,3.0697,3.015,2.9178,2.9178,2.9112,2.9005,2.9005,2.9005,2.9005,2.9123,2.9181,2.9246,2.9551,2.9523,2.9235,2.9351,2.9235,2.9005,2.9005,2.9005,2.9005,2.9005,2.9005,2.9005,0.0,0.0,0.0,0.0,0.0,0.0,0.0,0.0,0.0,0.0,0.0,0.0,0.0,0.0,0.0,0.0,2.3108,2.3108,2.3108,2.3108,0.0,2.3108,2.3108,2.3424,2.4147,2.4979,0.0,0.0,0.0,0.0,0.0,0.0,0.0,0.0,0.0,3.0081,3.119,3.119,3.119,3.119,3.119,3.119,3.1151,3.0601,3.074,3.1131,3.058,3.074,3.119,3.119,3.119,3.1252,3.1621,3.1771,3.1969,3.2809,3.3285,3.3632,3.4018,3.4555,3.503,3.5153,3.5379,0.0,3.5819,3.5786,3.5742,3.5858,3.5756,3.5626,3.5596,3.5558,3.5508,3.55,3.5262,3.4999,3.4734,3.4208,3.3829,3.3788,3.3807,3.3807,3.3807,3.3807,3.3807,3.3807,3.3807,3.3807,3.3807,3.3154,3.2515,3.195,3.1185,3.0385,2.9583,2.946,2.9278,2.9033,2.8998,2.9005,2.9017,2.9246,2.9243,2.901,2.9475,2.9416,2.9028,2.9289,2.9235,2.9005,2.9005,2.9005,2.9005,2.9005,2.9005,2.9005,0.0,0.0,0.0,0.0,0.0,0.0,0.0,0.0,0.0,0.0,0.0,0.0,2.3108,2.3108,0.0,0.0,2.3108,2.3108,2.3108,2.3108,2.3108,2.3108,2.3108,2.3155,2.3335,2.4696,0.0,0.0,0.0,0.0,0.0,0.0,0.0,0.0,0.0,3.0081,3.119,3.119,3.119,3.119,3.119,3.119,3.119,3.1055,3.1112,3.119,3.1055,3.1095,3.119,3.119,3.119,3.121,3.1291,3.1545,3.1843,3.2022,3.2645,3.335,3.3637,3.4036,3.4502,3.4985,3.5211,0.0,3.5592,3.5761,3.5846,3.5762,3.5796,3.5797,3.5631,3.5585,3.5562,3.5508,3.5262,3.4999,3.4734,3.4375,3.4043,3.3829,3.3807,3.3807,3.3807,3.3807,3.3807,3.3807,3.3807,3.3807,3.3807,3.3864,3.3533,3.2791,3.2187,3.1497,3.0706,2.9821,2.9372,2.932,2.91,2.9005,2.9005,2.9044,2.9044,2.9028,2.9322,2.928,2.9028,2.9289,2.9235,2.9005,2.9005,2.9005,2.9005,2.9005,2.9005,2.9005,0.0,0.0,0.0,0.0,0.0,0.0,0.0,0.0,0.0,0.0,2.3454,2.3708,2.3708,2.4018,2.4105,0.0,0.0,0.0,0.0,0.0,2.3108,2.3108,2.3108,2.3108,2.3108,0.0,0.0,0.0,0.0,0.0,0.0,0.0,0.0,0.0,0.0,3.0081,3.119,3.119,3.119,3.119,3.119,3.119,3.119,3.119,3.119,3.119,3.119,3.119,3.119,3.119,3.119,3.119,3.119,3.1332,3.1545,3.1734,3.2144,3.258,3.2952,3.3456,3.3969,3.4285,3.4737,0.0,0.0,3.5616,3.5799,3.5806,3.5856,3.5867,3.5775,3.5676,3.5585,3.5564,3.5409,3.5207,3.4935,3.45,3.4159,3.4006,3.3876,3.3807,3.3807,3.3807,3.3807,3.3807,3.3807,3.3807,3.3807,3.4056,3.3885,3.3224,3.2638,3.1967,3.1168,3.0189,2.9598,2.9402,2.9257,2.9134,2.9005,2.9005,2.9005,2.9005,2.9145,2.9123,2.9017,2.9145,2.9123,2.9005,2.9005,2.9005,2.9005,2.9005,2.9005,2.9005,2.275,0.0,0.0,0.0,0.0,0.0,0.0,0.0,0.0,2.3305,2.4031,2.4509,2.4509,2.5035,2.5147,2.4567,2.4509,0.0,0.0,2.3424,2.3335,2.3335,0.0,2.3108,2.3108,2.461,0.0,0.0,0.0,0.0,0.0,0.0,0.0,0.0,0.0,3.0081,3.119,3.119,3.119,3.119,3.119,3.119,3.119,3.119,3.119,3.119,3.119,3.119,3.119,3.119,3.1131,3.1055,3.1171,3.1131,3.1117,3.1565,3.1734,3.188,3.2247,3.2921,3.3542,3.3592,3.4274,3.4968,0.0,0.0,0.0,3.5834,3.5877,3.5901,3.5905,3.5775,3.565,3.5616,0.0,0.0,0.0,3.4716,0.0,3.4211,3.4006,0.0,3.382,3.3807,3.3807,3.3807,3.3807,3.3807,3.3807,3.4056,3.4027,3.3654,3.3075,3.2386,3.1625,3.0715,2.9989,2.9513,2.9434,2.9289,2.9085,2.901,2.9005,2.9005,2.9005,2.9005,2.9005,2.9005,2.9005,2.9005,2.9005,2.9005,2.9005,2.9005,2.9005,2.9005,2.275,2.3108,0.0,0.0,0.0,0.0,0.0,0.0,0.0,2.406,2.4809,2.5287,2.5287,2.5342,2.537,2.5287,2.5287,2.5231,2.5147,2.4538,2.4176,2.4176,2.3484,2.3108,2.3108,2.461,0.0,0.0,0.0,0.0,0.0,0.0,0.0,0.0,2.9406,3.0081,3.119,3.119,3.119,3.119,3.119,3.119,3.119,3.119,3.119,3.119,3.119,3.119,3.119,0.0,3.0838,3.0497,3.1035,3.0838,3.0518,3.1098,3.1526,3.1825,3.1879,3.2548,3.3292,3.3538,3.3944,3.4449,3.4987,0.0,3.535,3.5666,0.0,3.5892,3.5896,0.0,0.0,0.0,0.0,0.0,3.5474,3.5198,3.4803,3.4258,3.4164,3.4068,0.0,3.3807,3.3807,3.3807,3.3807,3.3807,3.3807,3.4056,3.4319,3.4552,3.3966,3.3341,3.2731,3.1673,3.0735,2.9931,2.957,2.9382,2.9351,2.9112,2.9005,2.9005,2.9005,2.9005,2.9005,2.9005,2.9005,2.9005,2.9005,2.9005,2.9005,2.9005,2.9005,2.9005,2.2944,2.3108,2.3108,0.0,0.0,0.0,0.0,0.0,0.0,2.4851,2.5563,2.6041,2.6041,2.6416,2.6508,2.6095,2.6041,2.5864,2.5425,2.4709,2.4481,2.4922,2.3767,2.3305,2.3796,2.4838,2.5398,0.0,2.6864,0.0,0.0,0.0,0.0,0.0,2.9406,3.0081,3.119,3.119,3.119,3.119,3.119,3.119,0.0,3.119,3.119,3.119,3.119,3.119,3.119,0.0,3.1035,0.0,0.0,0.0,0.0,3.1131,3.1312,3.1468,3.1468,3.2109,3.2807,0.0,0.0,0.0,3.4513,0.0,3.5245,0.0,0.0,0.0,0.0,0.0,0.0,0.0,3.5685,3.559,0.0,0.0,3.513,3.4561,0.0,0.0,0.0,0.0,0.0,0.0,3.3889,3.3881,3.4018,3.4311,3.4624,3.4926,3.4358,3.3913,3.366,3.2711,3.1733,3.0757,3.0585,3.0123,2.9402,2.9278,2.9156,2.9005,2.9005,2.9005,2.9005,2.9005,2.9005,2.9005,2.9005,2.9005,2.9005,2.9005,2.9005,2.9005,2.3005,2.3108,2.3108,2.3108,0.0,0.0,0.0,0.0,0.0,2.5855,2.6635,2.7149,2.7324,2.7665,2.7665,2.7129,2.6916,2.6575,2.6054,2.5315,2.5147,2.5673,2.4237,2.3708,2.4292,2.4823,2.5203,0.0,0.0,0.0,0.0,0.0,0.0,0.0,2.9316,2.9978,3.0958,3.1131,3.119,3.119,3.119,3.1269,3.1351,3.1232,3.1271,3.1351,3.1249,3.1271,3.1351,3.1249,3.1075,0.0,3.1151,0.0,3.1015,0.0,3.1387,3.137,3.137,0.0,0.0,0.0,0.0,0.0,0.0,0.0,0.0,0.0,0.0,0.0,0.0,0.0,3.5762,3.5846,0.0,3.5668,0.0,3.5556,3.534,0.0,0.0,0.0,0.0,0.0,0.0,3.42,3.4105,3.4136,3.4334,3.4634,3.4908,3.5096,3.4755,3.443,3.4205,3.3564,3.2621,3.1417,3.1347,3.0677,2.9551,2.9454,2.9289,2.91,2.904,2.9005,2.9005,2.9005,2.9005,2.9005,2.9005,2.9005,2.9005,2.9005,2.9005,2.9005,2.2781,2.3108,2.3108,2.3108,2.3108,0.0,0.0,0.0,2.5855,2.7249,2.8083,2.879,2.9418,2.8951,2.8562,2.8536,2.7938,2.7534,2.7534,2.6852,2.6457,2.6457,2.5035,2.4263,2.4292,2.4321,2.4681,0.0,0.0,0.0,0.0,0.0,0.0,0.0,2.9134,2.9739,3.0372,3.0938,3.119,3.119,3.119,3.143,3.1734,0.0,3.1449,3.1734,3.1332,0.0,0.0,3.1332,3.0818,0.0,0.0,0.0,0.0,0.0,0.0,0.0,0.0,0.0,0.0,3.2501,0.0,0.0,0.0,0.0,3.4417,0.0,0.0,0.0,0.0,0.0,3.5858,3.5722,3.5807,0.0,0.0,3.5605,3.5469,3.5127,0.0,0.0,0.0,0.0,3.42,3.42,3.4497,3.4674,3.4684,3.4944,3.5096,3.5105,3.5323,3.5045,3.4205,3.4167,3.3333,3.1686,3.1424,3.0845,2.9969,2.9579,2.9402,2.9372,2.9112,2.9005,2.9005,2.9005,2.9005,2.9005,2.9005,2.9005,2.9005,2.9005,2.9005,2.9005,2.2975,2.3108,2.3108,2.3108,2.3108,2.3688,2.5422,2.6316,2.7281,2.8639,2.9032,2.9258,2.9451,2.9264,2.8972,2.8566,2.8327,2.8018,2.7625,2.6904,2.6721,2.7203,2.5796,2.5259,2.5755,2.5755,2.5864,0.0,0.0,0.0,0.0,0.0,0.0,0.0,0.0,2.9973,3.0898,3.1112,3.1351,3.1621,3.1932,3.1968,3.1825,0.0,0.0,3.2196,3.1751,3.1678,0.0,3.1641,3.1456,3.1325,3.1529,3.1679,3.1772,3.1824,3.2039,0.0,0.0,0.0,3.2968,3.2968,0.0,0.0,0.0,0.0,0.0,0.0,0.0,0.0,0.0,0.0,3.5726,3.5815,3.58,3.574,0.0,3.5585,3.5489,3.5383,3.5034,3.4803,0.0,0.0,0.0,3.4803,3.4744,3.4793,3.4954,3.5062,3.519,3.5361,3.5446,3.5365,3.5064,3.5064,3.4487,3.3353,3.2685,3.1823,3.0833,3.0116,2.9643,2.9402,2.9299,2.9167,2.9005,2.9005,2.9005,2.9005,2.9005,2.9005,2.9005,2.9005,2.9005,2.9005,2.3035,2.3108,2.3108,2.3108,2.3517,2.4501,2.64,2.7311,2.84,3.0032,3.023,3.0273,3.0472,3.0302,2.9885,2.9242,2.8967,2.8676,2.8318,2.7811,2.7755,2.8243,2.7074,2.6654,2.7136,2.666,2.6544,2.682,0.0,2.7331,0.0,0.0,0.0,0.0,0.0,3.0026,3.1106,3.1317,3.1658,3.2092,3.2567,3.2583,0.0,0.0,3.2777,3.2467,0.0,3.2161,3.2281,3.2109,3.2039,3.2039,3.2039,3.2265,3.2467,3.2332,3.25,3.2745,3.2745,3.2968,0.0,3.3199,3.3472,0.0,3.3788,0.0,3.43,0.0,0.0,0.0,0.0,0.0,3.5645,3.5778,3.5789,3.5741,0.0,3.5621,3.5534,3.5507,3.5254,3.5105,3.5105,3.5105,3.5105,3.5105,3.5035,3.507,0.0,0.0,3.5312,3.5493,3.55,3.55,3.55,3.55,3.5064,3.4186,3.3622,3.2685,3.1419,3.0767,3.0154,2.9607,2.9464,2.9299,2.9134,2.9051,2.9005,2.9005,2.9005,2.9005,2.9005,2.9005,2.9005,2.9042,2.2982,2.317,2.3195,2.3281,2.4403,2.5754,2.7092,2.8014,2.9308,3.1367,3.1621,3.1831,3.2407,3.1911,3.1245,3.0462,2.9813,2.9466,2.9474,2.9445,2.9435,2.949,2.8776,2.8341,2.8341,2.7079,2.674,2.746,0.0,0.0,0.0,0.0,0.0,0.0,2.918,3.0004,3.0976,3.1554,3.2074,3.2583,3.3045,3.3214,3.3243,3.3652,3.327,3.2534,3.2534,3.2809,3.3139,3.2681,3.2534,3.2534,3.2534,3.255,3.2648,3.3075,3.3214,3.3229,3.3229,3.3229,3.3229,3.3229,0.0,0.0,0.0,0.0,3.4323,0.0,0.0,0.0,0.0,0.0,0.0,3.5605,3.5762,3.5856,3.5725,3.5657,3.5577,3.5515,3.5289,3.5113,3.5113,3.5113,3.5113,3.5113,3.5361,3.55,0.0,0.0,3.55,3.55,3.55,3.55,3.55,3.55,3.5084,3.4263,3.4225,3.3372,3.1808,3.147,3.086,3.0041,2.9617,2.9433,2.9382,2.9123,2.9017,2.9005,2.9005,2.9005,2.9005,2.9005,2.9023,2.917,2.3629,2.4104,2.4697,2.5732,2.6354,2.7181,2.8624,2.9931,3.1145,3.2149,3.2692,3.2827,3.239,3.2188,3.1622,3.0429,3.0157,2.9886,2.9457,2.9412,2.9418,2.9411,2.9243,2.9132,2.9132,2.8323,2.8039,2.8216,2.7605,0.0,2.7625,0.0,0.0,0.0,0.0,3.0636,3.1572,3.1735,3.2281,3.306,3.3494,3.3465,3.3243,0.0,3.3494,3.3014,3.3014,3.309,3.3184,3.306,3.3014,3.3014,3.3014,3.3243,3.3433,3.3258,3.3404,3.3652,3.3652,3.3652,3.3652,3.3652,3.3847,3.4061,0.0,0.0,0.0,0.0,0.0,0.0,0.0,0.0,0.0,3.559,3.5688,3.5761,3.5836,3.5702,3.5595,3.5577,3.5463,3.541,3.541,3.541,3.541,3.541,3.5453,3.55,0.0,0.0,0.0,3.55,3.55,3.55,3.55,3.55,3.5385,3.5154,3.4507,3.3975,3.3506,3.2193,3.1371,3.0929,3.0166,2.9678,2.9402,2.933,2.9189,2.9005,2.9005,2.9005,2.9005,2.9005,2.9372,2.9922,2.3941,2.4938,2.6096,2.7274,2.8314,2.9261,3.009,3.0958,3.1982,3.3257,3.3483,3.3315,3.282,3.278,3.2238,3.082,3.0699,3.0567,3.0259,3.0201,3.019,3.0237,3.0201,3.0187,3.0187,2.9585,2.9293,2.9293,2.8439,0.0,2.7993,0.0,0.0,0.0,0.0,3.0874,3.1843,3.2247,3.2822,3.3494,3.3707,3.3666,0.0,3.3707,3.3666,3.3465,3.3465,3.3465,3.3465,3.3465,3.3229,3.2938,3.2938,3.2858,3.2703,3.2484,3.2565,3.2742,3.2742,3.2845,3.2927,3.2927,3.3183,3.3527,3.3786,3.4098,3.4461,0.0,0.0,0.0,0.0,0.0,0.0,3.5585,3.5651,3.5733,3.5794,3.5766,3.5706,3.5642,3.5574,3.5564,3.5574,3.5534,3.55,3.55,3.55,0.0,0.0,0.0,0.0,3.55,3.55,3.55,3.55,3.55,3.55,3.5481,3.5007,3.4564,3.4167,3.2833,3.1956,3.1414,3.0424,2.9877,2.9643,2.9465,2.931,2.9204,2.943,2.9519,2.9574,2.9922,3.0118,3.0301,2.4337,2.5881,2.7449,2.8307,3.0031,3.1372,3.1571,3.1724,0.0,3.4373,0.0,3.3572,3.3427,3.3322,3.2696,3.1309,3.119,3.1224,3.1285,3.123,3.1241,3.128,3.1213,3.119,3.119,3.0617,3.0293,3.0293,2.9157,0.0,0.0,0.0,0.0,0.0,3.0145,3.0974,3.1951,3.2825,3.3419,3.3807,3.3807,3.3807,3.3807,3.3807,3.3807,3.3788,3.3678,3.3642,3.3642,3.3642,3.3109,3.2436,3.2436,3.1953,3.1397,3.1397,3.1397,3.1397,3.1446,3.1619,3.1804,3.1837,3.2166,3.2648,3.3157,3.3482,3.3925,3.4803,3.4975,3.5089,0.0,0.0,0.0,3.5591,3.5655,0.0,3.5721,3.5811,3.5836,3.5732,3.5655,0.0,0.0,3.5582,3.5488,3.5515,0.0,0.0,0.0,0.0,0.0,3.55,3.55,0.0,3.55,0.0,3.55,3.55,3.55,3.5103,3.434,3.3468,3.2622,3.1802,3.0692,3.0142,2.9977,2.9616,2.95,2.9595,3.0033,3.0265,3.0448,3.1256,3.1109,3.0705,2.6087,2.7615,2.8913,2.9779,3.0676,3.1741,3.2987,3.3682,3.417,3.4535,3.4424,3.4093,3.347,3.2848,3.2141,3.1275,3.119,0.0,3.122,3.1199,3.1202,3.122,3.1219,3.119,3.119,3.0617,3.0293,3.0293,0.0,0.0,0.0,0.0,0.0,3.0166,3.076,3.1547,3.2417,3.2968,0.0,3.3807,3.3807,3.3807,3.3807,3.3807,3.3807,3.3715,3.3041,3.2803,3.2803,3.2803,3.2284,3.1604,3.1604,3.1513,3.1397,3.1397,3.1397,3.1446,3.1677,3.176,3.1848,3.2001,3.2285,3.2537,3.2629,3.2871,3.3307,3.4171,3.4363,3.4588,3.5359,0.0,0.0,0.0,0.0,0.0,0.0,3.582,3.5775,3.5857,3.5752,3.5686,0.0,0.0,0.0,0.0,0.0,0.0,0.0,0.0,0.0,0.0,3.55,0.0,0.0,0.0,3.55,3.55,3.55,3.5423,3.5231,3.4372,3.3506,3.2641,3.1783,3.086,2.9999,2.9924,3.0092,3.0376,3.0254,3.0613,3.1292,3.21,3.2289,3.2216,2.7737,2.8889,2.9922,3.0675,3.1756,0.0,0.0,3.4326,3.4818,3.4582,3.4073,3.3588,3.3231,3.3059,3.2674,3.1947,3.1878,3.1878,3.1878,3.1878,3.1878,3.1878,3.1878,3.1878,3.1878,3.1588,3.1327,3.1075,0.0,0.0,0.0,0.0,0.0,3.0335,3.1145,3.2004,0.0,0.0,0.0,3.3807,3.3807,3.3807,3.3807,3.3807,3.3624,3.334,3.2952,3.2344,3.1749,3.1925,3.1439,3.0779,3.0779,3.0592,3.0368,3.0368,3.0431,3.0551,3.0683,3.0791,3.0892,3.0987,3.1219,3.1536,3.1983,3.2173,3.2506,3.3353,3.3526,3.3795,3.4661,3.5192,0.0,0.0,0.0,0.0,0.0,0.0,3.5878,3.593,3.5859,3.5817,3.5845,0.0,0.0,0.0,0.0,0.0,0.0,0.0,0.0,0.0,0.0,0.0,0.0,0.0,0.0,3.55,3.55,3.55,3.5462,3.4603,3.3975,3.3526,3.2699,3.202,3.1492,3.14,3.1303,3.1257,3.1529,3.1789,3.2118,3.2926,3.322,3.322,2.9164,2.9964,3.0733,3.1356,3.2572,3.3486,3.3537,3.4294,3.476,3.4453,3.3649,3.3137,3.3131,3.3266,3.3138,3.2554,3.2501,3.2501,3.2501,3.2501,3.2501,3.2501,3.2501,3.2501,3.2501,3.2501,3.2333,0.0,0.0,0.0,0.0,0.0,0.0,0.0,0.0,0.0,0.0,0.0,3.3419,3.3802,3.385,3.3889,3.3871,3.3769,3.345,3.3034,3.2668,3.1846,3.0904,3.1017,3.0618,3.0083,3.0083,2.9792,2.9474,2.9474,2.957,2.9713,2.9746,2.9885,3.0013,3.0075,3.0248,3.0577,3.1269,3.1429,3.166,3.2487,3.2776,3.316,3.4032,3.4757,0.0,0.0,0.0,0.0,0.0,0.0,3.5928,3.5974,3.5935,3.5931,3.5996,0.0,0.0,0.0,0.0,0.0,0.0,0.0,0.0,0.0,0.0,3.5522,3.5522,0.0,3.55,0.0,3.55,3.55,3.5481,3.4795,3.4379,3.4167,3.3468,3.3064,3.2878,3.2675,3.2443,3.2279,3.2803,3.2986,3.2998,3.3595,3.3807,3.3807,3.0085,3.0739,3.1436,0.0,0.0,3.3204,3.3616,3.3713,3.3827,3.4105,3.3785,3.353,3.3547,3.298,3.2589,3.2501,3.2501,3.2501,3.2501,3.2501,3.2501,3.2501,3.2501,3.2501,3.2501,3.2501,3.2484,0.0,0.0,0.0,0.0,0.0,0.0,0.0,0.0,0.0,0.0,3.3199,3.3419,3.3815,3.4068,3.4152,3.4102,3.362,3.3406,3.3162,3.1638,3.1017,3.079,3.0095,2.9803,2.9747,2.9747,2.9708,2.967,2.967,2.9687,2.9748,2.9924,2.9991,3.0061,3.0305,3.0373,3.0423,3.05,3.0519,3.0769,3.1641,3.2391,3.316,3.4032,3.4263,3.4603,0.0,0.0,0.0,0.0,0.0,3.5702,3.5898,3.5892,3.5925,3.5996,3.5976,0.0,0.0,3.5802,0.0,0.0,0.0,0.0,3.5678,0.0,3.559,3.559,3.5522,0.0,3.55,3.55,3.55,3.55,3.5423,3.4949,3.4205,3.4109,3.3622,3.2878,3.2675,3.2999,3.3574,3.316,3.3431,3.4023,3.3852,3.3807,3.3807,0.0,0.0,0.0,0.0,0.0,0.0,0.0,3.3844,3.3917,3.3591,3.3437,3.3353,3.3353,3.3316,3.3284,3.3284,3.3284,3.3284,3.3284,3.3284,3.3284,3.3284,3.3284,3.3284,3.3284,3.3284,3.3166,0.0,0.0,0.0,0.0,0.0,0.0,0.0,0.0,3.3391,3.3815,3.4,3.4188,3.4341,3.4464,3.4508,3.4425,3.3681,3.3186,3.2716,3.155,3.0917,3.0546,3.0235,2.992,2.9705,2.9705,2.978,2.9885,2.9885,2.9988,3.0135,3.0228,3.0248,3.026,3.0367,3.0404,3.0404,3.0404,3.0404,3.05,3.0846,3.1602,3.2295,3.2641,3.3083,3.3705,0.0,0.0,0.0,0.0,0.0,0.0,3.5875,3.5901,3.5938,3.5996,3.5996,0.0,0.0,0.0,0.0,0.0,0.0,0.0,3.5707,0.0,3.5611,3.5611,3.5534,3.55,3.55,3.55,3.55,3.55,3.55,3.5308,3.4988,3.4988,3.4776,3.4462,3.4374,3.4443,3.4554,3.4349,3.4353,3.4456,3.4147,3.4043,3.4006,3.1769,0.0,3.2023,0.0,3.3055,3.3184,3.3584,3.395,3.3996,3.3555,3.3496,3.3454,3.3375,3.3638,3.3807,3.3807,3.3863,3.3928,3.3928,3.3999,3.4049,3.4049,3.4049,0.0,3.4049,3.4049,3.393,3.3643,3.3497,0.0,0.0,0.0,0.0,0.0,3.3781,3.4073,3.4368,3.4593,3.4694,3.4704,3.4793,3.4652,3.4358,3.3543,3.2847,3.216,3.1331,3.0752,3.0404,3.0404,3.0188,2.9915,2.9915,2.9996,3.0122,3.0122,3.0254,3.0404,3.0404,3.0404,3.0404,3.0404,3.0404,3.0404,3.0404,3.0404,3.0404,3.0404,3.0885,3.141,3.166,3.216,3.2833,3.3686,0.0,0.0,0.0,3.5242,0.0,3.5766,3.5864,3.5914,3.5972,3.5995,0.0,0.0,0.0,0.0,0.0,0.0,0.0,0.0,0.0,0.0,0.0,3.554,3.55,3.55,3.55,3.55,3.55,3.55,3.55,3.55,3.55,3.55,3.55,3.55,3.5383,3.5207,3.513,3.4981,3.4774,3.4456,3.4269,3.4164,3.2616,3.2591,3.27,3.3124,3.3202,3.3321,3.3739,3.3793,3.3908,3.414,3.4188,3.4086,3.3815,3.3807,3.3807,3.3807,3.4043,3.4206,3.4206,3.4508,3.4684,0.0,0.0,3.4684,3.4684,3.4684,3.4684,3.4684,0.0,0.0,3.3983,0.0,3.3983,3.4006,3.4484,3.4684,3.4684,3.4694,3.4694,3.4714,3.499,3.4581,3.3748,3.3145,3.2404,3.1596,3.0725,3.0404,3.0404,3.0404,3.0398,3.0398,3.0398,3.0398,3.0398,3.0398,3.0404,3.0404,3.0404,3.0404,3.0404,3.0404,3.0404,3.0404,3.0404,3.0404,3.0404,3.0404,3.0404,3.0673,3.1545,3.1718,3.1987,3.2776,0.0,0.0,0.0,3.4268,0.0,3.5499,3.5785,3.5901,3.5903,3.5951,0.0,0.0,0.0,0.0,0.0,0.0,0.0,3.5996,3.5802,0.0,3.5703,3.5574,3.55,3.55,3.55,3.55,3.55,3.55,3.55,3.55,3.55,3.55,3.55,3.55,3.55,3.5479,3.5207,3.5096,3.507,3.4784,3.4478,3.42,3.2546,3.2529,3.2663,3.3126,3.3199,3.34,3.3975,3.408,3.4201,3.4508,3.454,3.4508,3.4409,3.4409,3.4409,0.0,3.4486,3.454,0.0,3.4643,3.4694,3.4694,3.4694,3.4694,3.4694,3.4694,3.4694,3.4694,0.0,0.0,0.0,3.4484,3.4484,3.4486,3.4823,3.4972,3.4981,3.5174,3.5258,3.5246,3.5346,3.4883,3.4051,3.3218,3.2438,3.1646,3.0733,3.0404,3.0404,3.0404,3.0404,3.0404,3.0404,3.0404,3.0404,3.0404,3.0404,3.0404,3.0404,3.0404,3.0404,3.0404,3.0404,3.0404,3.0404,3.0404,3.0404,3.0404,3.0404,3.0481,3.075,3.0808,3.1096,3.1948,3.2083,0.0,0.0,0.0,3.3783,3.4795,3.4963,3.5269,3.5913,3.5995,0.0,0.0,0.0,0.0,0.0,0.0,0.0,0.0,3.5893,0.0,3.5707,3.5616,3.554,3.55,3.55,3.55,3.55,3.55,3.55,3.55,3.55,3.55,3.55,3.55,3.55,3.5493,3.5417,3.5369,3.5346,3.5079,3.4907,3.4794,3.2981,3.3067,3.3241,3.3533,3.3683,3.39,3.4315,3.439,3.4489,3.4803,3.486,3.4898,3.499,3.4999,0.0,3.4714,3.4784,3.486,3.486,3.4944,3.4999,3.4999,3.4999,3.4999,3.4999,0.0,0.0,3.4999,3.4999,3.4999,3.4999,3.4999,3.4999,3.4999,3.5182,3.5239,3.5266,3.5432,3.55,3.55,3.55,3.4821,3.3741,3.3158,3.229,3.1266,3.0689,3.0487,3.0487,3.0487,3.0487,3.0487,3.0487,3.0487,3.0467,3.0419,3.0404,3.0404,3.0404,3.0425,3.0439,3.0416,3.0449,3.0487,3.0487,3.0487,3.0472,3.0441,3.043,3.0433,3.0396,3.0404,3.0595,3.1158,3.1246,3.1558,3.2471,0.0,3.2986,0.0,0.0,0.0,0.0,3.578,3.5996,0.0,0.0,0.0,0.0,0.0,0.0,3.5996,3.5922,0.0,3.5707,3.5635,3.5574,3.55,3.55,3.55,3.55,3.55,3.55,3.55,3.55,3.55,3.55,3.55,3.55,3.55,3.55,3.55,3.5486,3.5304,3.519,3.5079,3.3868,3.4056,0.0,0.0,3.4497,0.0,3.4714,3.4724,3.4813,3.5096,3.5122,3.5223,3.546,3.55,3.5297,3.4793,0.0,0.0,0.0,3.5361,3.55,3.55,3.55,3.55,3.55,3.55,3.55,3.55,3.55,3.55,3.55,3.55,3.55,3.55,3.55,3.55,3.55,3.5494,3.552,3.5501,3.5515,3.451,3.3021,3.3011,3.2019,3.0611,3.0606,3.0603,3.0603,3.0603,3.0603,3.0603,3.0603,3.0603,3.0571,3.0456,3.0414,3.0414,3.0414,3.0457,3.0485,3.0433,3.0507,3.0603,3.0603,3.0603,3.0581,3.0513,3.0511,3.0495,3.0422,3.0414,3.0425,3.0494,3.0511,3.0801,3.1683,0.0,3.2202,0.0,0.0,0.0,0.0,3.5405,3.5937,0.0,0.0,0.0,0.0,0.0,3.5996,3.5996,3.5944,3.5843,3.5707,3.5644,3.5566,3.55,3.55,3.55,3.55,3.55,3.55,3.55,3.55,3.55,3.55,3.55,3.55,3.55,3.55,3.55,3.55,3.55,3.5327,3.5122,0.0,0.0,3.4572,3.4572,3.4653,3.4764,3.4972,3.4999,3.5105,3.5369,3.5417,3.5432,3.5493,3.55,3.5446,3.5312,3.5369,3.5417,3.5417,3.546,3.55,3.55,3.55,3.55,3.55,3.55,3.55,3.55,3.55,3.55,3.55,3.55,3.55,3.55,3.55,3.55,3.5507,3.5544,3.5577,3.5588,3.5635,3.4675,3.3217,3.3164,3.2122,3.0673,3.0625,3.0603,3.0603,3.0603,3.0603,3.0603,3.0603,3.0603,3.0597,3.0554,3.054,3.054,3.054,3.0558,3.0571,3.0567,3.0575,3.0603,3.0603,3.0603,3.06,3.0578,3.0575,3.0568,3.0563,3.054,3.0567,3.0571,3.0575,3.0664,3.0944,3.1001,0.0,0.0,3.2655,3.3281,3.4549,3.4882,3.5273,0.0,0.0,0.0,0.0,3.5996,3.5996,3.5996,3.5976,3.5896,3.5707,3.5682,3.5626,3.55,3.55,3.55,3.55,3.55,3.55,3.55,3.55,3.55,3.55,3.55,3.55,3.55,3.55,3.55,3.55,3.55,3.5453,3.5417,3.4694,3.4793,3.4889,3.4889,3.4981,3.5113,3.5266,3.5289,3.5346,3.5486,3.55,3.55,3.55,3.55,3.55,3.55,3.55,3.55,3.55,3.55,3.55,3.55,3.55,3.55,3.55,3.55,3.55,3.55,3.55,3.55,3.55,3.55,3.55,3.5507,3.5528,3.5546,3.5552,3.5626,3.5657,3.5646,3.5686,3.4734,3.33,3.3251,3.2223,3.0791,3.0755,3.0746,3.0746,3.0746,3.0746,3.0746,3.0746,3.0746,3.0746,3.0746,3.0674,3.0603,3.0603,3.063,3.0659,3.0721,3.0691,3.0661,3.0723,3.0746,3.0721,3.0659,3.0652,3.0645,3.0611,3.0603,3.0617,3.0648,3.0652,3.0673,3.0789,3.0793,0.0,3.1543,3.1953,3.2695,3.3984,3.4473,3.5059,3.5937,0.0,0.0,3.5996,3.5996,3.5996,3.5996,3.5996,3.5905,3.5707,3.5648,3.5566,3.55,3.55,3.55,3.55,3.55,3.55,3.55,3.55,3.55,3.55,3.55,3.55,3.55,3.55,3.55,3.55,3.55,3.55,3.55,3.4813,3.4999,3.5147,3.5147,3.5354,3.55,3.55,3.55,3.55,3.55,3.55,3.55,3.55,3.55,3.5494,3.5521,3.5521,3.5508,3.55,3.55,3.55,3.55,3.55,3.55,3.55,3.55,3.55,3.55,3.55,3.55,3.55,3.5508,3.5521,3.5509,3.5599,3.5621,3.5631,3.5705,3.5723,3.5726,3.5738,3.4779,3.3313,3.3313,3.2315,3.0898,3.0898,3.0898,3.0898,3.0898,3.0898,3.0898,3.0898,3.0898,3.0898,3.0898,3.0782,3.0658,3.0658,3.0695,3.0767,3.0878,3.0815,3.0768,3.0878,3.0898,3.0878,3.0747,3.0722,3.0713,3.0667,3.0658,3.0655,3.0717,3.0722,3.077,3.0879,0.0,3.0898,3.0898,3.1543,3.2363,3.3301,3.4062,3.4922,3.5918,3.5996,3.5996,0.0,3.5996,3.5996,3.5996,3.5996,3.5905,3.5707,3.5574,3.55,3.55,3.55,3.55,3.55,3.55,3.55,3.55,3.55,3.55,3.55,3.55,3.55,3.55,3.55,3.55,3.55,3.55,3.55,3.55,3.5376,3.5417,3.5439,3.5439,3.546,3.55,3.55,3.55,3.55,3.55,3.55,3.55,3.55,3.55,3.5522,3.5582,3.5574,3.5562,3.5488,3.55,3.55,3.55,3.55,3.55,3.55,3.55,3.55,3.55,3.55,3.55,3.55,3.5556,3.5574,3.5585,3.5655,3.5682,3.5689,3.5827,3.5871,3.5875,3.5927,3.492,3.3378,3.3378,3.2343,3.0898,3.0898,3.0898,3.0898,3.0898,3.0898,3.0898,3.0898,3.0898,3.0898,3.0898,3.0878,3.0857,3.0857,3.0858,3.0878,3.0898,3.0879,3.0878,3.0898,3.0898,3.0898,3.0878,3.0878,3.0878,3.0857,3.0857,3.0857,3.0878,3.0878,3.0878,3.0898,0.0,3.0898,3.0898,3.1016,3.1719,3.3242,3.3516,3.4277,3.5879,3.5996,3.5996,3.5996,3.5996,3.5996,3.5996,3.5996,3.5905,3.5707,3.5574,3.55,3.55,3.55,3.55,3.55,3.55,3.55,3.55,3.55,3.55,3.55,3.55,3.55,3.55,3.55,3.55,3.55,3.55,3.55,3.55,3.55,3.55,3.55,3.55,3.55,3.55,3.55,3.55,3.5515,3.5552,3.5544,3.5574,3.5596,3.5606,3.5611,3.565,3.5655,3.5648,3.5611,3.5606,3.5606,3.5606,3.5606,3.5606,3.5606,3.5606,3.5606,3.5606,3.5606,3.5606,3.5606,3.5648,3.5655,3.5659,3.5755,3.5805,3.5809,3.5918,3.5949,3.595,3.5995,3.4961,3.3398,3.3398,3.2363,3.0898,3.0898,3.0898,3.0898,3.0898,3.0898,3.0898,3.0898,3.0898,3.0898,3.0898,3.0898,3.0898,3.0898,3.0898,3.0898,3.0898,3.0898,3.0898,3.0898,3.0898,3.0898,3.0898,3.0898,3.0898,3.0898,3.0898,3.0898,3.0898,3.0898,0.0,0.0,3.0898,3.0898,3.0898,3.0898,3.1562,3.3242,3.3398,3.4121,3.5879,3.5996,3.5996,3.5996,3.5996,3.5996,3.5996,3.5882,3.5777,3.5642,3.5552,3.55,3.55,3.55,3.55,3.55,3.55,3.55,3.55,3.55,3.55,3.55,3.55,3.55,3.55,3.55,3.55,3.55,3.55,3.55,3.55,3.55,3.55,3.55,3.55,3.55,3.5514,3.5515,3.5522,3.5546,3.5621,3.5616,3.5633,3.5696,3.5707,3.5713,3.5732,3.5755,3.5741,3.578,3.576,3.5747,3.5707,3.5707,3.5707,3.5707,3.5707,3.5707,3.5707,3.5707,3.5707,3.5707,3.5726,3.5755,3.5758,3.5878,3.5917,3.5938,3.5975,3.5996,3.5996,3.5996,3.5078,3.3672,3.3476,3.248,3.1172,3.0976,3.0898,3.0898,3.0898,3.0898,3.0898,3.0898,3.0898,3.0898,3.0898,3.0898,3.0898,3.0898,3.0898,3.0898,3.0898,3.0898,3.0898,3.0898,3.0898,3.0898,3.0898,3.0898,3.0898,3.0898,3.0898,3.0898,3.0898,0.0,0.0,0.0,3.0898,3.0898,3.0898,3.1074,3.1777,3.3262,3.3574,3.4336,3.5879,3.5996,3.5996,3.5996,3.5996,3.5976,3.593,3.5788,3.5675,3.5591,3.5534,3.55,3.55,3.55,3.55,3.55,3.55,3.55,3.55,3.55,3.55,3.55,3.55,3.55,3.55,3.55,3.55,3.55,3.55,3.55,3.55,3.55,3.55,3.55,3.55,3.55,3.5515,3.5574,3.5595,3.5621,3.5682,3.5696,3.5696,3.5703,3.5707,3.5755,3.5873,3.5896,3.5914,3.5975,3.5976,3.5882,3.5713,3.5707,3.5707,3.5707,3.5707,3.5707,3.5707,3.5707,3.5707,3.5707,3.5834,3.5896,3.59,3.5952,3.5996,3.5996,3.5996,3.5996,3.5996,3.5996,3.5449,3.4512,3.3711,3.2851,3.1992,3.1191,3.0898,3.0898,3.0898,3.0898,3.0898,3.0898,3.0898,3.0898,3.0898,3.0898,3.0898,3.0898,3.0898,3.0898,3.0898,3.0898,3.0898,3.0898,3.0898,3.0898,3.0898,3.0898,3.0898,3.0898,3.0898,3.0898,3.0898,0.0,0.0,3.0898,3.0898,3.0898,3.0898,3.1601,3.2441,3.332,3.4121,3.498,3.5937,3.5996,3.5996,3.5996,3.5996,3.5907,3.5729,3.5713,3.5675,3.5591,3.5534,3.55,3.55,3.55,3.55,3.55,3.55,3.55,3.55,3.55,3.55,3.55,3.55,3.55,3.55,3.55,3.55,3.55,3.55,3.55,3.55,3.5621,3.559,3.5577,3.5626,3.5616,3.5635,3.5659,3.5667,3.5705,3.5805,3.5814,3.5847,3.5876,3.5899,3.5903,3.5951,3.5952,3.5974,3.5996,3.5996,3.5975,3.588,3.5899,3.5899,3.5899,3.5899,3.5899,3.5899,3.5899,3.5899,3.5899,3.5948,3.5952,3.5952,3.5995,3.5996,3.5996,3.5996,3.5996,3.5996,3.5996,3.5488,3.4668,3.4336,3.3379,3.2168,3.1836,3.1367,3.0898,3.0898,3.0898,3.0898,3.0898,3.0898,3.0898,3.0898,3.0898,3.0898,3.0898,3.0898,3.0898,3.0898,3.0898,3.0898,3.0898,3.0898,3.0898,3.0898,3.0898,3.0898,3.0898,3.0898,3.0898,3.0898,0.0,3.0898,3.0898,3.1367,3.1719,3.1719,3.2441,3.3281,3.4121,3.4512,3.5059,3.5937,3.5996,3.5996,3.5996,3.5951,3.5845,3.5633,3.5644,3.5601,3.5547,3.5515,3.55,3.55,3.55,3.55,3.55,3.55,3.55,3.55,3.55,3.55,3.55,3.55,3.55,3.55,3.55,3.55,3.55,3.55,3.55,3.55,3.5693,3.5667,3.5657,3.5693,3.5707,3.5713,3.5761,3.5764,3.5807,3.5917,3.5921,3.5948,3.5996,3.5996,3.5996,3.5996,3.5996,3.5996,3.5996,3.5996,3.5996,3.5996,3.5996,3.5996,3.5996,3.5996,3.5996,3.5996,3.5996,3.5996,3.5996,3.5996,3.5996,3.5996,3.5996,3.5996,3.5996,3.5996,3.5996,3.5996,3.5996,3.5644,3.5078,3.4805,3.3984,3.293,3.2383,3.1816,3.1269,3.0996,3.0898,3.0898,3.0857,3.0814,3.0809,3.0809,3.0809,3.0809,3.0809,3.0809,3.0812,3.0879,3.0898,3.0898,3.0898,3.0898,3.0898,3.0898,3.0898,3.0898,3.0898,3.0898,3.0898,3.0898,3.0898,3.0996,3.1269,3.1816,3.2285,3.2559,3.3301,3.4043,3.4648,3.4941,3.5351,3.5957,3.5996,3.5996,3.5973,3.5873,3.5732,3.5596,3.5582,3.5546,3.55,3.55,3.55,3.55,3.55,3.55,3.55,3.55,3.55,3.55,3.55,3.55,3.55,3.55,3.55,3.55,3.55,3.55,3.55,3.55,3.55,3.55,3.5707,3.5707,3.5707,3.5707,3.5707,3.5755,3.5877,3.5903,3.5917,3.5996,3.5996,3.5996,3.5996,3.5996,3.5996,3.5996,3.5996,3.5996,3.5996,3.5996,3.5996,3.5996,3.5996,3.5996,3.5996,3.5996,3.5996,3.5996,3.5996,3.5996,3.5996,3.5996,3.5996,3.5996,3.5996,3.5996,3.5996,3.5996,3.5996,3.5996,3.5996,3.5996,3.5918,3.5039,3.4707,3.4473,3.2812,3.2207,3.207,3.1211,3.0918,3.0878,3.0744,3.0642,3.0603,3.0603,3.0603,3.0603,3.0603,3.0603,3.0658,3.0856,3.0898,3.0898,3.0898,3.0898,3.0898,3.0898,3.0898,3.0898,3.0898,3.0898,3.0898,3.0898,3.0918,3.1211,3.207,3.2207,3.2519,3.332,3.418,3.4707,3.4707,3.5488,3.5996,3.5996,3.5996,3.5973,3.5903,3.5718,3.5611,3.5605,3.5534,3.55,3.55,3.55,3.55,3.55,3.55,3.55,3.55,3.55,3.55,3.55,3.55,3.55,3.55,3.55,3.55,3.55,3.55,3.55,3.55,3.55,3.55,3.55,3.5902,3.5866,3.5853,3.5902,3.5906,3.5928,3.5953,3.5973,3.5975,3.5996,3.5996,3.5996,3.5996,3.5996,3.5996,3.5996,3.5996,3.5996,3.5996,3.5996,3.5996,3.5996,3.5996,3.5996,3.5996,3.5996,3.5996,3.5996,3.5996,3.5996,3.5996,3.5996,3.5996,3.5996,3.5996,3.5996,3.5996,3.5996,3.5996,3.5996,3.5996,3.5996,3.5976,3.5703,3.5234,3.4629,3.4121,3.3532,3.293,3.2677,3.215,3.1495,3.0838,3.0623,3.0603,3.0603,3.0603,3.0603,3.0603,3.0603,3.0614,3.0674,3.0683,3.0683,3.0683,3.0683,3.0683,3.0683,3.0731,3.0768,3.0768,3.0837,3.0898,3.0898,3.1406,3.1894,3.2168,3.3203,3.4043,3.4277,3.5078,3.5605,3.5605,3.5859,3.5975,3.5922,3.5836,3.5761,3.5686,3.5631,3.5582,3.5528,3.5508,3.55,3.55,3.55,3.55,3.55,3.55,3.55,3.55,3.55,3.55,3.55,3.55,3.55,3.55,3.55,3.55,3.55,3.55,3.55,3.55,3.55,3.55,3.55,3.5996,3.5973,3.5949,3.5996,3.5996,3.5996,3.5996,3.5996,3.5996,3.5996,3.5996,3.5996,3.5996,3.5996,3.5996,3.5996,3.5996,3.5996,3.5996,3.5996,3.5996,3.5996,3.5996,3.5996,3.5996,3.5996,3.5996,3.5996,3.5996,3.5996,3.5996,3.5996,3.5996,3.5996,3.5996,3.5996,3.5996,3.5996,3.5976,3.5951,3.5951,3.5927,3.5878,3.5878,3.5545,3.5057,3.4744,3.4257,3.3717,3.3385,3.2849,3.2229,3.1728,3.1526,3.1513,3.1513,3.1513,3.1513,3.1513,3.1284,3.1032,3.1032,3.0823,3.0603,3.0603,3.0603,3.0603,3.0603,3.0621,3.0667,3.0667,3.1001,3.1307,3.1307,3.2029,3.2712,3.3063,3.3982,3.4744,3.5057,3.5564,3.5878,3.5878,3.5878,3.5868,3.5814,3.5719,3.5633,3.5596,3.5571,3.5534,3.55,3.55,3.55,3.55,3.55,3.55,3.55,3.55,3.55,3.55,3.55,3.55,3.55,3.55,3.55,3.55,3.55,3.55,3.55,3.55,3.55,3.55,3.55,3.55,3.55,3.5996,3.5996,3.5996,3.5996,3.5996,3.5996,3.5996,3.5996,3.5996,3.5996,3.5996,3.5996,3.5996,3.5996,3.5996,3.5996,3.5996,3.5996,3.5996,3.5996,3.5996,3.5996,3.5996,3.5996,3.5996,3.5996,3.5996,3.5996,3.5996,3.5996,3.5996,3.5996,3.5996,3.5996,3.5996,3.5996,3.5996,3.5996,3.5949,3.5877,3.5877,3.5807,3.5707,3.5707,3.5707,3.5606,3.4863,3.46,3.4457,3.3584,3.3206,3.3098,3.302,3.296,3.2891,3.2891,3.2891,3.2891,3.2891,3.2372,3.1814,3.1814,3.1308,3.0776,3.062,3.0639,3.0698,3.0698,3.0763,3.0805,3.0805,3.1469,3.2017,3.2017,3.2753,3.3589,3.4393,3.4568,3.4883,3.5606,3.5707,3.5707,3.5707,3.5696,3.5693,3.5693,3.5626,3.559,3.559,3.5528,3.55,3.55,3.55,3.55,3.55,3.55,3.55,3.55,3.55,3.55,3.55,3.55,3.55,3.55,3.55,3.55,3.55,3.55,3.55,3.55,3.55,3.55,3.55,3.55,3.55,3.55,3.5996,3.5996,3.5996,3.5996,3.5996,3.5996,3.5996,3.5996,3.5996,3.5996,3.5996,3.5996,3.5996,3.5996,3.5996,3.5996,3.5996,3.5996,3.5996,3.5996,3.5996,3.5996,3.5996,3.5996,3.5996,3.5996,3.5996,3.5996,3.5996,3.5996,3.5996,3.5996,3.5996,3.5996,3.5996,3.5973,3.5916,3.5916,3.5851,3.5732,3.5732,3.5723,3.5707,3.5707,3.5707,3.5687,3.5509,3.5418,3.5229,3.4287,3.3953,3.3826,3.3133,3.2916,3.2891,3.2891,3.2891,3.2891,3.2891,3.2776,3.2641,3.2641,3.2517,3.2061,3.073,3.0962,3.1463,3.1463,3.201,3.2477,3.2477,3.2718,3.2924,3.2924,3.3647,3.4273,3.4471,3.5038,3.5509,3.5687,3.5707,3.5707,3.5707,3.565,3.5616,3.5616,3.5556,3.5522,3.5522,3.5501,3.55,3.55,3.55,3.55,3.55,3.55,3.55,3.55,3.55,3.55,3.55,3.55,3.55,3.55,3.55,3.55,3.55,3.55,3.55,3.55,3.55,3.55,3.55,3.55,3.55,3.55,3.5996,3.5996,3.5996,3.5996,3.5996,3.5996,3.5996,3.5996,3.5996,3.5996,3.5996,3.5996,3.5996,3.5996,3.5996,3.5996,3.5996,3.5996,3.5996,3.5996,3.5996,3.5996,3.5996,3.5996,3.5996,3.5996,3.5996,3.5996,3.5996,3.5996,3.5996,3.5996,3.5975,3.5949,3.5949,3.5893,3.5805,3.5805,3.5739,3.565,3.565,3.5635,3.5601,3.5601,3.5601,3.5601,3.5601,3.5588,3.5488,3.5001,3.4814,3.4737,3.4276,3.4141,3.4141,3.4141,3.4141,3.4141,3.4141,3.3833,3.3526,3.3526,3.3218,3.2679,3.1795,3.1948,3.2275,3.2275,3.2644,3.2946,3.2946,3.3353,3.3689,3.3689,3.4405,3.4986,3.4986,3.5345,3.5601,3.5601,3.5601,3.5601,3.5601,3.5571,3.5558,3.5558,3.5515,3.55,3.55,3.55,3.55,3.55,3.55,3.55,3.55,3.55,3.55,3.55,3.55,3.55,3.55,3.55,3.55,3.55,3.55,3.55,3.55,3.55,3.55,3.55,3.55,3.55,3.55,3.55,3.55,3.55,3.5996,3.5996,3.5996,3.5996,3.5996,3.5996,3.5996,3.5996,3.5996,3.5996,3.5996,3.5996,3.5996,3.5996,3.5996,3.5996,3.5996,3.5996,3.5996,3.5996,3.5996,3.5996,3.5996,3.5996,3.5996,3.5996,3.5996,3.5996,3.5996,3.5996,3.5975,3.5975,3.5948,3.5871,3.5871,3.5797,3.5682,3.5682,3.5638,3.5574,3.5574,3.5552,3.55,3.55,3.55,3.55,3.55,3.55,3.55,3.55,3.55,3.55,3.55,3.55,3.55,3.55,3.55,3.55,3.55,3.4968,3.441,3.441,3.3872,3.3333,3.3333,3.3237,3.3122,3.3122,3.3237,3.3333,3.3333,3.393,3.441,3.441,3.5026,3.55,3.55,3.55,3.55,3.55,3.55,3.55,3.55,3.55,3.55,3.55,3.55,3.55,3.55,3.55,3.55,3.55,3.55,3.55,3.55,3.55,3.55,3.55,3.55,3.55,3.55,3.55,3.55,3.55,3.55,3.55,3.55,3.55,3.55,3.55,3.55,3.55,3.55,3.55,3.55,3.55,3.5996,3.5996,3.5996,3.5996,3.5996,3.5996,3.5996,3.5996,3.5996,3.5996,3.5996,3.5996,3.5996,3.5996,3.5996,3.5996,3.5996,3.5996,3.5996,3.5996,3.5996,3.5996,3.5996,3.5996,3.5996,3.5996,3.5996,3.5996,3.5996,3.5973,3.5911,3.5911,3.5847,3.5723,3.5723,3.569,3.5616,3.5616,3.5571,3.5515,3.5515,3.5501,3.55,3.55,3.55,3.55,3.55,3.55,3.55,3.55,3.55,3.55,3.55,3.55,3.55,3.55,3.55,3.55,3.55,3.5404,3.5327,3.5327,3.5231,3.5154,3.5154,3.4564,3.4013,3.4013,3.4622,3.5154,3.5154,3.5231,3.5327,3.5327,3.5423,3.55,3.55,3.55,3.55,3.55,3.55,3.55,3.55,3.55,3.55,3.55,3.55,3.55,3.55,3.55,3.55,3.55,3.55,3.55,3.55,3.55,3.55,3.55,3.55,3.55,3.55,3.55,3.55,3.55,3.55,3.55,3.55,3.55,3.55,3.55,3.55,3.55,3.55,3.55,3.55,3.55,3.5996,3.5996,3.5996,3.5996,3.5996,3.5996,3.5996,3.5996,3.5996,3.5996,3.5996,3.5996,3.5996,3.5996,3.5996,3.5996,3.5996,3.5996,3.5996,3.5996,3.5996,3.5996,3.5996,3.5975,3.5947,3.5946,3.5918,3.5838,3.5918,3.5939,3.5901,3.5812,3.5733,3.5638,3.5638,3.5601,3.554,3.554,3.5534,3.55,3.55,3.55,3.55,3.55,3.55,3.55,3.55,3.55,3.55,3.55,3.55,3.55,3.55,3.55,3.55,3.55,3.55,3.55,3.55,3.55,3.55,3.55,3.55,3.55,3.55,3.5192,3.493,3.493,3.5231,3.55,3.55,3.55,3.55,3.55,3.55,3.55,3.55,3.55,3.55,3.55,3.55,3.55,3.55,3.55,3.55,3.55,3.55,3.55,3.55,3.55,3.55,3.55,3.55,3.55,3.55,3.55,3.55,3.55,3.55,3.55,3.55,3.55,3.55,3.55,3.55,3.55,3.55,3.55,3.55,3.55,3.55,3.55,3.55,3.55,3.55,3.55]}]]